[[{"header":{"parameterUnit":"m.s-1","parameterCategory":1,"la1":31.0,"la2":29.5877,"lo1":-88.7671,"lo2":-86.6584,"dy":0.0162,"dx":0.0185,"nx":115,"ny":88,"refTime":"2023-07-12T18:00:00:Z","depth":0,"parameterNumber":2,"parameterNumberName":"U-component_of_WINDS"},"data":[0.0,0.0,0.0,0.0,0.0,0.0,0.0,0.0,0.0,0.0,0.0,0.0,0.0,0.0,0.0,0.0,0.0,0.0,0.0,0.0,0.0,0.0,0.0,0.0,0.0,0.0,0.0,0.0,0.0,0.0,0.0,0.0,0.0,0.0,0.0,0.0,0.0,0.0,0.0,0.0,0.0,0.0,0.0,0.0,0.0,0.0,0.0,0.0,0.0,0.0,0.0,0.0,0.0,0.0,0.0,0.0,0.0,0.0,0.0,0.0,0.0,0.0,0.0,0.0,0.0,0.0,0.0,0.0,0.0,0.0,0.0,0.0,0.0,0.0,0.0,0.0,0.0,0.0,0.0,0.0,0.0,0.0,0.0,0.0,0.0,0.0,0.0,0.0,0.0,0.0,0.0,0.0,0.0,0.0,0.0,0.0,0.0,0.0,0.0,0.0,0.0,0.0,0.0,0.0,0.0,0.0,0.0,0.0,0.0,0.0,0.0,0.0,0.0,0.0,0.0,0.0,0.0,0.0,0.0,0.0,0.0,0.0,0.0,0.0,0.0,0.0,0.0,0.0,0.0,0.0,0.0,0.0,0.0,0.0,0.0,0.0,0.0,0.0,0.0,0.0,0.0,0.0,0.0,0.0,0.0,0.0,0.0,0.0,0.0,0.0,0.0,0.0,0.0,0.0,0.0,0.0,0.0,0.0,0.0,0.0,0.0,0.0,0.0,0.0,0.0,0.0,0.0,0.0,0.0,0.0,0.0,0.0,0.0,0.0,0.0,0.0,0.0,0.0,0.0,0.0,0.0,0.0,0.0,0.0,0.0,0.0,0.0,0.0,0.0,0.0,0.0,0.0,0.0,0.0,0.0,0.0,0.0,0.0,0.0,0.0,0.0,0.0,0.0,0.0,0.0,0.0,0.0,0.0,0.0,0.0,0.0,0.0,0.0,0.0,0.0,0.0,0.0,0.0,0.0,0.0,0.0,0.0,0.0,0.0,0.0,0.0,0.0,0.0,0.0,0.0,0.0,0.0,0.0,0.0,0.0,0.0,0.0,0.0,0.0,0.0,0.0,0.0,0.0,0.0,0.0,0.0,0.0,0.0,0.0,0.0,0.0,0.0,0.0,0.0,0.0,0.0,0.0,0.0,0.0,0.0,0.0,0.0,0.0,0.0,0.0,0.0,0.0,0.0,0.0,0.0,0.0,0.0,0.0,0.0,0.0,0.0,0.0,0.0,0.0,0.0,0.0,0.0,0.0,0.0,0.0,0.0,0.0,0.0,0.0,0.0,0.0,0.0,0.0,0.0,0.0,0.0,0.0,0.0,0.0,0.0,0.0,0.0,0.0,0.0,0.0,0.0,0.0,0.0,0.0,0.0,0.0,0.0,0.0,0.0,0.0,0.0,0.0,0.0,0.0,0.0,0.0,0.0,0.0,0.0,0.0,0.0,0.0,0.0,0.0,0.0,0.0,0.0,0.0,0.0,0.0,0.0,0.0,0.0,0.0,0.0,0.0,0.0,0.0,0.0,0.0,0.0,0.0,0.0,0.0,0.0,0.0,0.0,0.0,0.0,0.0,0.0,0.0,0.0,0.0,0.0,0.0,0.0,0.0,0.0,0.0,0.0,0.0,0.0,0.0,0.0,0.0,0.0,0.0,0.0,0.0,0.0,0.0,0.0,0.0,0.0,0.0,0.0,0.0,0.0,0.0,0.0,0.0,0.0,0.0,0.0,0.0,0.0,0.0,0.0,0.0,0.0,0.0,0.0,0.0,0.0,0.0,0.0,0.0,0.0,0.0,0.0,0.0,0.0,0.0,0.0,0.0,0.0,0.0,0.0,0.0,0.0,0.0,0.0,0.0,0.0,0.0,0.0,0.0,0.0,0.0,0.0,0.0,0.0,0.0,0.0,0.0,0.0,0.0,0.0,0.0,0.0,0.0,0.0,0.0,0.0,0.0,0.0,0.0,0.0,0.0,0.0,0.0,0.0,0.0,0.0,0.0,0.0,0.0,0.0,0.0,0.0,0.0,0.0,0.0,0.0,0.0,0.0,0.0,0.0,0.0,0.0,0.0,0.0,0.0,0.0,0.0,0.0,0.0,0.0,0.0,0.0,0.0,0.0,0.0,0.0,0.0,0.0,0.0,0.0,0.0,0.0,0.0,0.0,0.0,0.0,0.0,0.0,0.0,0.0,0.0,0.0,0.0,0.0,0.0,0.0,0.0,0.0,0.0,0.0,0.0,0.0,0.0,0.0,0.0,0.0,0.0,0.0,0.0,0.0,0.0,0.0,0.0,0.0,0.0,0.0,0.0,0.0,0.0,0.0,0.0,0.0,0.0,0.0,0.0,0.0,0.0,0.0,0.0,0.0,0.0,0.0,0.0,0.0,0.0,0.0,0.0,0.0,0.0,0.0,0.0,0.0,0.0,0.0,0.0,0.0,0.0,0.0,0.0,0.0,0.0,0.0,0.0,0.0,0.0,0.0,0.0,0.0,0.0,0.0,0.0,0.0,0.0,0.0,0.0,0.0,0.0,0.0,0.0,0.0,0.0,0.0,0.0,0.0,0.0,0.0,0.0,0.0,0.0,0.0,0.0,0.0,0.0,0.0,0.0,0.0,0.0,0.0,0.0,0.0,0.0,0.0,0.0,0.0,0.0,0.0,0.0,0.0,0.0,0.0,0.0,0.0,0.0,0.0,0.0,0.0,0.0,0.0,0.0,0.0,0.0,0.0,0.0,0.0,0.0,0.0,0.0,0.0,0.0,0.0,0.0,0.0,0.0,0.0,0.0,0.0,0.0,0.0,0.0,0.0,0.0,0.0,0.0,0.0,0.0,0.0,0.0,0.0,0.0,0.0,0.0,0.0,0.0,0.0,0.0,0.0,0.0,0.0,0.0,0.0,0.0,0.0,0.0,0.0,0.0,0.0,0.0,0.0,0.0,0.0,0.0,0.0,0.0,0.0,0.0,0.0,0.0,0.0,0.0,0.0,0.0,0.0,0.0,0.0,0.0,0.0,0.0,0.0,0.0,0.0,0.0,0.0,0.0,0.0,0.0,0.0,0.0,0.0,0.0,0.0,0.0,0.0,0.0,0.0,0.0,0.0,0.0,0.0,0.0,0.0,0.0,0.0,0.0,0.0,0.0,0.0,0.0,0.0,0.0,0.0,0.0,0.0,0.0,0.0,0.0,0.0,0.0,0.0,0.0,0.0,0.0,0.0,0.0,0.0,0.0,0.0,0.0,0.0,0.0,0.0,0.0,0.0,0.0,0.0,0.0,0.0,0.0,0.0,0.0,0.0,0.0,0.0,0.0,0.0,0.0,0.0,0.0,0.0,0.0,0.0,0.0,0.0,0.0,0.0,0.0,0.0,0.0,0.0,0.0,0.0,0.0,0.0,0.0,0.0,0.0,0.0,0.0,0.0,0.0,0.0,0.0,0.0,0.0,0.0,0.0,0.0,0.0,0.0,0.0,0.0,0.0,0.0,0.0,0.0,0.0,0.0,0.0,0.0,0.0,0.0,0.0,0.0,0.0,0.0,0.0,0.0,0.0,0.0,0.0,0.0,0.0,0.0,0.0,0.0,0.0,0.0,0.0,0.0,0.0,0.0,0.0,0.0,0.0,0.0,0.0,0.0,0.0,0.0,0.0,0.0,0.0,0.0,0.0,0.0,0.0,0.0,0.0,0.0,0.0,0.0,0.0,0.0,0.0,0.0,0.0,0.0,0.0,0.0,0.0,0.0,0.0,0.0,0.0,0.0,0.0,0.0,0.0,0.0,0.0,0.0,0.0,0.0,0.0,0.0,0.0,0.0,0.0,0.0,0.0,0.0,0.0,0.0,0.0,0.0,0.0,0.0,0.0,0.0,0.0,0.0,0.0,0.0,0.0,0.0,0.0,0.0,0.0,0.0,0.0,0.0,0.0,0.0,0.0,0.0,0.0,0.0,0.0,0.0,0.0,0.0,0.0,0.0,0.0,0.0,0.0,0.0,0.0,0.0,0.0,0.0,0.0,0.0,0.0,0.0,0.0,0.0,0.0,0.0,0.0,0.0,0.0,0.0,0.0,0.0,0.0,0.0,0.0,0.0,0.0,0.0,0.0,0.0,0.0,0.0,0.0,0.0,0.0,0.0,0.0,0.0,0.0,0.0,0.0,0.0,0.0,0.0,0.0,0.0,0.0,0.0,0.0,0.0,0.0,0.0,0.0,0.0,0.0,0.0,0.0,0.0,0.0,0.0,0.0,0.0,0.0,0.0,0.0,0.0,0.0,0.0,0.0,0.0,-1.3057,0.0,0.0,0.0,0.0,0.0,0.0,0.0,0.0,0.0,0.0,0.0,0.0,0.0,0.0,0.0,0.0,0.0,0.0,0.0,0.0,0.0,0.0,0.0,0.0,0.0,0.0,0.0,0.0,0.0,0.0,0.0,0.0,0.0,0.0,0.0,0.0,0.0,0.0,0.0,0.0,0.0,0.0,0.0,0.0,0.0,0.0,0.0,0.0,0.0,0.0,0.0,0.0,0.0,0.0,0.0,0.0,0.0,0.0,0.0,0.0,0.0,0.0,0.0,0.0,0.0,0.0,0.0,0.0,0.0,0.0,0.0,0.0,0.0,0.0,0.0,0.0,0.0,0.0,0.0,0.0,0.0,0.0,0.0,0.0,0.0,0.0,0.0,0.0,0.0,0.0,0.0,0.0,0.0,0.0,0.0,0.0,0.0,0.0,0.0,0.0,0.0,0.0,0.0,0.0,0.0,0.0,0.0,0.0,0.0,0.0,-1.3031,-1.3066,-1.3051,-1.3034,-1.3031,0.0,0.0,0.0,0.0,0.0,0.0,0.0,0.0,0.0,0.0,0.0,0.0,0.0,0.0,0.0,0.0,0.0,0.0,0.0,0.0,0.0,0.0,0.0,0.0,0.0,0.0,0.0,0.0,0.0,0.0,0.0,0.0,0.0,0.0,0.0,0.0,0.0,0.0,0.0,0.0,0.0,0.0,0.0,0.0,0.0,0.0,0.0,0.0,0.0,0.0,0.0,0.0,0.0,0.0,0.0,0.0,0.0,0.0,0.0,0.0,0.0,0.0,0.0,0.0,0.0,0.0,0.0,0.0,0.0,0.0,0.0,0.0,0.0,0.0,0.0,0.0,0.0,0.0,0.0,0.0,0.0,0.0,0.0,0.0,0.0,0.0,0.0,0.0,0.0,0.0,0.0,0.0,0.0,0.0,0.0,0.0,0.0,0.0,0.0,0.0,0.0,0.0,0.0,0.0,0.0,0.0,0.0,0.0,0.0,0.0,0.0,0.0,-1.2987,-1.2871,-1.2834,0.0,0.0,0.0,0.0,0.0,0.0,0.0,0.0,0.0,0.0,0.0,0.0,0.0,0.0,0.0,0.0,0.0,0.0,0.0,0.0,0.0,0.0,0.0,0.0,0.0,0.0,0.0,0.0,0.0,0.0,0.0,0.0,0.0,0.0,0.0,0.0,0.0,0.0,0.0,0.0,0.0,0.0,0.0,0.0,0.0,0.0,0.0,0.0,0.0,0.0,0.0,0.0,0.0,0.0,0.0,0.0,0.0,0.0,0.0,0.0,0.0,0.0,0.0,0.0,0.0,0.0,0.0,0.0,0.0,0.0,0.0,0.0,0.0,0.0,0.0,0.0,0.0,0.0,0.0,0.0,0.0,0.0,0.0,0.0,0.0,0.0,0.0,0.0,0.0,0.0,0.0,0.0,0.0,0.0,0.0,0.0,0.0,0.0,0.0,0.0,0.0,0.0,0.0,0.0,0.0,0.0,0.0,0.0,0.0,0.0,-1.32,-1.3874,-1.3247,0.0,-1.263,0.0,0.0,0.0,0.0,0.0,0.0,0.0,0.0,0.0,0.0,0.0,0.0,0.0,0.0,0.0,0.0,0.0,0.0,0.0,0.0,0.0,0.0,0.0,0.0,0.0,0.0,0.0,0.0,0.0,0.0,0.0,0.0,0.0,0.0,0.0,0.0,0.0,0.0,0.0,0.0,0.0,0.0,0.0,0.0,0.0,0.0,0.0,0.0,0.0,0.0,0.0,0.0,0.0,0.0,0.0,0.0,0.0,0.0,0.0,0.0,0.0,0.0,0.0,0.0,0.0,0.0,0.0,0.0,0.0,0.0,0.0,0.0,0.0,0.0,0.0,0.0,0.0,0.0,0.0,0.0,0.0,0.0,0.0,0.0,0.0,0.0,0.0,0.0,0.0,0.0,0.0,0.0,0.0,0.0,0.0,0.0,0.0,0.0,0.0,0.0,0.0,0.0,0.0,0.0,0.0,0.0,0.0,0.0,0.0,0.0,-1.41,-1.4412,-1.3714,-1.3263,0.0,0.0,0.0,0.0,0.0,0.0,0.0,0.0,0.0,0.0,0.0,0.0,0.0,0.0,0.0,0.0,0.0,0.0,0.0,0.0,0.0,0.0,0.0,0.0,0.0,0.0,0.0,0.0,0.0,0.0,0.0,0.0,0.0,0.0,0.0,0.0,0.0,0.0,0.0,0.0,0.0,0.0,0.0,0.0,0.0,0.0,0.0,0.0,0.0,0.0,0.0,0.0,0.0,0.0,0.0,0.0,0.0,0.0,0.0,0.0,0.0,0.0,0.0,0.0,0.0,0.0,0.0,0.0,0.0,0.0,0.0,0.0,0.0,0.0,0.0,0.0,0.0,0.0,0.0,0.0,0.0,0.0,0.0,0.0,0.0,0.0,0.0,0.0,0.0,0.0,0.0,0.0,0.0,0.0,0.0,0.0,0.0,0.0,0.0,0.0,0.0,0.0,0.0,0.0,0.0,0.0,0.0,0.0,0.0,0.0,-1.439,-1.4638,-1.4583,-1.4123,-1.3715,-1.3424,0.0,0.0,0.0,0.0,0.0,0.0,0.0,0.0,0.0,0.0,0.0,0.0,0.0,0.0,0.0,0.0,0.0,0.0,0.0,0.0,0.0,0.0,0.0,0.0,0.0,0.0,0.0,0.0,0.0,0.0,0.0,0.0,0.0,0.0,0.0,0.0,0.0,0.0,0.0,0.0,0.0,0.0,0.0,0.0,0.0,0.0,0.0,0.0,0.0,0.0,0.0,0.0,0.0,0.0,0.0,0.0,0.0,0.0,0.0,0.0,0.0,0.0,0.0,0.0,0.0,0.0,0.0,0.0,0.0,0.0,0.0,0.0,0.0,0.0,0.0,0.0,0.0,0.0,0.0,0.0,0.0,0.0,0.0,0.0,0.0,0.0,0.0,0.0,0.0,0.0,0.0,0.0,0.0,0.0,0.0,0.0,0.0,0.0,0.0,0.0,0.0,0.0,0.0,0.0,0.0,0.0,0.0,0.0,-1.4327,-1.4483,-1.4483,-1.4476,-1.4444,-1.4062,0.0,0.0,0.0,0.0,0.0,0.0,0.0,0.0,0.0,0.0,0.0,0.0,0.0,0.0,0.0,0.0,0.0,0.0,0.0,0.0,0.0,0.0,0.0,0.0,0.0,0.0,0.0,0.0,0.0,0.0,0.0,0.0,0.0,0.0,0.0,0.0,0.0,0.0,0.0,0.0,0.0,0.0,0.0,0.0,0.0,0.0,0.0,0.0,0.0,0.0,0.0,0.0,0.0,0.0,0.0,0.0,0.0,0.0,0.0,0.0,0.0,0.0,0.0,0.0,0.0,0.0,0.0,0.0,0.0,0.0,0.0,0.0,0.0,0.0,0.0,0.0,0.0,0.0,0.0,0.0,0.0,0.0,0.0,0.0,0.0,0.0,0.0,0.0,0.0,0.0,0.0,0.0,0.0,0.0,0.0,0.0,0.0,0.0,0.0,0.0,0.0,0.0,0.0,0.0,0.0,0.0,0.0,0.0,0.0,-1.4806,-1.5247,-1.5494,-1.5415,-1.5042,-1.4464,0.0,0.0,0.0,0.0,0.0,0.0,0.0,0.0,0.0,0.0,0.0,0.0,0.0,0.0,0.0,0.0,0.0,0.0,0.0,0.0,0.0,0.0,0.0,0.0,0.0,0.0,0.0,0.0,0.0,0.0,0.0,0.0,0.0,0.0,0.0,0.0,0.0,0.0,0.0,0.0,0.0,0.0,0.0,0.0,0.0,0.0,0.0,0.0,0.0,0.0,0.0,0.0,0.0,0.0,0.0,0.0,0.0,0.0,0.0,0.0,0.0,0.0,0.0,0.0,0.0,0.0,0.0,0.0,0.0,0.0,0.0,0.0,0.0,0.0,0.0,0.0,0.0,0.0,0.0,0.0,0.0,0.0,0.0,0.0,0.0,0.0,0.0,0.0,0.0,0.0,0.0,0.0,0.0,0.0,0.0,0.0,0.0,0.0,0.0,0.0,0.0,0.0,0.0,0.0,0.0,0.0,0.0,0.0,0.0,-1.5134,0.0,-1.5854,-1.5782,-1.5137,-1.4558,0.0,0.0,0.0,0.0,0.0,0.0,0.0,0.0,0.0,0.0,0.0,0.0,0.0,0.0,0.0,0.0,0.0,0.0,0.0,0.0,0.0,0.0,0.0,0.0,0.0,0.0,0.0,0.0,0.0,0.0,0.0,0.0,0.0,0.0,0.0,0.0,0.0,0.0,0.0,0.0,0.0,0.0,0.0,0.0,0.0,0.0,0.0,0.0,0.0,0.0,0.0,0.0,0.0,0.0,0.0,0.0,0.0,0.0,0.0,0.0,0.0,0.0,0.0,0.0,0.0,0.0,0.0,0.0,0.0,0.0,0.0,0.0,0.0,0.0,0.0,0.0,0.0,0.0,0.0,0.0,0.0,0.0,0.0,0.0,0.0,0.0,0.0,0.0,0.0,0.0,0.0,0.0,0.0,0.0,0.0,0.0,0.0,0.0,0.0,0.0,0.0,0.0,0.0,0.0,0.0,0.0,0.0,0.0,-1.4746,-1.5359,-1.5477,-1.5477,-1.5299,-1.4775,-1.4383,0.0,0.0,0.0,0.0,0.0,0.0,0.0,0.0,0.0,0.0,0.0,0.0,0.0,0.0,0.0,0.0,0.0,0.0,0.0,0.0,0.0,0.0,0.0,0.0,0.0,0.0,0.0,0.0,0.0,0.0,0.0,0.0,0.0,0.0,0.0,0.0,0.0,0.0,0.0,0.0,0.0,0.0,0.0,0.0,0.0,0.0,0.0,0.0,0.0,0.0,0.0,0.0,0.0,0.0,0.0,0.0,0.0,0.0,0.0,0.0,0.0,0.0,0.0,0.0,0.0,0.0,0.0,0.0,0.0,0.0,0.0,0.0,0.0,0.0,0.0,0.0,0.0,0.0,0.0,0.0,0.0,0.0,0.0,0.0,0.0,0.0,0.0,0.0,0.0,0.0,0.0,0.0,0.0,0.0,0.0,0.0,0.0,0.0,0.0,0.0,0.0,0.0,0.0,0.0,0.0,0.0,0.0,0.0,0.0,-1.5305,-1.5431,-1.5623,-1.5833,-1.5389,-1.4889,0.0,0.0,0.0,0.0,0.0,0.0,0.0,0.0,0.0,0.0,0.0,0.0,0.0,0.0,0.0,0.0,0.0,0.0,0.0,0.0,0.0,0.0,0.0,0.0,0.0,0.0,0.0,0.0,0.0,0.0,0.0,0.0,0.0,0.0,0.0,0.0,0.0,0.0,0.0,0.0,0.0,0.0,0.0,0.0,0.0,0.0,0.0,0.0,0.0,0.0,0.0,0.0,0.0,0.0,0.0,0.0,0.0,0.0,0.0,0.0,0.0,0.0,0.0,0.0,0.0,0.0,0.0,0.0,0.0,0.0,0.0,0.0,0.0,0.0,0.0,0.0,0.0,0.0,0.0,0.0,0.0,0.0,0.0,0.0,0.0,0.0,0.0,0.0,0.0,0.0,0.0,0.0,0.0,0.0,0.0,0.0,0.0,0.0,0.0,0.0,0.0,0.0,0.0,0.0,0.0,0.0,0.0,0.0,0.0,-1.5599,-1.5747,-1.5878,-1.6002,-1.5841,-1.5335,-1.44,0.0,0.0,0.0,0.0,0.0,0.0,0.0,0.0,0.0,0.0,0.0,0.0,0.0,0.0,0.0,0.0,0.0,0.0,0.0,0.0,0.0,0.0,0.0,0.0,0.0,0.0,0.0,0.0,0.0,0.0,0.0,0.0,0.0,0.0,0.0,0.0,0.0,0.0,0.0,0.0,0.0,0.0,0.0,0.0,0.0,0.0,0.0,0.0,0.0,0.0,0.0,0.0,0.0,0.0,0.0,0.0,0.0,0.0,0.0,0.0,0.0,0.0,0.0,0.0,0.0,0.0,0.0,0.0,0.0,0.0,0.0,0.0,0.0,0.0,0.0,0.0,0.0,0.0,0.0,0.0,0.0,0.0,0.0,0.0,0.0,0.0,0.0,0.0,0.0,0.0,0.0,0.0,0.0,0.0,0.0,0.0,0.0,0.0,0.0,0.0,0.0,0.0,0.0,0.0,0.0,0.0,0.0,0.0,-1.6256,-1.6367,-1.6276,-1.5967,-1.6145,-1.5685,0.0,0.0,0.0,0.0,0.0,0.0,0.0,0.0,0.0,0.0,0.0,0.0,0.0,0.0,0.0,0.0,0.0,0.0,0.0,0.0,0.0,0.0,0.0,0.0,0.0,0.0,0.0,0.0,0.0,0.0,0.0,0.0,0.0,0.0,0.0,0.0,0.0,0.0,0.0,0.0,0.0,0.0,0.0,0.0,0.0,0.0,0.0,0.0,0.0,0.0,0.0,0.0,0.0,0.0,0.0,0.0,0.0,0.0,0.0,0.0,0.0,0.0,0.0,0.0,0.0,0.0,0.0,0.0,0.0,0.0,0.0,0.0,0.0,0.0,0.0,0.0,0.0,0.0,0.0,0.0,0.0,0.0,0.0,0.0,0.0,0.0,0.0,0.0,0.0,0.0,0.0,0.0,0.0,0.0,0.0,0.0,0.0,0.0,0.0,0.0,0.0,0.0,0.0,0.0,0.0,0.0,0.0,0.0,0.0,-1.6824,-1.7653,-1.78,-1.7217,-1.6958,-1.6467,0.0,0.0,0.0,0.0,0.0,0.0,0.0,0.0,0.0,0.0,0.0,0.0,0.0,0.0,0.0,0.0,0.0,0.0,0.0,0.0,0.0,0.0,0.0,0.0,0.0,0.0,0.0,0.0,0.0,0.0,0.0,0.0,0.0,0.0,0.0,0.0,0.0,0.0,0.0,0.0,0.0,0.0,0.0,0.0,0.0,0.0,0.0,0.0,0.0,0.0,0.0,0.0,0.0,0.0,0.0,0.0,0.0,0.0,0.0,0.0,0.0,0.0,0.0,0.0,0.0,0.0,0.0,0.0,0.0,0.0,0.0,0.0,0.0,0.0,0.0,0.0,0.0,0.0,0.0,0.0,0.0,0.0,0.0,0.0,0.0,0.0,0.0,0.0,0.0,0.0,0.0,0.0,0.0,0.0,0.0,0.0,0.0,0.0,0.0,0.0,0.0,0.0,0.0,0.0,0.0,0.0,0.0,0.0,-1.5897,-1.7352,-1.8254,-1.8647,-1.8431,-1.7963,-1.7255,0.0,0.0,0.0,0.0,0.0,0.0,0.0,0.0,0.0,0.0,0.0,0.0,0.0,0.0,0.0,0.0,0.0,0.0,0.0,0.0,0.0,0.0,0.0,0.0,0.0,0.0,0.0,0.0,0.0,0.0,0.0,0.0,0.0,0.0,0.0,0.0,0.0,0.0,0.0,0.0,0.0,0.0,0.0,0.0,0.0,0.0,0.0,0.0,0.0,0.0,0.0,0.0,0.0,0.0,0.0,0.0,0.0,0.0,0.0,0.0,0.0,0.0,0.0,0.0,0.0,0.0,0.0,0.0,0.0,0.0,0.0,0.0,0.0,0.0,0.0,0.0,0.0,0.0,0.0,0.0,0.0,0.0,0.0,0.0,0.0,0.0,0.0,0.0,0.0,0.0,0.0,0.0,0.0,0.0,0.0,0.0,0.0,0.0,0.0,0.0,0.0,0.0,0.0,0.0,0.0,0.0,0.0,0.0,-1.5982,-1.7687,-1.8405,-1.9032,-1.9422,-1.8995,-1.7937,0.0,0.0,0.0,0.0,0.0,0.0,0.0,0.0,0.0,0.0,0.0,0.0,0.0,0.0,0.0,0.0,0.0,0.0,0.0,0.0,0.0,0.0,0.0,0.0,0.0,0.0,0.0,0.0,0.0,0.0,0.0,0.0,0.0,0.0,0.0,0.0,0.0,0.0,0.0,0.0,0.0,0.0,0.0,0.0,0.0,0.0,0.0,0.0,0.0,0.0,0.0,0.0,0.0,0.0,0.0,0.0,0.0,0.0,0.0,0.0,0.0,0.0,0.0,0.0,0.0,0.0,0.0,0.0,0.0,0.0,0.0,0.0,0.0,0.0,0.0,0.0,0.0,0.0,0.0,0.0,0.0,0.0,0.0,0.0,0.0,0.0,0.0,0.0,0.0,0.0,0.0,0.0,0.0,0.0,0.0,0.0,0.0,0.0,0.0,0.0,0.0,0.0,0.0,0.0,0.0,0.0,0.0,0.0,-1.646,-1.7716,-1.8507,-1.9194,-1.9907,-1.9095,-1.8098,0.0,0.0,0.0,0.0,0.0,0.0,0.0,0.0,0.0,0.0,0.0,0.0,0.0,0.0,0.0,0.0,0.0,0.0,0.0,0.0,0.0,0.0,0.0,0.0,0.0,0.0,0.0,0.0,0.0,0.0,0.0,0.0,0.0,0.0,0.0,0.0,0.0,0.0,0.0,0.0,0.0,0.0,0.0,0.0,0.0,0.0,0.0,0.0,-1.0412,0.0,0.0,0.0,0.0,0.0,0.0,0.0,0.0,0.0,0.0,0.0,0.0,0.0,0.0,0.0,0.0,0.0,0.0,0.0,0.0,0.0,0.0,0.0,0.0,0.0,0.0,0.0,0.0,0.0,0.0,0.0,0.0,0.0,0.0,0.0,0.0,0.0,0.0,0.0,0.0,0.0,0.0,0.0,0.0,0.0,0.0,0.0,0.0,0.0,0.0,0.0,0.0,0.0,0.0,0.0,0.0,0.0,0.0,0.0,-1.6491,-1.7755,-1.8305,-1.8887,-1.9564,-1.8908,-1.8039,0.0,0.0,0.0,0.0,0.0,0.0,0.0,0.0,0.0,0.0,0.0,0.0,0.0,0.0,0.0,0.0,0.0,0.0,0.0,0.0,0.0,0.0,0.0,0.0,0.0,0.0,0.0,0.0,0.0,0.0,0.0,0.0,0.0,0.0,0.0,0.0,0.0,0.0,0.0,0.0,0.0,0.0,0.0,0.0,0.0,0.0,0.0,0.0,0.0,0.0,0.0,0.0,0.0,0.0,0.0,0.0,0.0,0.0,0.0,0.0,0.0,0.0,0.0,0.0,0.0,0.0,0.0,0.0,0.0,0.0,0.0,0.0,0.0,0.0,0.0,0.0,0.0,0.0,0.0,0.0,0.0,0.0,0.0,0.0,0.0,0.0,0.0,0.0,0.0,0.0,0.0,0.0,0.0,0.0,0.0,0.0,0.0,0.0,0.0,0.0,0.0,0.0,0.0,0.0,0.0,0.0,0.0,-1.5561,-1.6362,-1.7636,-1.7949,-1.8396,-1.8967,-1.8448,-1.776,-1.6917,0.0,0.0,0.0,0.0,0.0,0.0,0.0,0.0,0.0,0.0,0.0,0.0,0.0,0.0,0.0,0.0,0.0,0.0,0.0,0.0,0.0,0.0,0.0,0.0,0.0,0.0,0.0,0.0,0.0,0.0,0.0,0.0,0.0,0.0,0.0,0.0,0.0,0.0,-1.0183,-1.0541,0.0,0.0,0.0,0.0,0.0,0.0,0.0,0.0,-0.9719,0.0,0.0,0.0,0.0,0.0,0.0,0.0,0.0,0.0,0.0,0.0,0.0,0.0,0.0,0.0,0.0,0.0,0.0,0.0,0.0,0.0,0.0,0.0,0.0,0.0,0.0,0.0,0.0,0.0,0.0,0.0,0.0,0.0,0.0,0.0,0.0,0.0,0.0,0.0,0.0,0.0,0.0,0.0,0.0,0.0,0.0,0.0,0.0,0.0,0.0,0.0,0.0,0.0,0.0,0.0,0.0,-1.4869,-1.5892,-1.6678,-1.7231,-1.7666,-1.8072,-1.8566,-1.7616,-1.6808,-1.6117,0.0,0.0,0.0,0.0,0.0,0.0,0.0,0.0,0.0,0.0,0.0,0.0,0.0,0.0,0.0,0.0,0.0,0.0,0.0,0.0,0.0,0.0,0.0,0.0,0.0,0.0,0.0,0.0,0.0,0.0,0.0,0.0,0.0,0.0,0.0,0.0,0.0,0.0,0.0,-1.0537,-1.087,0.0,0.0,0.0,0.0,0.0,0.0,0.0,0.0,-0.9665,0.0,0.0,0.0,0.0,0.0,0.0,0.0,0.0,0.0,0.0,0.0,0.0,0.0,0.0,0.0,0.0,0.0,0.0,0.0,0.0,0.0,0.0,0.0,0.0,0.0,0.0,0.0,0.0,0.0,0.0,0.0,0.0,0.0,0.0,0.0,0.0,0.0,0.0,0.0,0.0,0.0,0.0,0.0,0.0,0.0,0.0,0.0,0.0,0.0,0.0,0.0,0.0,0.0,0.0,0.0,-1.5154,-1.6031,-1.6686,-1.6982,-1.7268,-1.7615,-1.8027,-1.7373,-1.6596,0.0,0.0,0.0,0.0,0.0,0.0,0.0,0.0,0.0,0.0,0.0,0.0,0.0,0.0,0.0,0.0,0.0,0.0,0.0,0.0,0.0,0.0,0.0,0.0,0.0,0.0,0.0,0.0,0.0,0.0,0.0,0.0,0.0,0.0,0.0,0.0,0.0,0.0,0.0,0.0,-1.0284,-1.0755,-1.0716,0.0,0.0,0.0,0.0,0.0,0.0,-1.041,-1.0221,0.0,0.0,0.0,0.0,0.0,0.0,0.0,0.0,0.0,0.0,0.0,0.0,0.0,0.0,0.0,0.0,0.0,0.0,0.0,0.0,0.0,0.0,0.0,0.0,0.0,0.0,0.0,0.0,0.0,0.0,0.0,0.0,0.0,0.0,0.0,0.0,0.0,0.0,0.0,0.0,0.0,0.0,0.0,0.0,0.0,0.0,0.0,0.0,0.0,0.0,0.0,0.0,0.0,0.0,0.0,-1.5613,-1.6179,-1.6616,-1.6987,-1.7041,-1.7226,-1.7628,-1.7168,-1.6446,0.0,0.0,0.0,0.0,0.0,0.0,0.0,0.0,0.0,0.0,0.0,0.0,0.0,0.0,0.0,0.0,0.0,0.0,0.0,0.0,0.0,0.0,0.0,0.0,0.0,0.0,0.0,0.0,0.0,0.0,0.0,0.0,0.0,0.0,0.0,0.0,0.0,0.0,0.0,0.0,0.0,-1.065,-1.0618,-1.0826,0.0,0.0,0.0,0.0,-1.0766,-1.0795,0.0,0.0,0.0,0.0,0.0,0.0,0.0,0.0,0.0,0.0,0.0,0.0,0.0,0.0,0.0,0.0,0.0,0.0,0.0,0.0,0.0,0.0,0.0,0.0,0.0,0.0,0.0,0.0,0.0,0.0,0.0,0.0,0.0,0.0,0.0,0.0,0.0,0.0,0.0,0.0,0.0,0.0,0.0,0.0,0.0,0.0,0.0,0.0,0.0,0.0,0.0,0.0,0.0,0.0,0.0,0.0,-1.5902,-1.6372,-1.6838,-1.7246,-1.7225,-1.7257,-1.752,-1.6713,-1.6113,0.0,0.0,0.0,0.0,0.0,0.0,0.0,0.0,0.0,0.0,0.0,0.0,0.0,0.0,0.0,0.0,0.0,0.0,0.0,0.0,0.0,0.0,0.0,0.0,0.0,0.0,0.0,0.0,0.0,0.0,0.0,0.0,0.0,0.0,0.0,0.0,0.0,0.0,0.0,0.0,0.0,-1.0429,-1.0419,-1.06,-1.0678,0.0,0.0,-1.0609,-1.1282,-1.081,0.0,0.0,0.0,0.0,0.0,0.0,0.0,0.0,0.0,0.0,0.0,0.0,0.0,0.0,0.0,0.0,0.0,0.0,0.0,0.0,0.0,0.0,0.0,0.0,0.0,0.0,0.0,0.0,0.0,0.0,0.0,0.0,0.0,0.0,0.0,0.0,0.0,0.0,0.0,0.0,0.0,0.0,0.0,0.0,0.0,0.0,0.0,0.0,0.0,0.0,0.0,0.0,0.0,0.0,0.0,-1.5386,-1.5691,-1.6406,-1.6845,-1.7015,-1.7039,-1.7116,-1.7314,-1.6807,-1.6322,0.0,0.0,0.0,0.0,0.0,0.0,0.0,0.0,0.0,0.0,0.0,0.0,0.0,0.0,0.0,0.0,0.0,0.0,0.0,0.0,0.0,0.0,0.0,0.0,0.0,0.0,0.0,0.0,0.0,0.0,0.0,0.0,0.0,0.0,0.0,0.0,0.0,0.0,0.0,0.0,0.0,0.0,-1.1315,-1.1627,0.0,0.0,0.0,-1.179,-1.1964,0.0,0.0,0.0,0.0,0.0,0.0,0.0,0.0,0.0,0.0,0.0,0.0,0.0,0.0,0.0,0.0,0.0,0.0,0.0,0.0,0.0,0.0,0.0,0.0,0.0,0.0,0.0,0.0,0.0,0.0,0.0,0.0,0.0,0.0,0.0,0.0,0.0,0.0,0.0,0.0,0.0,0.0,0.0,0.0,0.0,0.0,0.0,0.0,0.0,0.0,0.0,0.0,0.0,0.0,0.0,0.0,0.0,-1.5638,-1.6406,-1.6834,-1.6911,-1.689,-1.6978,-1.7166,-1.6919,0.0,0.0,0.0,0.0,0.0,0.0,0.0,0.0,0.0,0.0,0.0,0.0,0.0,0.0,0.0,0.0,0.0,0.0,0.0,0.0,0.0,0.0,0.0,0.0,0.0,0.0,0.0,-1.2143,0.0,0.0,0.0,0.0,0.0,0.0,0.0,0.0,0.0,0.0,0.0,0.0,0.0,0.0,-1.1435,-1.1994,-1.2498,-1.2823,0.0,0.0,-1.2756,-1.2518,-1.2393,-1.2091,0.0,0.0,0.0,0.0,0.0,0.0,0.0,0.0,0.0,0.0,0.0,0.0,0.0,0.0,0.0,0.0,0.0,0.0,0.0,0.0,0.0,0.0,0.0,0.0,0.0,0.0,0.0,0.0,0.0,0.0,0.0,0.0,0.0,0.0,0.0,0.0,0.0,0.0,0.0,0.0,0.0,0.0,0.0,0.0,0.0,0.0,0.0,0.0,0.0,0.0,0.0,0.0,0.0,0.0,-1.5464,-1.6297,-1.6393,-1.6655,-1.7161,-1.7028,-1.6978,-1.7166,-1.6919,-1.6768,0.0,0.0,0.0,0.0,0.0,0.0,0.0,0.0,0.0,0.0,0.0,0.0,0.0,0.0,0.0,0.0,0.0,0.0,0.0,0.0,0.0,0.0,0.0,0.0,0.0,0.0,0.0,0.0,0.0,0.0,0.0,0.0,0.0,0.0,0.0,0.0,0.0,0.0,0.0,0.0,0.0,-1.2012,-1.1927,-1.2702,-1.315,0.0,-1.2776,-1.2797,-1.2696,-1.2402,-1.215,-1.1997,0.0,0.0,0.0,0.0,0.0,0.0,0.0,0.0,0.0,0.0,0.0,0.0,0.0,0.0,0.0,0.0,0.0,0.0,0.0,0.0,0.0,0.0,0.0,0.0,0.0,0.0,0.0,0.0,0.0,0.0,0.0,0.0,0.0,0.0,0.0,0.0,0.0,0.0,0.0,0.0,0.0,0.0,0.0,0.0,0.0,0.0,0.0,0.0,0.0,0.0,0.0,0.0,0.0,-1.5445,-1.6115,-1.6254,-1.6543,-1.7198,-1.7357,-1.7367,-1.7245,-1.7674,-1.7697,0.0,0.0,0.0,0.0,0.0,0.0,0.0,0.0,0.0,0.0,0.0,0.0,0.0,0.0,0.0,0.0,0.0,0.0,0.0,0.0,0.0,0.0,0.0,0.0,0.0,0.0,0.0,0.0,-1.1913,-1.1827,-1.173,0.0,0.0,0.0,0.0,0.0,0.0,0.0,0.0,0.0,0.0,-1.2121,-1.2968,-1.3239,0.0,0.0,-1.3316,-1.3134,-1.293,-1.2771,-1.2605,-1.2208,-1.1881,0.0,0.0,0.0,0.0,0.0,0.0,0.0,0.0,0.0,0.0,0.0,0.0,0.0,0.0,0.0,0.0,0.0,0.0,0.0,0.0,0.0,0.0,0.0,0.0,0.0,0.0,0.0,0.0,0.0,0.0,0.0,0.0,0.0,0.0,0.0,0.0,0.0,0.0,0.0,0.0,0.0,0.0,0.0,0.0,0.0,0.0,0.0,0.0,0.0,0.0,0.0,0.0,-1.5389,-1.6137,-1.6132,-1.6487,-1.7265,-1.7642,-1.7726,-1.7689,-1.8264,-1.8301,0.0,0.0,0.0,0.0,0.0,0.0,0.0,0.0,0.0,0.0,0.0,0.0,0.0,0.0,0.0,0.0,0.0,0.0,0.0,0.0,0.0,0.0,0.0,0.0,0.0,0.0,0.0,0.0,-1.215,-1.1995,-1.1491,0.0,0.0,0.0,0.0,0.0,0.0,0.0,0.0,0.0,0.0,-1.2583,-1.3584,-1.3745,-1.3775,-1.3909,-1.3846,-1.3667,-1.3301,-1.3238,-1.3021,-1.2378,0.0,0.0,0.0,0.0,0.0,0.0,0.0,0.0,0.0,0.0,0.0,0.0,0.0,0.0,0.0,0.0,0.0,0.0,0.0,0.0,0.0,0.0,0.0,0.0,0.0,0.0,0.0,-1.2689,0.0,0.0,-1.3098,0.0,0.0,0.0,0.0,0.0,0.0,0.0,0.0,0.0,0.0,0.0,0.0,0.0,0.0,0.0,0.0,0.0,0.0,0.0,0.0,0.0,0.0,-1.5294,-1.6344,-1.6092,-1.6418,-1.7431,-1.7729,-1.8078,-1.8606,-1.8643,-1.8577,-1.8462,0.0,0.0,0.0,0.0,0.0,0.0,0.0,0.0,0.0,0.0,0.0,0.0,0.0,0.0,0.0,0.0,0.0,0.0,0.0,0.0,0.0,0.0,0.0,0.0,0.0,0.0,-1.2127,-1.2118,-1.2016,0.0,0.0,0.0,0.0,0.0,0.0,0.0,0.0,0.0,-1.2094,-1.2923,-1.3486,-1.3482,-1.409,-1.4452,-1.4147,-1.4328,-1.4362,-1.3868,-1.3743,-1.3461,0.0,0.0,0.0,0.0,0.0,0.0,0.0,0.0,0.0,0.0,0.0,0.0,0.0,0.0,0.0,0.0,0.0,0.0,0.0,0.0,0.0,0.0,0.0,0.0,0.0,0.0,0.0,-1.3658,-1.3627,0.0,0.0,0.0,0.0,0.0,0.0,0.0,0.0,0.0,0.0,0.0,-1.8754,-1.8887,0.0,0.0,0.0,0.0,0.0,0.0,0.0,0.0,0.0,0.0,0.0,0.0,-1.5695,-1.6431,-1.6559,-1.6895,-1.7486,-1.8331,-1.8853,-1.8931,-1.9213,-1.9083,-1.8455,0.0,0.0,0.0,0.0,0.0,0.0,0.0,0.0,0.0,0.0,0.0,0.0,0.0,0.0,0.0,0.0,0.0,0.0,0.0,0.0,0.0,0.0,0.0,0.0,0.0,-1.2985,0.0,0.0,0.0,0.0,0.0,0.0,0.0,0.0,0.0,0.0,0.0,-1.2359,-1.3191,-1.3433,-1.3803,-1.4444,-1.4635,-1.4552,0.0,0.0,0.0,0.0,0.0,0.0,0.0,0.0,0.0,0.0,0.0,0.0,0.0,0.0,-1.1414,-1.0989,-1.0739,-1.0502,-1.0198,0.0,0.0,0.0,0.0,0.0,0.0,0.0,0.0,0.0,0.0,0.0,0.0,0.0,0.0,-1.4623,-1.4797,-1.4641,0.0,0.0,0.0,0.0,0.0,0.0,0.0,0.0,-1.8543,-1.932,-1.9848,-2.0103,-2.0113,-1.9836,-1.9742,-1.9223,0.0,0.0,0.0,0.0,0.0,0.0,0.0,0.0,-1.6019,-1.6671,-1.683,-1.7229,-1.8045,-1.8817,-1.943,-1.9512,-1.98,-1.9514,-1.8661,-1.8464,-1.8257,0.0,0.0,0.0,0.0,0.0,0.0,0.0,0.0,0.0,0.0,0.0,0.0,0.0,0.0,0.0,0.0,0.0,0.0,0.0,0.0,0.0,0.0,0.0,-1.3372,0.0,0.0,0.0,0.0,0.0,0.0,0.0,0.0,0.0,-1.2633,-1.2613,-1.3021,-1.4063,-1.4074,-1.421,-1.4906,0.0,0.0,0.0,0.0,0.0,0.0,0.0,-1.3789,-1.3468,-1.3454,-1.3459,-1.3249,-1.3013,-1.2899,-1.3009,0.0,0.0,-1.2014,-1.1775,-1.1639,-1.1381,-1.1122,-1.0927,-1.0731,-1.0601,-1.0594,0.0,0.0,0.0,0.0,-1.6641,0.0,0.0,0.0,-1.5429,-1.5741,0.0,-1.6284,0.0,0.0,0.0,0.0,-1.6171,-1.7195,0.0,0.0,-1.9812,-2.0886,-2.1059,-2.1318,-2.1359,-2.1131,-2.0416,-2.0048,-1.9806,-1.895,0.0,0.0,0.0,0.0,0.0,0.0,-1.6336,-1.7135,-1.7051,-1.7613,-1.8937,-1.9183,-1.9755,-2.0536,-2.03,-1.9796,-1.9106,-1.8651,-1.8413,-1.8402,-1.7988,0.0,0.0,0.0,0.0,0.0,0.0,0.0,0.0,0.0,0.0,0.0,0.0,0.0,0.0,0.0,0.0,0.0,0.0,0.0,0.0,-1.3508,0.0,0.0,0.0,0.0,0.0,0.0,0.0,0.0,0.0,-1.382,-1.3341,-1.3789,-1.43,-1.4452,0.0,0.0,0.0,0.0,-1.4882,-1.4709,-1.4787,-1.4776,-1.4625,-1.4497,-1.4252,-1.3723,0.0,0.0,-1.4028,-1.3697,-1.3572,-1.3894,-1.366,-1.3301,-1.2665,-1.2419,-1.2359,-1.2283,-1.2011,-1.1731,-1.1731,-1.1525,-1.1394,-2.1748,0.0,0.0,0.0,0.0,-1.8142,-1.7712,-1.7235,-1.7244,-1.7482,-1.7862,-1.7695,0.0,0.0,0.0,0.0,0.0,0.0,-1.9563,-1.9991,-2.1362,-2.1994,-2.2029,-2.1829,-2.1543,-2.1167,-2.0485,-2.0182,-2.009,-1.967,-1.9187,-1.8625,0.0,0.0,0.0,0.0,-1.7389,-1.7834,-1.8054,-1.8432,-1.8993,-1.9687,-2.008,-2.0259,-2.0277,-1.9937,-1.9096,-1.894,-1.8878,-1.8868,-1.8444,0.0,0.0,0.0,0.0,0.0,0.0,0.0,0.0,0.0,0.0,0.0,0.0,0.0,0.0,0.0,0.0,0.0,0.0,0.0,-1.4603,-1.4703,-1.4725,0.0,0.0,0.0,0.0,0.0,0.0,0.0,0.0,0.0,-1.4797,-1.4505,-1.4423,0.0,0.0,-1.501,-1.5282,-1.5191,-1.5047,-1.4852,-1.4871,0.0,-1.4641,-1.4629,-1.4522,-1.4045,-1.3878,-1.3712,-1.3631,-1.3558,-1.3528,-1.3623,-1.3558,-1.3433,-1.3272,-1.315,-1.3071,-1.2999,-1.2713,-1.249,-1.2346,-1.2195,-1.2051,-2.3295,-2.1768,-2.069,-2.0084,-1.9802,-1.9571,-1.915,-1.8687,-1.8687,-1.8902,-1.9279,-1.9172,-1.941,-1.9849,-1.9483,0.0,0.0,0.0,-2.0878,-2.1257,-2.2377,-2.2849,-2.2794,-2.2621,-2.2269,-2.1684,-2.1179,-2.0834,-2.067,-2.0336,-2.0066,-1.974,0.0,-1.8561,-1.8653,-1.8339,-1.8421,-1.8825,-1.8907,-1.9173,-1.9653,-2.0294,-2.047,-2.0114,-2.0288,-1.9996,-1.9106,-1.9131,-1.9131,-1.9131,-1.8806,-1.8513,0.0,0.0,0.0,0.0,0.0,0.0,0.0,0.0,0.0,0.0,0.0,-1.3571,-1.3803,0.0,0.0,0.0,-1.4444,-1.4707,-1.4985,-1.531,0.0,0.0,0.0,0.0,0.0,0.0,0.0,-1.4928,-1.5061,-1.5216,-1.5358,-1.5091,-1.5126,-1.5583,-1.559,-1.5596,-1.5753,0.0,-1.5306,-1.5095,-1.4856,-1.4721,-1.4649,-1.4715,-1.4726,-1.4652,-1.429,-1.407,-1.407,-1.407,-1.4026,-1.3901,-1.3777,-1.3689,-1.3682,-1.3513,-1.3339,-1.3346,-1.3053,-1.29,-1.2746,-1.2526,-1.2305,-2.4477,-2.3463,-2.2422,-2.1493,-2.0763,-2.0658,-2.0348,-1.9848,-1.983,-2.0112,-2.0565,-2.0555,-2.0606,-2.0646,-2.0471,0.0,-2.0732,-2.1302,-2.173,-2.202,-2.3103,-2.349,-2.3267,-2.3401,-2.3144,-2.2432,-2.2185,-2.1839,-2.1365,-2.1004,-2.0649,-2.0368,-1.9662,-1.9261,-1.9119,-1.9101,-1.9362,-1.9971,-1.9595,-1.9808,-2.0638,-2.1036,-2.0858,-2.0175,-2.0278,-2.0006,-1.9127,-1.9131,-1.9065,-1.9075,-1.9075,-1.8812,-1.8151,0.0,0.0,0.0,0.0,0.0,0.0,0.0,0.0,0.0,0.0,0.0,0.0,0.0,0.0,0.0,-1.5708,0.0,-1.53,-1.5577,0.0,0.0,0.0,-1.5802,-1.6023,-1.5846,-1.5645,-1.5513,0.0,0.0,-1.5326,-1.5574,-1.5934,-1.6375,-1.6328,-1.6302,-1.6212,-1.5903,-1.5592,-1.5182,-1.4848,-1.4569,-1.4577,-1.4723,-1.4919,-1.5072,-1.5065,-1.4823,-1.4772,-1.4779,-1.4714,-1.4362,-1.4136,-1.3923,-1.3938,-1.3527,-1.3266,-1.3419,-1.3119,-1.2893,-1.2826,-1.256,-1.2365,-2.6231,-2.5352,-2.4459,-2.3067,-2.1563,-2.1087,-2.082,-2.0917,-2.0917,-2.1248,-2.1887,-2.1896,-2.202,-2.2176,-2.1938,-2.1845,-2.1791,-2.2335,-2.2719,-2.2915,-2.3703,-2.4043,-2.3957,-2.3637,-2.3329,-2.2872,-2.2185,-2.1651,-2.1392,-2.0926,-2.0604,-2.0318,-2.0153,-2.0,-1.994,-1.9913,-2.0042,-2.0383,-2.0283,-2.0456,-2.106,-2.1124,-2.0923,-2.0309,-2.0349,-1.9996,-1.9116,-1.9131,-1.9008,-1.8875,-1.8875,-1.869,-1.8245,-1.7803,0.0,0.0,0.0,0.0,0.0,0.0,0.0,0.0,0.0,-1.4697,-1.5426,0.0,-1.5816,0.0,-1.6467,-1.6567,-1.6678,-1.6749,0.0,0.0,-1.6481,-1.6403,-1.6374,-1.6334,-1.6244,-1.609,-1.6106,-1.6061,-1.5931,-1.5877,-1.5934,-1.6276,-1.5952,-1.5703,-1.5703,-1.5353,-1.5105,-1.496,-1.4784,-1.4569,-1.4601,-1.4642,-1.4721,-1.4821,-1.4747,-1.4501,-1.4253,-1.4209,-1.4106,-1.3799,-1.3675,-1.3609,-1.3616,-1.3389,-1.32,-1.3266,-1.2973,-1.2673,-1.268,-1.2709,-1.2632,-2.6546,-2.5767,-2.496,-2.3926,-2.2736,-2.2046,-2.1958,-2.225,-2.2241,-2.2362,-2.2662,-2.2592,-2.2695,-2.2963,-2.2831,-2.2763,-2.2736,-2.2989,-2.3152,-2.3338,-2.374,-2.3937,-2.4024,-2.3677,-2.3329,-2.2969,-2.2532,-2.1906,-2.1221,-2.1361,-2.0994,-2.03,-2.0626,-2.0772,-2.066,-2.0544,-2.0706,-2.1062,-2.1059,-2.1193,-2.1514,-2.1481,-2.1318,-2.0989,-2.0689,-2.0329,-1.9696,-1.9538,-1.9318,-1.9124,-1.9046,-1.8751,-1.8212,-1.786,-1.7435,0.0,0.0,0.0,0.0,0.0,0.0,0.0,0.0,0.0,0.0,0.0,-1.6409,-1.6873,-1.7011,-1.7134,-1.7139,-1.7276,-1.7332,-1.7214,-1.7252,-1.7174,-1.6967,-1.6968,-1.6831,-1.6433,-1.6347,-1.6272,-1.6202,-1.6,-1.6007,-1.6206,-1.5908,-1.5777,-1.5724,-1.5541,-1.5194,-1.4968,-1.4721,-1.4632,-1.4847,-1.4793,-1.4828,-1.5076,-1.4961,-1.475,-1.4289,-1.4194,-1.4055,-1.3609,-1.3492,-1.3492,-1.3492,-1.3273,-1.3053,-1.3046,-1.2753,-1.2573,-1.2777,-1.2783,-1.2849,-2.6311,-2.5626,-2.4867,-2.4307,-2.3918,-2.3373,-2.3256,-2.3447,-2.3456,-2.3359,-2.3205,-2.3158,-2.3202,-2.3391,-2.3335,-2.3392,-2.3491,-2.3434,-2.3543,-2.3593,-2.3583,-2.365,-2.3841,-2.359,-2.3261,-2.29,-2.2886,-2.2344,-2.1256,-2.1831,-2.155,-2.0489,-2.1037,-2.1294,-2.129,-2.1046,-2.1186,-2.1731,-2.1774,-2.1816,-2.1934,-2.1788,-2.1716,-2.1741,-2.1138,-2.0614,-2.0309,-2.0001,-1.9696,-1.9534,-1.9304,-1.8844,-1.8203,-1.8105,-1.7735,0.0,-1.7005,0.0,0.0,0.0,0.0,0.0,0.0,0.0,0.0,-1.7185,-1.7389,-1.7787,-1.7828,-1.7691,-1.7318,-1.757,-1.7711,-1.7559,-1.7881,-1.7939,-1.7548,-1.7461,-1.7245,-1.6751,-1.6473,-1.6342,-1.6342,-1.6202,-1.6132,-1.6087,-1.6079,-1.5971,-1.5973,-1.5805,-1.5462,-1.4968,-1.4721,-1.4736,-1.5014,-1.4979,-1.5057,-1.5306,-1.5242,-1.5087,-1.4472,-1.4377,-1.4209,-1.3711,-1.3579,-1.3587,-1.3601,-1.3262,-1.3033,-1.3061,-1.277,-1.2593,-1.2824,-1.2939,-1.2983,-2.7055,-2.6246,-2.5485,-2.5023,-2.4537,-2.389,-2.3655,-2.3746,-2.3755,-2.3809,-2.4033,-2.396,-2.3834,-2.3699,-2.3777,-2.3783,-2.3785,-2.3887,-2.3971,-2.4019,-2.4019,-2.3919,-2.3764,-2.3396,-2.332,-2.3464,-2.2737,-2.2354,-2.2218,-2.1993,-2.1622,-2.1199,-2.1054,-2.1182,-2.1639,0.0,0.0,0.0,-2.1783,-2.1874,-2.2005,-2.1703,-2.15,-2.1292,-2.0848,0.0,-1.9959,-1.9867,-1.9765,-1.9561,-1.9315,0.0,0.0,0.0,0.0,0.0,0.0,0.0,0.0,0.0,0.0,0.0,-1.8682,-1.8785,-1.8751,-1.9366,-1.9622,-1.9445,-1.9455,-1.9314,-1.888,-1.8938,-1.885,-1.8447,-1.8346,-1.8129,-1.7705,-1.7451,-1.7166,-1.7097,-1.6742,-1.6542,-1.6542,-1.6272,-1.6132,-1.6132,-1.5929,-1.5822,-1.5606,-1.548,-1.5279,-1.515,-1.4784,-1.4657,-1.4736,-1.4669,-1.4713,-1.4797,-1.4739,-1.458,-1.4201,-1.4114,-1.4092,-1.3894,-1.3887,-1.3906,-1.3971,-1.3804,-1.3522,-1.3402,-1.3175,-1.2979,-1.2876,-1.303,-1.3206,-2.7292,-2.6586,-2.6064,-2.5739,0.0,-2.4922,-2.4646,-2.4637,-2.4325,-2.4242,-2.4341,-2.4251,-2.4152,-2.4035,-2.4128,-2.4128,-2.4115,-2.4288,-2.4326,-2.4283,-2.4283,-2.4256,-2.4316,-2.376,-2.3606,-2.3626,-2.3103,-2.2641,-2.2185,-2.2364,-2.2073,-2.1413,-2.1602,-2.1698,-2.1587,-2.1313,-2.1301,-2.1571,-2.1803,-2.2138,-2.2448,-2.2113,-2.1987,-2.1869,-2.1271,0.0,0.0,0.0,0.0,0.0,0.0,0.0,0.0,-1.848,0.0,-1.8267,-1.8119,-1.8119,-1.8258,-1.8544,-1.886,-1.9283,-2.0093,-2.0313,-1.9738,-2.0154,-2.0298,-2.0103,-1.997,-1.9805,-1.9495,-1.935,-1.9121,-1.863,-1.8511,-1.8276,-1.7674,-1.7451,-1.7254,-1.7038,-1.6821,-1.6603,-1.676,-1.6403,-1.6202,-1.6202,-1.607,-1.5867,-1.5655,-1.5426,-1.5133,-1.4919,-1.4776,-1.4569,-1.4521,-1.4568,-1.4568,-1.4479,-1.4617,-1.4531,-1.4275,-1.4348,-1.4414,-1.4267,-1.4223,-1.4205,-1.4087,-1.3974,-1.3731,-1.3495,-1.3351,-1.3227,-1.3173,-1.332,-1.3514,-2.7116,-2.6814,-2.6536,-2.6407,-2.6257,-2.5841,-2.5724,-2.5638,-2.4914,0.0,0.0,-2.444,-2.4251,-2.426,-2.4514,-2.4622,-2.4449,-2.4804,-2.4755,-2.4531,-2.4531,-2.4585,-2.4608,-2.4137,-2.3794,-2.3598,-2.3373,-2.2822,-2.2022,-2.2641,-2.2525,-2.1713,-2.2175,-2.2064,-2.144,-2.1564,-2.1606,-2.1419,-2.183,-2.2274,-2.2706,-2.2476,-2.2305,-2.2287,-2.1688,-2.1174,-2.0731,-2.042,-2.0023,-1.9688,-1.944,-1.9136,-1.8648,-1.8545,-1.8471,-1.8339,-1.8339,-1.8489,-1.862,-1.8909,-1.936,-2.0171,-2.0994,-2.1196,-2.0451,-2.0545,-2.0607,-2.04,-2.0265,-2.0046,-1.9869,-1.9659,-1.9336,-1.8916,-1.8867,-1.854,-1.7808,-1.7653,-1.7426,-1.7075,-1.6824,-1.679,-1.6958,-1.6758,-1.6484,-1.6493,-1.6403,-1.6156,-1.5899,-1.5476,-1.5062,-1.4784,-1.4641,-1.4497,-1.4464,-1.4417,-1.4402,-1.4268,-1.4466,-1.4589,-1.4487,-1.4596,-1.4692,-1.4589,-1.4553,-1.4503,-1.4216,-1.4099,-1.3898,-1.3666,-1.3433,-1.3434,-1.3654,-1.3639,-1.3794,-2.707,-2.6985,-2.6542,-2.6471,-2.6702,-2.6267,-2.599,-2.5839,-2.522,-2.4833,-2.4833,-2.4833,-2.4637,-2.4458,-2.5111,-2.5244,-2.4884,-2.5532,-2.5557,-2.499,-2.4971,-2.4682,-2.4137,-2.3663,-2.3391,-2.3437,-2.2832,-2.2609,-2.2772,-2.2693,-2.2584,-2.2364,-2.2184,-2.1793,-2.1275,-2.1609,-2.1679,-2.141,-2.183,-2.2097,-2.2185,-2.1957,-2.1703,-2.1358,-2.0957,-2.0537,-2.0039,-2.002,-1.9913,-1.9856,-1.9621,-1.9534,-1.939,-1.9284,-1.9136,-1.9136,-1.9303,-1.9468,-1.9684,-2.0072,-2.0641,-2.1247,-2.1395,-2.1441,-2.1339,-2.146,-2.1535,-2.1308,-2.1136,-2.0948,-2.0718,-2.0515,-2.0156,-1.9775,-1.9727,-1.936,-1.8399,-1.8142,-1.7868,-1.7278,-1.7272,-1.7413,-1.7431,-1.7324,-1.7282,-1.7252,-1.6889,-1.661,-1.613,-1.5555,-1.5158,-1.4864,-1.4569,-1.4425,-1.4369,-1.4103,-1.396,-1.3865,-1.3837,-1.3916,-1.4077,-1.4172,-1.437,-1.4779,-1.4801,-1.475,-1.4557,-1.4608,-1.4365,-1.402,-1.3861,-1.3935,-1.3988,-1.3898,-1.4008,-2.753,-2.7511,-2.733,-2.7361,-2.7545,-2.7321,-2.71,-2.68,-2.6614,-2.5945,-2.5147,-2.5137,-2.4932,-2.4773,-2.5477,-2.5538,-2.5166,-2.5884,-2.5946,-2.5459,-2.5228,-2.5025,-2.4651,-2.4162,-2.3879,-2.3761,-2.3368,-2.307,-2.3038,-2.2846,-2.2745,-2.2619,-2.2382,-2.2101,-2.1946,-2.1892,-2.178,-2.158,-2.1741,-2.1919,-2.2087,-2.1998,-2.1795,-2.1551,-2.1125,-2.0618,-2.0052,-1.9827,-1.9706,-1.9548,-1.9469,-1.9399,-1.9469,-1.9301,-1.9292,-1.9301,-1.9478,-1.9715,-1.9872,-2.0566,-2.1118,-2.1502,-2.1578,-2.1542,-2.1295,-2.1521,-2.1578,-2.1512,-2.1205,-2.0984,-2.0906,-2.0731,-2.0391,-1.9961,-1.9912,-1.9594,-1.8923,-1.8644,-1.8404,-1.8099,-1.7996,-1.7971,-1.7971,-1.7703,-1.7521,-1.7437,-1.6989,-1.6542,-1.6224,-1.566,-1.5133,-1.4935,-1.4569,-1.4353,-1.4281,-1.4,-1.379,-1.3645,-1.3726,-1.3799,-1.3982,-1.4092,-1.4355,-1.4611,-1.4684,-1.4569,-1.4325,-1.4384,-1.4221,-1.3937,-1.3904,-1.3886,-1.3906,-1.3717,-1.3574,-2.7853,-2.7853,-2.7853,-2.8077,-2.8378,-2.8246,-2.8068,-2.766,-2.7975,-2.7232,-2.5966,-2.5722,-2.5477,-2.5417,-2.592,-2.5981,-2.5691,-2.6336,-2.6387,-2.582,-2.5585,-2.5331,-2.5049,-2.4538,-2.4134,-2.3827,-2.3646,-2.3447,-2.3046,-2.3046,-2.2946,-2.2802,-2.2661,-2.2575,-2.2488,-2.2177,-2.1953,-2.167,-2.1731,-2.183,-2.2008,-2.2008,-2.1901,-2.1663,-2.1334,-2.0828,-2.0188,-1.9783,-1.9571,-1.9301,-1.9292,-1.9292,-1.9292,-1.9292,-1.9338,-1.9421,-1.9687,-2.0004,-2.0311,-2.0936,-2.1359,-2.1502,-2.1655,-2.1576,-2.1277,-2.1186,-2.1283,-2.1283,-2.1068,-2.0906,-2.0819,-2.0731,-2.043,-2.0031,-2.0059,-1.9827,-1.9374,-1.9222,-1.9101,-1.8877,-1.8619,-1.8536,-1.848,-1.8104,-1.7737,-1.7558,-1.7006,-1.649,-1.6357,-1.5719,-1.5158,-1.4935,-1.4649,-1.4353,-1.4137,-1.3928,-1.3717,-1.3499,-1.3682,-1.3836,-1.3967,-1.4201,-1.4384,-1.4457,-1.4487,-1.4345,-1.393,-1.4006,-1.3999,-1.3635,-1.3523,-1.3585,-1.3489,-1.3188,-1.3029,-2.7638,-2.7853,-2.796,-2.8174,-2.8621,-2.8678,-2.8515,-2.8448,-2.8644,-2.838,-2.7603,-2.6973,-2.6606,-2.6656,-2.6849,-2.6608,-2.6387,-2.7178,-2.71,-2.6387,-2.6019,-2.5509,-2.4684,-2.4044,-2.3538,-2.3164,-2.3155,-2.3147,-2.3046,-2.3247,-2.3356,-2.3302,-2.3153,-2.2883,-2.2582,-2.2362,-2.2044,-2.1741,-2.1731,-2.1731,-2.1731,-2.1731,-2.1539,-2.1213,-2.1158,-2.078,-2.0017,-1.9897,-1.9696,-1.9347,-1.9301,-1.9292,-1.9292,-1.9292,-1.9467,-1.9824,-2.0267,-2.0832,-2.1521,-2.1572,-2.1502,-2.1731,-2.1578,-2.1471,-2.138,-2.0783,-2.0507,-2.0727,-2.0907,-2.074,-2.0654,-2.0547,-2.043,-2.0256,-2.0391,-2.0409,-2.0102,-1.9808,-1.9512,-1.9253,-1.9136,-1.8947,-1.8907,-1.8683,-1.8364,-1.7977,-1.7286,-1.6824,-1.6732,-1.5894,-1.5262,-1.5095,-1.4721,-1.4369,-1.4137,-1.3928,-1.379,-1.3572,-1.3514,-1.3667,-1.394,-1.3982,-1.4092,-1.4238,-1.4392,-1.4207,-1.391,-1.3852,-1.3694,-1.3412,-1.33,-1.316,-1.2981,-1.2635,-1.2632,-2.8388,-2.8408,-2.8398,-2.8408,-2.8514,-2.8824,-2.8926,-2.888,-2.9403,-2.9404,-2.9085,-2.8238,-2.7442,-2.6794,-2.6918,-2.6777,-2.6465,-2.7285,-2.7344,-2.6787,-2.6343,-2.5933,-2.5459,-2.45,-2.4115,-2.3987,-2.3672,-2.3456,-2.3456,-2.3456,-2.3456,-2.3637,-2.3574,-2.3401,-2.3108,-2.2811,-2.2492,-2.2098,-2.186,-2.1731,-2.1731,-2.1731,-2.1658,-2.1475,-2.1245,-2.097,-2.0622,-2.0191,-1.9852,-1.9668,-1.9448,-1.9292,-1.9292,-1.9292,-1.9494,-1.9879,-2.0333,-2.0899,-2.1531,-2.1291,-2.1205,-2.1436,-2.1359,-2.1181,-2.0919,-2.0711,-2.052,-2.0262,-1.9948,-1.9847,-2.0004,-2.0052,-2.0139,-2.0285,-2.0586,-2.074,-2.0648,-2.0476,-2.0321,-2.0239,-1.9813,-1.9521,-1.9472,-1.9052,-1.8523,-1.8035,-1.7398,-1.7021,-1.7132,-1.6287,-1.5584,-1.5462,-1.5178,-1.471,-1.4343,-1.4137,-1.3928,-1.371,-1.3645,-1.3741,-1.3645,-1.3689,-1.3748,-1.3894,-1.3931,-1.3863,-1.3468,-1.3598,-1.3621,-1.3263,-1.3205,-1.3048,-1.2565,-1.2195,-1.2209,-2.9036,-2.8727,-2.8621,-2.8611,-2.8504,-2.892,-2.9237,-2.9353,-2.9784,-2.9994,-2.9838,-2.8991,-2.8034,-2.7331,-2.7265,-2.7021,-2.6855,-2.751,-2.7607,-2.7124,-2.6663,-2.638,-2.6153,-2.5181,-2.4681,-2.4628,-2.4171,-2.3963,-2.3872,-2.3755,-2.3755,-2.3854,-2.3854,-2.3744,-2.3441,-2.3153,-2.2656,-2.2318,-2.1933,-2.1731,-2.1731,-2.1731,-2.1731,-2.1704,-2.1447,-2.1227,-2.1099,-2.0558,-2.02,-2.0081,-1.9797,-1.9632,-1.9641,-1.9641,-1.9905,-2.0375,-2.0752,-2.1197,-2.1648,-2.1323,-2.1103,-2.1148,-2.1128,-2.0921,-2.0605,-2.0523,-2.0254,-1.981,-1.9161,-1.9077,-1.9488,-1.965,-1.987,-2.0138,-2.0586,-2.0819,-2.0964,-2.0984,-2.0886,-2.0896,-2.0285,-1.9784,-1.9627,-1.9082,-1.854,-1.8123,-1.7579,-1.7132,-1.7312,-1.6615,-1.5906,-1.5906,-1.5551,-1.503,-1.4504,-1.4281,-1.4072,-1.3863,-1.3797,-1.3725,-1.3564,-1.3499,-1.3499,-1.3667,-1.3536,-1.3441,-1.3314,-1.339,-1.34,-1.3202,-1.3036,-1.2804,-1.2324,-1.1972,-1.1825,-2.9248,-2.8737,-2.8408,-2.8611,-2.9026,-2.9132,-2.9448,-2.9889,-2.9994,-2.9994,-2.9838,-2.9021,-2.8468,-2.8408,-2.793,-2.7617,-2.7646,-2.8027,-2.8018,-2.7656,-2.7323,-2.6883,-2.6182,-2.5646,-2.5039,-2.4608,-2.4517,-2.4308,-2.4161,-2.4152,-2.4152,-2.4161,-2.4152,-2.395,-2.3574,-2.3076,-2.2749,-2.2373,-2.1961,-2.1731,-2.1731,-2.1731,-2.1731,-2.1731,-2.1713,-2.1502,-2.1172,-2.1071,-2.0869,-2.0512,-2.0438,-2.0429,-2.0448,-2.0448,-2.0791,-2.1494,-2.1655,-2.1824,-2.2001,-2.1639,-2.1313,-2.1208,-2.0906,-2.0809,-2.0546,-2.0081,-1.9688,-1.9354,-1.8892,-1.8882,-1.95,-1.9634,-1.9847,-1.9932,-2.0333,-2.0731,-2.1128,-2.0984,-2.0994,-2.0974,-2.0342,-1.9706,-1.9161,-1.886,-1.8612,-1.8292,-1.7838,-1.7458,-1.7363,-1.6773,-1.6327,-1.6152,-1.5729,-1.5004,-1.4527,-1.4425,-1.4217,-1.4008,-1.3863,-1.3717,-1.3564,-1.3492,-1.3492,-1.3492,-1.3492,-1.3419,-1.3273,-1.3148,-1.311,-1.2917,-1.2709,-1.2404,-1.2188,-1.1889,-1.1752,-2.9669,-2.893,-2.8621,-2.8727,-2.8824,-2.9026,-2.9343,-2.9774,-2.9889,-2.9994,-2.9869,-2.938,-2.9215,-2.9215,-2.8795,-2.8226,-2.7715,-2.8105,-2.8213,-2.8066,-2.7844,-2.7545,-2.7285,-2.6405,-2.5841,-2.5554,-2.508,-2.4748,-2.4378,-2.443,-2.435,-2.4251,-2.4161,-2.407,-2.3849,-2.3281,-2.2774,-2.2676,-2.2089,-2.1731,-2.1731,-2.1731,-2.1731,-2.1731,-2.1731,-2.1667,-2.152,-2.1255,-2.1034,-2.0897,-2.0659,-2.0521,-2.0549,-2.0759,-2.1047,-2.153,-2.174,-2.1731,-2.1553,-2.1293,-2.0866,-2.04,-2.0342,-2.0255,-2.0157,-1.9955,-1.9724,-1.9453,-1.931,-1.9307,-1.9303,-1.9394,-1.9493,-1.9885,-2.0333,-2.0731,-2.0906,-2.0829,-2.0731,-2.0644,-2.0098,-1.9311,-1.8931,-1.8612,-1.8442,-1.8158,-1.7785,-1.7612,-1.7547,-1.7029,-1.6571,-1.6407,-1.6068,-1.5642,-1.498,-1.4696,-1.4433,-1.4281,-1.4072,-1.3935,-1.3783,-1.3564,-1.3492,-1.3492,-1.3492,-1.3492,-1.3346,-1.3346,-1.3193,-1.3046,-1.2753,-1.2526,-1.2231,-1.2003,-1.1781,-2.9754,-2.9132,-2.8834,-2.8727,-2.8727,-2.893,-2.9237,-2.9554,-2.9774,-2.9889,-2.9984,-2.9774,-2.9659,-2.9554,-2.9237,-2.878,-2.8226,-2.8483,-2.8601,-2.8504,-2.8388,-2.8174,-2.8028,-2.7351,-2.6817,-2.6256,-2.5513,-2.4899,-2.4655,-2.4538,-2.444,-2.435,-2.4251,-2.4161,-2.4024,-2.3354,-2.2866,-2.272,-2.2062,-2.1731,-2.1731,-2.1731,-2.1731,-2.1731,-2.1731,-2.1731,-2.1731,-2.1456,-2.1319,-2.1273,-2.1053,-2.0915,-2.1029,-2.1163,-2.1397,-2.1745,-2.1861,-2.1693,-2.1258,-2.1081,-2.069,-2.0008,-1.9872,-1.9872,-1.9794,-1.9794,-1.9715,-1.9557,-1.9478,-1.9469,-1.9335,-1.9219,-1.9329,-1.9728,-2.0177,-2.0498,-2.0673,-2.0576,-2.0333,-2.002,-1.9539,-1.8993,-1.8531,-1.8371,-1.8201,-1.8031,-1.78,-1.7704,-1.7599,-1.7426,-1.7004,-1.6765,-1.6484,-1.607,-1.561,-1.5316,-1.4783,-1.447,-1.4183,-1.403,-1.3863,-1.3637,-1.3506,-1.3499,-1.3499,-1.3492,-1.3492,-1.3492,-1.3419,-1.32,-1.2973,-1.2673,-1.2452,-1.2224,-1.1929,-2.9448,-2.9132,-2.8834,-2.8727,-2.8737,-2.8727,-2.9036,-2.9554,-2.9669,-2.9774,-2.9889,-2.9669,-2.9659,-2.9554,-2.9353,-2.9122,-2.9092,-2.9112,-2.9026,-2.9026,-2.9026,-2.892,-2.8611,-2.8349,-2.7668,-2.6686,-2.5567,-2.497,-2.4932,-2.4637,-2.4538,-2.443,-2.4251,-2.4161,-2.4242,-2.3419,-2.2893,-2.2701,-2.2181,-2.1777,-2.1731,-2.1731,-2.1731,-2.1731,-2.1731,-2.1731,-2.1731,-2.1713,-2.1676,-2.1695,-2.1676,-2.1811,-2.1906,-2.1854,-2.1882,-2.2208,-2.2148,-2.1851,-2.1231,-2.1144,-2.0765,-2.0033,-1.9863,-1.9794,-1.9636,-1.9636,-1.9548,-1.939,-1.9301,-1.9292,-1.9292,-1.9256,-1.9335,-1.9557,-1.9872,-2.0029,-2.0177,-2.0264,-1.9942,-1.9231,-1.8745,-1.8505,-1.8112,-1.7959,-1.7959,-1.7942,-1.7917,-1.7891,-1.7772,-1.7632,-1.7504,-1.7122,-1.6806,-1.6547,-1.6228,-1.588,-1.5257,-1.4684,-1.4363,-1.4156,-1.3878,-1.371,-1.3645,-1.3579,-1.3638,-1.3631,-1.3492,-1.3492,-1.3419,-1.3266,-1.3046,-1.282,-1.2599,-1.2378,-1.2077,-2.9564,-2.9142,-2.9036,-2.8834,-2.8727,-2.8727,-2.894,-2.9237,-2.9448,-2.9659,-2.9774,-2.9879,-2.9889,-2.9889,-2.9774,-2.9679,-2.9679,-2.9669,-2.9564,-2.9132,-2.9132,-2.9026,-2.893,-2.892,-2.8366,-2.7439,-2.6625,-2.5898,-2.5459,-2.5039,-2.4735,-2.4538,-2.435,-2.4161,-2.4233,-2.3629,-2.3244,-2.282,-2.2419,-2.2025,-2.1768,-2.1731,-2.1731,-2.1731,-2.1731,-2.1731,-2.1731,-2.1731,-2.1731,-2.1731,-2.183,-2.2097,-2.2176,-2.2097,-2.1998,-2.2185,-2.2185,-2.1646,-2.0922,-2.0829,-2.0576,-1.9743,-1.946,-1.946,-1.939,-1.939,-1.9381,-1.9292,-1.9292,-1.9292,-1.9292,-1.9292,-1.9381,-1.9557,-1.9645,-1.9715,-1.9706,-1.9469,-1.8904,-1.8264,-1.7942,-1.7708,-1.7635,-1.7554,-1.7627,-1.7781,-1.787,-1.7951,-1.7781,-1.77,-1.7619,-1.7359,-1.7138,-1.6943,-1.6683,-1.6379,-1.5979,-1.5288,-1.4844,-1.4459,-1.4132,-1.3873,-1.3778,-1.3733,-1.3784,-1.3726,-1.3579,-1.3492,-1.3419,-1.3273,-1.3046,-1.2826,-1.2606,-1.2378,-1.215,-2.9669,-2.9132,-2.9132,-2.893,-2.8514,-2.8514,-2.8717,-2.893,-2.9237,-2.9448,-2.9659,-2.9879,-2.9994,-2.9994,-2.9994,-2.9994,-2.9994,-2.9994,-2.9774,-2.9459,-2.9448,-2.9343,-2.9197,-2.8951,-2.8649,-2.8086,-2.7302,-2.6665,-2.6163,-2.5554,-2.5102,-2.4862,-2.4548,-2.4449,-2.4412,-2.405,-2.3688,-2.3409,-2.2908,-2.2481,-2.2249,-2.2082,-2.1909,-2.183,-2.183,-2.183,-2.1731,-2.183,-2.183,-2.1741,-2.1919,-2.2087,-2.2353,-2.2097,-2.2008,-2.2097,-2.1952,-2.1471,-2.0649,-2.0689,-2.0329,-1.9485,-1.9292,-1.9292,-1.9292,-1.9292,-1.9292,-1.9292,-1.9292,-1.9292,-1.9292,-1.9292,-1.9311,-1.932,-1.925,-1.9161,-1.8913,-1.8514,-1.8023,-1.7456,-1.7131,-1.7057,-1.7066,-1.7229,-1.7383,-1.7546,-1.7789,-1.7951,-1.7781,-1.7789,-1.7627,-1.7554,-1.7423,-1.7307,-1.7103,-1.6908,-1.6659,-1.599,-1.5333,-1.4934,-1.4629,-1.4245,-1.4048,-1.4033,-1.4062,-1.3901,-1.3755,-1.3558,-1.3419,-1.3273,-1.3053,-1.2826,-1.268,-1.2452,-1.2224,-2.9669,-2.9132,-2.9132,-2.8814,-2.8398,-2.8398,-2.8514,-2.8727,-2.9036,-2.9343,-2.9564,-2.9879,-2.9994,-2.9994,-2.9994,-2.9994,-2.9994,-2.9994,-2.9994,-2.9889,-2.9889,-2.9774,-2.9513,-2.9029,-2.8806,-2.848,-2.7821,-2.7292,-2.6695,-2.6199,-2.5756,-2.5273,-2.4941,-2.4833,-2.4777,-2.4447,-2.4258,-2.4079,-2.3559,-2.3199,-2.3104,-2.2763,-2.2358,-2.218,-2.218,-2.2063,-2.1919,-2.1998,-2.2008,-2.182,-2.182,-2.2087,-2.2264,-2.1998,-2.1919,-2.2106,-2.183,-2.13,-2.0732,-2.0521,-2.0163,-1.9421,-1.9292,-1.9292,-1.9292,-1.9292,-1.9292,-1.9292,-1.9292,-1.9292,-1.9292,-1.9292,-1.9222,-1.9002,-1.8763,-1.8353,-1.7781,-1.7546,-1.7131,-1.6812,-1.6476,-1.6394,-1.6484,-1.6812,-1.7139,-1.7392,-1.7716,-1.787,-1.7861,-1.7789,-1.7789,-1.7708,-1.7708,-1.7585,-1.746,-1.721,-1.6959,-1.6652,-1.5921,-1.5335,-1.5003,-1.4595,-1.4231,-1.4231,-1.4267,-1.4106,-1.385,-1.3616,-1.3346,-1.3119,-1.2973,-1.2826,-1.2606,-1.2385,-1.2331,-2.9774,-2.9448,-2.9448,-2.9237,-2.892,-2.892,-2.8824,-2.8834,-2.9248,-2.9343,-2.9343,-2.9774,-2.9994,-2.9994,-2.9994,-2.9994,-2.9994,-2.9994,-2.9994,-2.9994,-2.9994,-2.9994,-2.9879,-2.9661,-2.9425,-2.9024,-2.846,-2.7813,-2.7112,-2.6406,-2.5766,-2.5352,-2.5039,-2.4941,-2.4903,-2.4809,-2.461,-2.4364,-2.4146,-2.3805,-2.3623,-2.349,-2.3199,-2.2834,-2.2806,-2.2645,-2.2213,-2.2087,-2.2274,-2.2539,-2.2353,-2.2353,-2.2539,-2.2176,-2.2008,-2.2008,-2.1802,-2.1383,-2.0723,-2.0521,-2.0127,-1.9421,-1.9292,-1.9292,-1.9292,-1.9292,-1.9292,-1.9292,-1.9292,-1.9292,-1.9292,-1.9292,-1.8993,-1.8362,-1.8121,-1.7789,-1.7294,-1.6886,-1.6476,-1.6072,-1.6072,-1.6162,-1.6327,-1.673,-1.7139,-1.7392,-1.7716,-1.7959,-1.7951,-1.787,-1.787,-1.7951,-1.787,-1.7878,-1.7781,-1.7538,-1.7269,-1.7147,-1.6444,-1.5663,-1.5249,-1.4885,-1.4499,-1.4223,-1.4421,-1.4355,-1.3826,-1.3455,-1.3207,-1.3117,-1.2875,-1.2748,-1.256,-1.2325,-1.2378,-2.9889,-2.9659,-2.9659,-2.9448,-2.9132,-2.9132,-2.9036,-2.893,-2.9343,-2.9448,-2.9448,-2.9774,-2.9994,-2.9994,-2.9994,-2.9994,-2.9994,-2.9994,-2.9994,-2.9994,-2.9994,-2.9994,-2.9994,-2.9994,-2.9849,-2.9528,-2.9062,-2.8257,-2.7502,-2.6741,-2.6119,-2.5537,-2.5333,-2.5333,-2.543,-2.5411,-2.5315,-2.5073,-2.4995,-2.4743,-2.4342,-2.4224,-2.3721,-2.3424,-2.3238,-2.2957,-2.241,-2.2185,-2.2274,-2.2441,-2.2353,-2.2264,-2.2451,-2.2176,-2.1919,-2.1909,-2.1731,-2.1383,-2.0714,-2.0512,-2.0136,-1.9494,-1.9292,-1.9292,-1.9292,-1.9292,-1.9292,-1.9292,-1.9292,-1.9292,-1.9292,-1.9152,-1.8754,-1.8282,-1.7789,-1.7383,-1.6894,-1.6476,-1.6147,-1.5906,-1.5824,-1.6072,-1.6162,-1.673,-1.7221,-1.7465,-1.7789,-1.7951,-1.7951,-1.8031,-1.8031,-1.8031,-1.8031,-1.7959,-1.7878,-1.7635,-1.7392,-1.7212,-1.6683,-1.5932,-1.5508,-1.5109,-1.4925,-1.467,-1.4677,-1.4538,-1.399,-1.3582,-1.3354,-1.3152,-1.2872,-1.2716,-1.2573,-1.2545,-1.2572,-2.9879,-2.9659,-2.9659,-2.9448,-2.9237,-2.9237,-2.9237,-2.9237,-2.9554,-2.9659,-2.9659,-2.9889,-2.9994,-2.9994,-2.9994,-2.9994,-2.9994,-2.9994,-2.9994,-2.9994,-2.9994,-2.9994,-2.9994,-2.9994,-2.9973,-2.9817,-2.9438,-2.8753,-2.7974,-2.7386,-2.6611,-2.6064,-2.585,-2.5849,-2.5927,-2.6004,-2.61,-2.6001,-2.5839,-2.5585,-2.5192,-2.5041,-2.4521,-2.3866,-2.3467,-2.3137,-2.2555,-2.2264,-2.2176,-2.2353,-2.1998,-2.1919,-2.2087,-2.182,-2.1731,-2.1731,-2.1704,-2.1383,-2.0695,-2.0503,-2.0173,-1.9485,-1.9301,-1.9292,-1.9301,-1.9381,-1.9381,-1.9381,-1.9381,-1.9381,-1.9301,-1.9011,-1.8692,-1.8362,-1.7797,-1.7221,-1.6648,-1.6319,-1.5997,-1.5816,-1.5816,-1.6064,-1.6394,-1.6886,-1.7286,-1.7538,-1.7861,-1.7951,-1.8031,-1.8031,-1.8031,-1.8031,-1.8031,-1.8031,-1.787,-1.7789,-1.7465,-1.7139,-1.6574,-1.5921,-1.5659,-1.5345,-1.5306,-1.5233,-1.4926,-1.467,-1.4374,-1.3959,-1.3564,-1.3258,-1.3099,-1.2952,-1.2882,-1.2893,-1.2946,-2.9994,-2.9889,-2.9879,-2.9889,-2.9784,-2.9774,-2.9669,-2.9554,-2.9774,-2.9774,-2.9659,-2.9889,-2.9994,-2.9994,-2.9994,-2.9994,-2.9994,-2.9994,-2.9994,-2.9994,-2.9994,-2.9994,-2.9994,-2.9994,-2.9994,-2.9889,-2.9669,-2.9049,-2.8428,-2.7908,-2.7284,-2.6457,-2.6369,-2.6447,-2.616,-2.6324,-2.64,-2.638,-2.6376,-2.623,-2.5912,-2.5813,-2.5411,-2.4584,-2.3828,-2.3227,-2.2723,-2.2362,-2.2097,-2.2106,-2.2097,-2.2008,-2.2008,-2.183,-2.1741,-2.1731,-2.1713,-2.1383,-2.0723,-2.0493,-2.0182,-1.9512,-1.9506,-1.9478,-1.9301,-1.9627,-1.9636,-1.9636,-1.9706,-1.9715,-1.9478,-1.9011,-1.8692,-1.8362,-1.7951,-1.7546,-1.7147,-1.6648,-1.6394,-1.6312,-1.6394,-1.6484,-1.6648,-1.7212,-1.7529,-1.7691,-1.7861,-1.7951,-1.8031,-1.8031,-1.8031,-1.8031,-1.8031,-1.8031,-1.7951,-1.7708,-1.7383,-1.7066,-1.6492,-1.6004,-1.5665,-1.5567,-1.5462,-1.5308,-1.4984,-1.4721,-1.4472,-1.4158,-1.3719,-1.3485,-1.3257,-1.3178,-1.3133,-1.3147,-1.3234,-2.9994,-2.9994,-2.9994,-2.9994,-2.9994,-2.9994,-2.9889,-2.9879,-2.9879,-2.9879,-2.9879,-2.9984,-2.9994,-2.9994,-2.9994,-2.9994,-2.9994,-2.9994,-2.9994,-2.9994,-2.9994,-2.9994,-2.9994,-2.9994,-2.9994,-2.9994,-2.9774,-2.9204,-2.8589,-2.8241,-2.7706,-2.6901,-2.6874,-2.6843,-2.6768,-2.6693,-2.6709,-2.6699,-2.6794,-2.6688,-2.6197,-2.6187,-2.5648,-2.4711,-2.3765,-2.3047,-2.2498,-2.2097,-2.1919,-2.1919,-2.1919,-2.1919,-2.1919,-2.1741,-2.1731,-2.1731,-2.1722,-2.1456,-2.0952,-2.0688,-2.0504,-2.0061,-1.9878,-1.9883,-1.9865,-2.0084,-2.0029,-1.9951,-1.9951,-1.9951,-1.9645,-1.924,-1.8922,-1.8531,-1.8193,-1.7951,-1.7627,-1.7131,-1.6722,-1.6722,-1.6812,-1.6894,-1.7139,-1.7538,-1.77,-1.7861,-1.7861,-1.8031,-1.8031,-1.8031,-1.8031,-1.8031,-1.8031,-1.7951,-1.7951,-1.7627,-1.7229,-1.6894,-1.6566,-1.6072,-1.5741,-1.5643,-1.5621,-1.5397,-1.5123,-1.49,-1.4686,-1.4268,-1.3874,-1.3641,-1.3407,-1.3326,-1.3299,-1.333,-1.3421,-3.0099,-3.0099,-2.9994,-2.9994,-2.9994,-2.9994,-2.9994,-2.9994,-2.9994,-2.9994,-2.9994,-2.9994,-2.9994,-2.9994,-2.9994,-2.9994,-2.9994,-2.9994,-2.9994,-2.9994,-2.9994,-2.9994,-2.9994,-2.9994,-2.9994,-2.9994,-2.9774,-2.9329,-2.8813,-2.8445,-2.8191,-2.761,-2.7282,-2.7241,-2.7462,-2.7211,-2.689,-2.69,-2.6976,-2.6774,-2.6197,-2.6274,-2.5589,-2.4375,-2.362,-2.2943,-2.2316,-2.1919,-2.1731,-2.1731,-2.1731,-2.1731,-2.1731,-2.1731,-2.1731,-2.1731,-2.1731,-2.1493,-2.1117,-2.0976,-2.0922,-2.095,-2.0523,-2.0358,-2.0581,-2.0745,-2.0721,-2.0546,-2.0429,-2.0108,-1.9715,-1.939,-1.9082,-1.8772,-1.8523,-1.8273,-1.7959,-1.7546,-1.7302,-1.7221,-1.7212,-1.7302,-1.7383,-1.7627,-1.7789,-1.7951,-1.7951,-1.8031,-1.8031,-1.7951,-1.7951,-1.7951,-1.787,-1.7789,-1.7708,-1.7546,-1.7139,-1.6894,-1.6566,-1.6237,-1.5899,-1.5726,-1.5718,-1.5567,-1.535,-1.5087,-1.4878,-1.4557,-1.4206,-1.3796,-1.3625,-1.3625,-1.3553,-1.351,-1.3536,-3.0297,-3.0297,-3.0088,-2.9994,-2.9994,-2.9994,-2.9994,-2.9994,-2.9994,-2.9994,-2.9994,-2.9994,-2.9994,-2.9994,-2.9994,-2.9994,-2.9994,-2.9994,-2.9994,-2.9994,-2.9994,-2.9994,-2.9994,-2.9994,-2.9994,-2.9994,-2.9889,-2.9702,-2.9431,-2.9316,-2.8834,-2.8347,-2.8036,-2.7893,-2.7662,-2.7328,-2.7123,-2.69,-2.6986,-2.6688,-2.6294,-2.6051,-2.5533,-2.4208,-2.3718,-2.3117,-2.2283,-2.1848,-2.1731,-2.1731,-2.1731,-2.1731,-2.1731,-2.1731,-2.1731,-2.1731,-2.1731,-2.1557,-2.1314,-2.1312,-2.1165,-2.1016,-2.1066,-2.1192,-2.1453,-2.1641,-2.1589,-2.1293,-2.086,-2.0362,-1.9872,-1.9548,-1.9152,-1.8772,-1.8531,-1.8273,-1.8031,-1.787,-1.7708,-1.7619,-1.7619,-1.7619,-1.7708,-1.7789,-1.787,-1.7951,-1.7951,-1.8031,-1.8031,-1.7951,-1.7951,-1.787,-1.77,-1.7627,-1.7473,-1.7383,-1.7057,-1.6976,-1.673,-1.6402,-1.6147,-1.5899,-1.5741,-1.5741,-1.5658,-1.5462,-1.5177,-1.4809,-1.4539,-1.4144,-1.4025,-1.3904,-1.3749,-1.3672,-1.386,-3.0391,-3.0391,-3.0099,-2.9994,-2.9994,-2.9994,-2.9994,-2.9994,-2.9994,-2.9994,-2.9994,-2.9994,-2.9994,-2.9994,-2.9994,-2.9994,-2.9994,-2.9994,-2.9994,-2.9994,-2.9994,-2.9994,-2.9994,-2.9994,-2.9994,-2.9994,-2.9994,-2.9879,-2.9659,-2.9544,-2.9421,-2.9103,-2.8696,-2.845,-2.8089,-2.7754,-2.7318,-2.7078,-2.6911,-2.6613,-2.61,-2.5907,-2.5054,-2.4288,-2.3853,-2.3289,-2.2399,-2.2133,-2.1933,-2.1697,-2.1731,-2.1731,-2.1731,-2.183,-2.1919,-2.1919,-2.1909,-2.1933,-2.1761,-2.1891,-2.1883,-2.1912,-2.1916,-2.2012,-2.2227,-2.2396,-2.2291,-2.181,-2.158,-2.0889,-1.9979,-1.9664,-1.925,-1.8772,-1.854,-1.8308,-1.8049,-1.8049,-1.7976,-1.7895,-1.7895,-1.7814,-1.787,-1.7951,-1.7951,-1.8031,-1.804,-1.7976,-1.7993,-1.7929,-1.7865,-1.7708,-1.7538,-1.7465,-1.7392,-1.7221,-1.7131,-1.6976,-1.6812,-1.6566,-1.6402,-1.6154,-1.6147,-1.6147,-1.5974,-1.565,-1.5304,-1.4935,-1.4713,-1.4398,-1.4132,-1.3873,-1.3893,-1.3906,-1.3997,-3.0599,-3.0495,-3.0193,-3.0088,-3.0099,-2.9994,-2.9994,-2.9994,-2.9994,-2.9994,-2.9994,-2.9994,-2.9994,-2.9994,-2.9994,-2.9994,-2.9994,-2.9994,-2.9994,-2.9994,-2.9994,-2.9994,-2.9994,-2.9994,-2.9994,-2.9994,-2.9994,-2.9889,-2.9774,-2.9764,-2.9659,-2.9485,-2.9208,-2.8962,-2.8631,-2.8297,-2.7657,-2.7166,-2.6937,-2.6627,-2.6033,-2.5499,-2.484,-2.3979,-2.3932,-2.3456,-2.2538,-2.2447,-2.2236,-2.2006,-2.1878,-2.1832,-2.1839,-2.2008,-2.2185,-2.2274,-2.2274,-2.2274,-2.2268,-2.237,-2.238,-2.2514,-2.249,-2.2685,-2.2844,-2.2892,-2.2737,-2.2221,-2.186,-2.134,-2.0368,-1.9916,-1.9533,-1.9057,-1.874,-1.8516,-1.8396,-1.8297,-1.8228,-1.8121,-1.8143,-1.8036,-1.8036,-1.7951,-1.8031,-1.8053,-1.8062,-1.8108,-1.8042,-1.7935,-1.7738,-1.7514,-1.7375,-1.731,-1.7229,-1.7139,-1.7139,-1.7057,-1.6812,-1.6558,-1.6566,-1.6484,-1.6394,-1.6312,-1.6072,-1.5824,-1.5401,-1.5061,-1.4734,-1.4398,-1.4075,-1.3906,-1.4068,-1.4068,-1.4159,-3.1116,-3.1023,-3.0599,-3.0391,-3.0297,-3.0088,-2.9994,-2.9994,-2.9994,-2.9994,-2.9994,-2.9994,-2.9994,-2.9994,-2.9994,-2.9994,-2.9994,-2.9994,-2.9994,-2.9994,-2.9994,-2.9994,-2.9994,-2.9994,-2.9994,-2.9994,-2.9994,-2.9994,-2.9889,-2.9889,-2.9889,-2.9797,-2.9508,-2.9259,-2.9104,-2.8549,-2.802,-2.7347,-2.7158,-2.6565,-2.5586,-2.5128,-2.4617,-2.4082,-2.3846,-2.3564,-2.296,-2.2765,-2.2564,-2.2272,-2.2226,-2.217,-2.2091,-2.2106,-2.2451,-2.2706,-2.2618,-2.2353,-2.2511,-2.261,-2.2746,-2.2872,-2.2862,-2.3104,-2.3246,-2.3293,-2.3076,-2.2814,-2.2197,-2.1472,-2.0752,-2.0477,-2.0012,-1.9623,-1.919,-1.9065,-1.8998,-1.8622,-1.8537,-1.8528,-1.8537,-1.8266,-1.8155,-1.8044,-1.8049,-1.807,-1.8116,-1.8103,-1.8079,-1.7879,-1.7639,-1.7334,-1.7155,-1.7066,-1.7066,-1.7057,-1.7057,-1.7057,-1.6894,-1.664,-1.6648,-1.6566,-1.6558,-1.6394,-1.6154,-1.5831,-1.5492,-1.5068,-1.4734,-1.4405,-1.4075,-1.4153,-1.4314,-1.4314,-1.4321,-3.1322,-3.1116,-3.0827,-3.0505,-3.0391,-3.0297,-3.0099,-2.9994,-2.9994,-2.9994,-2.9994,-2.9994,-2.9994,-2.9994,-2.9994,-2.9994,-2.9994,-2.9994,-2.9994,-2.9994,-2.9994,-2.9994,-2.9994,-2.9994,-2.9994,-2.9994,-2.9994,-2.9994,-2.9994,-2.9994,-2.9994,-2.9963,-2.9787,-2.9549,-2.9229,-2.8644,-2.7992,-2.721,-2.6527,-2.582,-2.5185,-2.4824,-2.4454,-2.4082,-2.4073,-2.3745,-2.3391,-2.3185,-2.2942,-2.2492,-2.2419,-2.2325,-2.2288,-2.2441,-2.2794,-2.3057,-2.3232,-2.3144,-2.3057,-2.3144,-2.3057,-2.3067,-2.3144,-2.3377,-2.3627,-2.3584,-2.3238,-2.268,-2.2259,-2.155,-2.0772,-2.0352,-1.992,-1.9598,-1.9531,-1.9419,-1.9316,-1.9085,-1.8922,-1.8922,-1.8905,-1.8675,-1.8498,-1.8465,-1.8414,-1.8297,-1.8237,-1.8091,-1.7957,-1.7657,-1.7391,-1.7096,-1.6897,-1.682,-1.6894,-1.6894,-1.6894,-1.6976,-1.7057,-1.6812,-1.673,-1.6648,-1.6648,-1.6394,-1.6072,-1.5741,-1.5492,-1.5075,-1.465,-1.4405,-1.4237,-1.4321,-1.4398,-1.4566,-1.4643,-3.1516,-3.123,-3.0931,-3.0724,-3.0505,-3.0391,-3.0193,-2.9994,-2.9994,-2.9994,-2.9994,-2.9994,-2.9994,-2.9994,-2.9994,-2.9994,-2.9994,-2.9994,-2.9994,-2.9994,-2.9994,-2.9994,-2.9994,-2.9994,-2.9994,-2.9994,-2.9994,-2.9994,-2.9994,-2.9994,-2.9994,-2.9994,-2.9953,-2.9693,-2.9343,-2.8727,-2.8066,-2.7082,-2.5869,-2.5175,-2.4932,-2.4538,-2.4341,-2.4242,-2.4125,-2.4015,-2.3758,-2.3694,-2.3308,-2.2953,-2.2992,-2.3027,-2.2943,-2.3102,-2.3467,-2.3594,-2.3797,-2.3667,-2.358,-2.3406,-2.3319,-2.3232,-2.3242,-2.3406,-2.3484,-2.357,-2.3424,-2.2648,-2.2265,-2.1635,-2.0934,-2.0363,-2.007,-1.9826,-1.9634,-1.9565,-1.9427,-1.9358,-1.9316,-1.9316,-1.9316,-1.9221,-1.9109,-1.9053,-1.8837,-1.8593,-1.8357,-1.8161,-1.7858,-1.7596,-1.7459,-1.7231,-1.7012,-1.691,-1.6894,-1.6894,-1.6894,-1.682,-1.6976,-1.6894,-1.673,-1.6648,-1.6648,-1.6312,-1.5982,-1.5658,-1.5333,-1.4992,-1.4573,-1.4328,-1.4243,-1.4321,-1.4482,-1.4657,-1.4817,-3.1823,-3.1527,-3.1034,-3.0838,-3.0734,-3.0203,-2.9994,-2.9994,-2.9994,-2.9994,-2.9994,-2.9994,-2.9994,-2.9994,-2.9994,-2.9994,-2.9994,-2.9994,-2.9994,-2.9994,-2.9994,-2.9994,-2.9994,-2.9994,-2.9994,-2.9994,-2.9994,-2.9994,-2.9994,-2.9994,-2.9994,-2.9994,-2.9994,-2.9858,-2.9403,-2.885,-2.7875,-2.6765,-2.5595,-2.5049,-2.4735,-2.4538,-2.4251,-2.426,-2.4161,-2.4134,-2.4196,-2.415,-2.4017,-2.3709,-2.3748,-2.3946,-2.3977,-2.3987,-2.4217,-2.4424,-2.4395,-2.4176,-2.3874,-2.362,-2.3406,-2.3232,-2.3144,-2.3232,-2.3222,-2.3222,-2.3008,-2.2698,-2.228,-2.178,-2.13,-2.0917,-2.0393,-2.0162,-2.0013,-1.9932,-1.9864,-1.9761,-1.9718,-1.9621,-1.9613,-1.9604,-1.947,-1.9368,-1.9132,-1.8886,-1.8475,-1.8279,-1.8024,-1.7746,-1.7674,-1.7496,-1.7201,-1.7098,-1.7057,-1.7049,-1.6976,-1.6812,-1.6812,-1.6812,-1.673,-1.6648,-1.6566,-1.6319,-1.5989,-1.5665,-1.5257,-1.4999,-1.4664,-1.4334,-1.425,-1.4405,-1.4657,-1.4915,-1.4999,-3.1732,-3.1333,-3.092,-3.0827,-3.0734,-3.0401,-3.0193,-2.9994,-2.9994,-2.9994,-2.9994,-2.9994,-2.9994,-2.9994,-2.9994,-2.9994,-2.9994,-2.9994,-2.9889,-2.9774,-2.9774,-2.9774,-2.9764,-2.9774,-2.9879,-2.9994,-2.9994,-2.9994,-2.9994,-2.9994,-2.9994,-2.9994,-2.9994,-2.9774,-2.9464,-2.8593,-2.7502,-2.6478,-2.5527,-2.4941,-2.4833,-2.4449,-2.4161,-2.4161,-2.4161,-2.4251,-2.4322,-2.4332,-2.4384,-2.4439,-2.4536,-2.4675,-2.4878,-2.4784,-2.5048,-2.5247,-2.4948,-2.4655,-2.4173,-2.3847,-2.3493,-2.3232,-2.3144,-2.3144,-2.3144,-2.3144,-2.2784,-2.2432,-2.2097,-2.166,-2.1015,-2.0637,-2.0331,-2.0283,-2.0292,-2.0292,-2.0223,-2.0069,-2.0026,-1.9966,-1.9945,-1.9988,-1.9768,-1.9645,-1.9455,-1.9175,-1.8688,-1.8323,-1.8151,-1.8021,-1.7946,-1.7851,-1.7646,-1.7351,-1.7294,-1.718,-1.7057,-1.6894,-1.673,-1.673,-1.6648,-1.6558,-1.6394,-1.6237,-1.5989,-1.5665,-1.5333,-1.4999,-1.4748,-1.4496,-1.4496,-1.4657,-1.4915,-1.5173,-1.509,-3.1721,-3.123,-3.1034,-3.0827,-3.062,-3.0401,-3.0193,-3.0005,-2.9994,-2.9994,-2.9994,-2.9994,-2.9994,-2.9994,-2.9994,-2.9994,-2.9994,-2.9994,-2.9774,-2.9669,-2.9659,-2.9554,-2.9554,-2.9554,-2.9669,-2.9879,-2.9994,-2.9994,-2.9994,-2.9994,-2.9994,-2.9994,-2.9984,-2.9828,-2.9135,-2.8055,-2.6933,-2.6084,-2.5421,-2.4932,-2.4833,-2.4538,-2.435,-2.435,-2.435,-2.4548,-2.4637,-2.4726,-2.4906,-2.5006,-2.5264,-2.5411,-2.5578,-2.5675,-2.5778,-2.5706,-2.546,-2.5094,-2.4664,-2.4007,-2.3513,-2.3135,-2.3144,-2.3144,-2.3144,-2.3057,-2.2706,-2.2176,-2.183,-2.1383,-2.0744,-2.0473,-2.0382,-2.0292,-2.0292,-2.0292,-2.0292,-2.0198,-2.0215,-2.0215,-2.0257,-2.0158,-2.0068,-1.9812,-1.9413,-1.9058,-1.8724,-1.8456,-1.8462,-1.8308,-1.8346,-1.8164,-1.806,-1.7788,-1.7557,-1.7409,-1.7253,-1.6976,-1.6812,-1.673,-1.6648,-1.6558,-1.6476,-1.6312,-1.6072,-1.565,-1.5492,-1.5409,-1.5075,-1.4741,-1.4824,-1.5075,-1.5082,-1.5257,-1.509,-3.1936,-3.123,-3.1127,-3.092,-3.0495,-3.0088,-2.9994,-2.9994,-2.9994,-2.9994,-3.0005,-3.0025,-3.0015,-3.0025,-3.0046,-3.0067,-2.9994,-2.9994,-2.9774,-2.9554,-2.9448,-2.9343,-2.9343,-2.9353,-2.9459,-2.9669,-2.9774,-2.9889,-2.9994,-2.9994,-2.9994,-2.9922,-2.9829,-2.9528,-2.887,-2.7723,-2.6753,-2.616,-2.5635,-2.5235,-2.503,-2.4726,-2.4637,-2.4637,-2.4824,-2.4932,-2.503,-2.5235,-2.545,-2.5682,-2.5962,-2.621,-2.6561,-2.6349,-2.6403,-2.6434,-2.5859,-2.5452,-2.5088,-2.3871,-2.3408,-2.331,-2.333,-2.3144,-2.3057,-2.2969,-2.2627,-2.2185,-2.1741,-2.1293,-2.0843,-2.0473,-2.0382,-2.0292,-2.0292,-2.0292,-2.0292,-2.0292,-2.0292,-2.0292,-2.0292,-2.0283,-2.0201,-1.9928,-1.9387,-1.9012,-1.8658,-1.855,-1.8688,-1.8715,-1.8733,-1.8679,-1.8496,-1.8179,-1.7921,-1.7639,-1.7368,-1.7172,-1.6976,-1.6894,-1.6812,-1.673,-1.6648,-1.6476,-1.6229,-1.5982,-1.5906,-1.5914,-1.5619,-1.5413,-1.5333,-1.5409,-1.5333,-1.5257,-1.5166,-3.1834,-3.123,-3.123,-3.1034,-3.0609,-3.0391,-3.0297,-3.0297,-3.0099,-3.0005,-3.0077,-3.0294,-3.0253,-3.016,-3.0243,-3.0253,-3.0025,-2.9994,-2.9774,-2.9343,-2.9343,-2.9036,-2.9036,-2.9046,-2.9248,-2.9554,-2.9764,-2.9879,-2.9994,-2.9994,-2.9994,-2.9922,-2.9477,-2.892,-2.844,-2.771,-2.6929,-2.6577,-2.6004,-2.5509,-2.5411,-2.5118,-2.503,-2.503,-2.5314,-2.5518,-2.5616,-2.5723,-2.6004,-2.6294,-2.6592,-2.6784,-2.7081,-2.6919,-2.6919,-2.692,-2.6506,-2.5931,-2.5259,-2.4435,-2.3957,-2.3811,-2.3516,-2.33,-2.3144,-2.3047,-2.2706,-2.2185,-2.183,-2.1293,-2.0835,-2.0473,-2.0292,-2.0292,-2.0292,-2.0292,-2.0292,-2.0292,-2.0292,-2.0292,-2.0292,-2.0201,-2.011,-2.011,-1.9662,-1.9487,-1.9212,-1.9128,-1.9271,-1.9183,-1.9146,-1.9117,-1.9031,-1.8684,-1.8406,-1.8196,-1.7846,-1.7598,-1.7409,-1.7229,-1.7147,-1.7122,-1.6984,-1.691,-1.6648,-1.6312,-1.6312,-1.626,-1.6315,-1.627,-1.599,-1.5831,-1.5756,-1.5582,-1.5484,-3.1721,-3.1322,-3.1322,-3.123,-3.0931,-3.0609,-3.0495,-3.0433,-3.0244,-3.0149,-3.0118,-3.047,-3.0429,-3.0201,-3.0253,-3.0356,-3.0005,-2.9994,-2.9774,-2.9343,-2.9237,-2.9132,-2.893,-2.894,-2.9353,-2.9554,-2.9774,-2.9889,-2.9994,-2.9994,-2.9994,-2.9777,-2.9104,-2.8783,-2.8363,-2.7754,-2.7069,-2.6719,-2.6197,-2.58,-2.5703,-2.5509,-2.5421,-2.5509,-2.5703,-2.61,-2.6197,-2.64,-2.6496,-2.6794,-2.6986,-2.7081,-2.7272,-2.7272,-2.7272,-2.7148,-2.6909,-2.6382,-2.5835,-2.5348,-2.4985,-2.4696,-2.4068,-2.3672,-2.3359,-2.3222,-2.2872,-2.2441,-2.1998,-2.1472,-2.1024,-2.0654,-2.0473,-2.0473,-2.0382,-2.0382,-2.0292,-2.0292,-2.0292,-2.0292,-2.0292,-2.0102,-2.0102,-2.011,-2.0019,-1.9936,-1.9853,-1.9762,-1.9671,-1.9627,-1.9597,-1.9601,-1.9465,-1.9177,-1.8931,-1.8761,-1.8473,-1.8062,-1.7962,-1.7895,-1.7828,-1.7829,-1.7622,-1.7327,-1.7139,-1.696,-1.6722,-1.6613,-1.6617,-1.6557,-1.6487,-1.6275,-1.6177,-1.5914,-1.5733,-3.1823,-3.1629,-3.1629,-3.1424,-3.123,-3.0931,-3.062,-3.0433,-3.0535,-3.0367,-3.0036,-3.0481,-3.0419,-3.0067,-3.0046,-3.0056,-3.0005,-2.9994,-2.9774,-2.9659,-2.9554,-2.9343,-2.9237,-2.9343,-2.9448,-2.9669,-2.9774,-2.9879,-2.9994,-2.9994,-2.9994,-2.9798,-2.9073,-2.8783,-2.8452,-2.7806,-2.7246,-2.69,-2.6496,-2.6197,-2.6004,-2.5897,-2.5907,-2.6004,-2.6294,-2.6486,-2.6688,-2.6784,-2.689,-2.6996,-2.7177,-2.7272,-2.7272,-2.7272,-2.7272,-2.7262,-2.704,-2.6788,-2.6591,-2.6172,-2.5756,-2.53,-2.4666,-2.4157,-2.372,-2.3396,-2.3135,-2.2706,-2.2264,-2.183,-2.1392,-2.1114,-2.0744,-2.0654,-2.0473,-2.0382,-2.0292,-2.0292,-2.0292,-2.0292,-2.0292,-2.0201,-2.0201,-2.0201,-2.0201,-2.011,-2.0027,-1.9936,-1.9845,-1.9845,-1.9859,-2.0013,-1.9869,-1.9698,-1.9468,-1.9307,-1.9085,-1.8743,-1.8938,-1.8886,-1.8708,-1.8494,-1.8223,-1.7997,-1.7814,-1.7481,-1.7187,-1.6924,-1.6778,-1.6711,-1.6747,-1.6562,-1.6381,-1.6079,-1.5899,-3.1913,-3.1924,-3.1721,-3.1516,-3.1424,-3.1034,-3.062,-3.0433,-3.0454,-3.0297,-3.0025,-3.0481,-3.0419,-3.0036,-3.0336,-3.0232,-3.0098,-2.9994,-2.9774,-2.9669,-2.9659,-2.9343,-2.9237,-2.9237,-2.9448,-2.9554,-2.9774,-2.9879,-2.9994,-2.9994,-2.9994,-2.9849,-2.9063,-2.8876,-2.8556,-2.7883,-2.751,-2.7112,-2.6825,-2.6592,-2.6496,-2.64,-2.64,-2.6592,-2.6784,-2.6976,-2.7071,-2.7071,-2.7177,-2.7177,-2.7272,-2.7272,-2.7272,-2.7272,-2.7272,-2.7262,-2.7071,-2.688,-2.688,-2.6577,-2.6182,-2.5757,-2.5219,-2.4634,-2.4122,-2.3687,-2.3426,-2.3057,-2.2618,-2.2274,-2.1839,-2.1472,-2.1105,-2.0925,-2.0654,-2.0473,-2.0382,-2.0292,-2.0292,-2.0292,-2.0292,-2.0292,-2.0292,-2.0292,-2.0201,-2.0292,-2.0292,-2.011,-2.0019,-2.0019,-1.9928,-2.0167,-2.0198,-1.9911,-1.9918,-1.9686,-1.9566,-1.9479,-1.9703,-1.9701,-1.9384,-1.9138,-1.8836,-1.8597,-1.8258,-1.7853,-1.7513,-1.7242,-1.6942,-1.7115,-1.7143,-1.6893,-1.6593,-1.6467,-1.6292,-3.204,-3.2062,-3.196,-3.1936,-3.1721,-3.1322,-3.092,-3.0641,-3.0496,-3.0286,-3.0056,-3.0481,-3.0439,-3.0077,-3.0232,-3.0232,-3.0015,-2.9994,-2.9889,-2.9879,-2.9774,-2.9669,-2.9459,-2.9459,-2.9564,-2.9669,-2.9774,-2.9889,-2.9994,-2.9994,-2.9994,-2.9911,-2.9073,-2.9001,-2.8763,-2.8048,-2.7489,-2.7321,-2.7215,-2.6921,-2.689,-2.689,-2.689,-2.6986,-2.7167,-2.7262,-2.7272,-2.7272,-2.7272,-2.7272,-2.7272,-2.7272,-2.7272,-2.7272,-2.7272,-2.7272,-2.7081,-2.6986,-2.6986,-2.6794,-2.6451,-2.6085,-2.5716,-2.5235,-2.4608,-2.4186,-2.3824,-2.3396,-2.3057,-2.2706,-2.2274,-2.1919,-2.1553,-2.1195,-2.0925,-2.0564,-2.0473,-2.0292,-2.0292,-2.0292,-2.0292,-2.0292,-2.0292,-2.0292,-2.0292,-2.0292,-2.0292,-2.0201,-2.0201,-2.011,-2.0019,-2.0011,-2.0175,-2.009,-2.0116,-2.0262,-2.0237,-2.0316,-2.0658,-2.0557,-2.0099,-1.9874,-1.9701,-1.9177,-1.8641,-1.8226,-1.778,-1.7351,-1.713,-1.7263,-1.735,-1.7186,-1.7146,-1.714,-1.7016,-3.2041,-3.2075,-3.224,-3.2085,-3.1858,-3.1531,-3.1165,-3.0756,-3.0526,-3.0315,-3.0036,-3.0346,-3.0212,-2.9766,-2.9849,-2.9932,-2.9891,-2.9922,-2.9994,-2.9994,-2.9889,-2.9889,-2.9889,-2.9994,-2.9889,-2.9994,-2.9994,-2.9994,-2.9994,-2.9994,-2.9984,-2.9932,-2.9073,-2.8866,-2.9021,-2.7924,-2.7458,-2.76,-2.7297,-2.6986,-2.6986,-2.6986,-2.69,-2.6996,-2.7177,-2.7272,-2.7272,-2.7272,-2.7272,-2.7272,-2.7272,-2.7272,-2.7272,-2.7272,-2.7272,-2.7177,-2.6996,-2.6986,-2.6986,-2.689,-2.672,-2.6393,-2.6175,-2.5619,-2.4999,-2.441,-2.3967,-2.3667,-2.3319,-2.3057,-2.2706,-2.2185,-2.182,-2.1374,-2.1015,-2.0654,-2.0382,-2.0292,-2.0292,-2.0292,-2.0292,-2.0292,-2.0292,-2.0292,-2.0292,-2.0292,-2.0292,-2.0292,-2.0201,-2.0201,-2.0201,-2.0019,-2.0011,-2.0175,-2.0503,-2.0685,-2.1007,-2.1185,-2.1435,-2.1295,-2.0784,-2.0665,-2.0638,-1.9865,-1.8997,-1.8465,-1.8011,-1.7598,-1.7424,-1.7363,-1.7477,-1.754,-1.7612,-1.7652,-1.7557,-3.1819,-3.1734,-3.1472,-3.1339,-3.1373,-3.0983,-3.0794,-3.0692,-2.9922,-2.958,-2.9497,-2.9549,-2.9425,-2.9125,-2.9415,-2.9539,-2.957,-2.987,-2.9973,-2.9994,-2.9994,-2.9994,-2.9994,-2.9994,-2.9994,-2.9994,-2.9994,-2.9994,-2.9984,-2.9994,-2.9953,-2.987,-2.9063,-2.8773,-2.9114,-2.7903,-2.7489,-2.7852,-2.7424,-2.7187,-2.7177,-2.7167,-2.7167,-2.7177,-2.7272,-2.7272,-2.7272,-2.7272,-2.7272,-2.7272,-2.7272,-2.7272,-2.7272,-2.7272,-2.7177,-2.6986,-2.689,-2.6794,-2.6794,-2.6774,-2.6771,-2.6588,-2.629,-2.5715,-2.5221,-2.46,-2.414,-2.3784,-2.3493,-2.3232,-2.2969,-2.2441,-2.1998,-2.1553,-2.1195,-2.0744,-2.0382,-2.0292,-2.0292,-2.0292,-2.0292,-2.0292,-2.0292,-2.0292,-2.0292,-2.0292,-2.0292,-2.0292,-2.0201,-2.0201,-2.0292,-2.011,-2.0019,-2.0201,-2.0564,-2.0916,-2.1186,-2.1544,-2.1774,-2.1623,-2.1451,-2.1225,-2.0888,-2.0177,-1.9365,-1.8915,-1.8455,-1.8029,-1.7818,-1.7736,-1.762,-1.7644,-1.7822,-1.7905,-1.7807,-3.1868,-3.1704,-3.1354,-3.1218,-3.1062,-3.0482,-3.0156,-3.0013,-2.9317,-2.8887,-2.8763,-2.8866,-2.8845,-2.868,-2.9104,-2.928,-2.9373,-2.9798,-2.9953,-2.9994,-2.9994,-2.9994,-2.9994,-2.9994,-2.9994,-2.9994,-2.9994,-2.9994,-2.9984,-2.9735,-2.9632,-2.957,-2.8897,-2.8556,-2.8804,-2.7945,-2.7489,-2.7872,-2.7469,-2.7293,-2.7272,-2.7262,-2.7262,-2.7272,-2.7272,-2.7272,-2.7272,-2.7272,-2.7272,-2.7272,-2.7272,-2.7272,-2.7272,-2.7177,-2.6986,-2.6794,-2.6602,-2.6486,-2.6496,-2.6658,-2.6672,-2.6638,-2.6527,-2.6073,-2.5686,-2.5086,-2.4311,-2.3977,-2.3446,-2.3135,-2.2882,-2.2539,-2.2008,-2.1562,-2.1186,-2.0826,-2.0464,-2.0292,-2.0292,-2.0292,-2.0292,-2.0292,-2.0292,-2.0292,-2.0292,-2.0292,-2.0292,-2.0292,-2.0201,-2.011,-2.0201,-2.0292,-2.011,-2.0292,-2.0736,-2.1006,-2.1275,-2.1633,-2.1998,-2.1887,-2.1789,-2.1516,-2.1102,-2.0507,-2.0063,-1.9639,-1.9144,-1.8574,-1.8194,-1.8018,-1.7864,-1.7772,-1.7879,-1.8011,-1.8032,-3.1984,-3.1597,-3.1529,-3.1297,-3.0767,-2.9992,-2.9567,-2.9324,-2.8755,-2.8317,-2.8048,-2.8307,-2.8431,-2.8597,-2.899,-2.9125,-2.9373,-2.9777,-2.9942,-2.9994,-2.9994,-2.9994,-2.9994,-2.9994,-2.9994,-2.9994,-2.9994,-2.9994,-2.9994,-2.9746,-2.9518,-2.9218,-2.8783,-2.8328,-2.8317,-2.7945,-2.7593,-2.7717,-2.7541,-2.7314,-2.7272,-2.7272,-2.7272,-2.7272,-2.7272,-2.7272,-2.7272,-2.7272,-2.7272,-2.7272,-2.7272,-2.7272,-2.7272,-2.7081,-2.6794,-2.6602,-2.64,-2.64,-2.64,-2.6592,-2.686,-2.6948,-2.6817,-2.6517,-2.6115,-2.5482,-2.4696,-2.4058,-2.3526,-2.3086,-2.283,-2.2489,-2.1956,-2.1482,-2.1114,-2.0817,-2.0555,-2.0292,-2.0292,-2.0292,-2.0292,-2.0292,-2.0292,-2.0292,-2.0292,-2.0292,-2.0292,-2.0292,-2.0292,-2.0292,-2.0292,-2.0292,-2.0201,-2.0464,-2.0907,-2.1096,-2.1275,-2.1811,-2.2176,-2.2176,-2.2129,-2.1854,-2.1581,-2.1204,-2.0712,-2.0165,-1.9601,-1.9005,-1.8682,-1.8458,-1.7955,-1.7733,-1.7926,-1.8025,-1.8056,-3.1461,-3.0819,-3.056,-3.0362,-2.9935,-2.9417,-2.9148,-2.9,-2.8292,-2.7986,-2.7852,-2.7583,-2.7521,-2.7572,-2.84,-2.8742,-2.8876,-2.9508,-2.9911,-2.9994,-2.9984,-2.9984,-2.9994,-2.9994,-2.9994,-2.9994,-2.9994,-2.9994,-2.9953,-2.986,-2.9818,-2.9704,-2.929,-2.897,-2.8897,-2.838,-2.7769,-2.7779,-2.7541,-2.7272,-2.7272,-2.7272,-2.7272,-2.7272,-2.7272,-2.7272,-2.7272,-2.7272,-2.7272,-2.7272,-2.7272,-2.7272,-2.7177,-2.6986,-2.6688,-2.6496,-2.6304,-2.6304,-2.6304,-2.6602,-2.689,-2.7071,-2.6909,-2.6795,-2.638,-2.5842,-2.5083,-2.4398,-2.3851,-2.33,-2.2934,-2.2329,-2.1807,-2.1374,-2.0969,-2.0663,-2.0382,-2.0292,-2.0292,-2.0292,-2.0292,-2.0292,-2.0292,-2.0292,-2.0292,-2.0292,-2.0292,-2.0292,-2.0292,-2.0292,-2.0292,-2.0292,-2.0292,-2.0555,-2.0907,-2.1096,-2.1284,-2.1909,-2.2353,-2.2441,-2.2353,-2.2176,-2.1919,-2.1434,-2.1092,-2.058,-1.9981,-1.9448,-1.9076,-1.8781,-1.799,-1.775,-1.7849,-1.7994,-1.7994]},{"header":{"parameterUnit":"m.s-1","parameterCategory":1,"la1":31.0,"la2":29.5877,"lo1":-88.7671,"lo2":-86.6584,"dy":0.0162,"dx":0.0185,"nx":115,"ny":88,"refTime":"2023-07-12T18:00:00:Z","depth":0,"parameterNumber":3,"parameterNumberName":"V-component_of_WINDS"},"data":[0.0,0.0,0.0,0.0,0.0,0.0,0.0,0.0,0.0,0.0,0.0,0.0,0.0,0.0,0.0,0.0,0.0,0.0,0.0,0.0,0.0,0.0,0.0,0.0,0.0,0.0,0.0,0.0,0.0,0.0,0.0,0.0,0.0,0.0,0.0,0.0,0.0,0.0,0.0,0.0,0.0,0.0,0.0,0.0,0.0,0.0,0.0,0.0,0.0,0.0,0.0,0.0,0.0,0.0,0.0,0.0,0.0,0.0,0.0,0.0,0.0,0.0,0.0,0.0,0.0,0.0,0.0,0.0,0.0,0.0,0.0,0.0,0.0,0.0,0.0,0.0,0.0,0.0,0.0,0.0,0.0,0.0,0.0,0.0,0.0,0.0,0.0,0.0,0.0,0.0,0.0,0.0,0.0,0.0,0.0,0.0,0.0,0.0,0.0,0.0,0.0,0.0,0.0,0.0,0.0,0.0,0.0,0.0,0.0,0.0,0.0,0.0,0.0,0.0,0.0,0.0,0.0,0.0,0.0,0.0,0.0,0.0,0.0,0.0,0.0,0.0,0.0,0.0,0.0,0.0,0.0,0.0,0.0,0.0,0.0,0.0,0.0,0.0,0.0,0.0,0.0,0.0,0.0,0.0,0.0,0.0,0.0,0.0,0.0,0.0,0.0,0.0,0.0,0.0,0.0,0.0,0.0,0.0,0.0,0.0,0.0,0.0,0.0,0.0,0.0,0.0,0.0,0.0,0.0,0.0,0.0,0.0,0.0,0.0,0.0,0.0,0.0,0.0,0.0,0.0,0.0,0.0,0.0,0.0,0.0,0.0,0.0,0.0,0.0,0.0,0.0,0.0,0.0,0.0,0.0,0.0,0.0,0.0,0.0,0.0,0.0,0.0,0.0,0.0,0.0,0.0,0.0,0.0,0.0,0.0,0.0,0.0,0.0,0.0,0.0,0.0,0.0,0.0,0.0,0.0,0.0,0.0,0.0,0.0,0.0,0.0,0.0,0.0,0.0,0.0,0.0,0.0,0.0,0.0,0.0,0.0,0.0,0.0,0.0,0.0,0.0,0.0,0.0,0.0,0.0,0.0,0.0,0.0,0.0,0.0,0.0,0.0,0.0,0.0,0.0,0.0,0.0,0.0,0.0,0.0,0.0,0.0,0.0,0.0,0.0,0.0,0.0,0.0,0.0,0.0,0.0,0.0,0.0,0.0,0.0,0.0,0.0,0.0,0.0,0.0,0.0,0.0,0.0,0.0,0.0,0.0,0.0,0.0,0.0,0.0,0.0,0.0,0.0,0.0,0.0,0.0,0.0,0.0,0.0,0.0,0.0,0.0,0.0,0.0,0.0,0.0,0.0,0.0,0.0,0.0,0.0,0.0,0.0,0.0,0.0,0.0,0.0,0.0,0.0,0.0,0.0,0.0,0.0,0.0,0.0,0.0,0.0,0.0,0.0,0.0,0.0,0.0,0.0,0.0,0.0,0.0,0.0,0.0,0.0,0.0,0.0,0.0,0.0,0.0,0.0,0.0,0.0,0.0,0.0,0.0,0.0,0.0,0.0,0.0,0.0,0.0,0.0,0.0,0.0,0.0,0.0,0.0,0.0,0.0,0.0,0.0,0.0,0.0,0.0,0.0,0.0,0.0,0.0,0.0,0.0,0.0,0.0,0.0,0.0,0.0,0.0,0.0,0.0,0.0,0.0,0.0,0.0,0.0,0.0,0.0,0.0,0.0,0.0,0.0,0.0,0.0,0.0,0.0,0.0,0.0,0.0,0.0,0.0,0.0,0.0,0.0,0.0,0.0,0.0,0.0,0.0,0.0,0.0,0.0,0.0,0.0,0.0,0.0,0.0,0.0,0.0,0.0,0.0,0.0,0.0,0.0,0.0,0.0,0.0,0.0,0.0,0.0,0.0,0.0,0.0,0.0,0.0,0.0,0.0,0.0,0.0,0.0,0.0,0.0,0.0,0.0,0.0,0.0,0.0,0.0,0.0,0.0,0.0,0.0,0.0,0.0,0.0,0.0,0.0,0.0,0.0,0.0,0.0,0.0,0.0,0.0,0.0,0.0,0.0,0.0,0.0,0.0,0.0,0.0,0.0,0.0,0.0,0.0,0.0,0.0,0.0,0.0,0.0,0.0,0.0,0.0,0.0,0.0,0.0,0.0,0.0,0.0,0.0,0.0,0.0,0.0,0.0,0.0,0.0,0.0,0.0,0.0,0.0,0.0,0.0,0.0,0.0,0.0,0.0,0.0,0.0,0.0,0.0,0.0,0.0,0.0,0.0,0.0,0.0,0.0,0.0,0.0,0.0,0.0,0.0,0.0,0.0,0.0,0.0,0.0,0.0,0.0,0.0,0.0,0.0,0.0,0.0,0.0,0.0,0.0,0.0,0.0,0.0,0.0,0.0,0.0,0.0,0.0,0.0,0.0,0.0,0.0,0.0,0.0,0.0,0.0,0.0,0.0,0.0,0.0,0.0,0.0,0.0,0.0,0.0,0.0,0.0,0.0,0.0,0.0,0.0,0.0,0.0,0.0,0.0,0.0,0.0,0.0,0.0,0.0,0.0,0.0,0.0,0.0,0.0,0.0,0.0,0.0,0.0,0.0,0.0,0.0,0.0,0.0,0.0,0.0,0.0,0.0,0.0,0.0,0.0,0.0,0.0,0.0,0.0,0.0,0.0,0.0,0.0,0.0,0.0,0.0,0.0,0.0,0.0,0.0,0.0,0.0,0.0,0.0,0.0,0.0,0.0,0.0,0.0,0.0,0.0,0.0,0.0,0.0,0.0,0.0,0.0,0.0,0.0,0.0,0.0,0.0,0.0,0.0,0.0,0.0,0.0,0.0,0.0,0.0,0.0,0.0,0.0,0.0,0.0,0.0,0.0,0.0,0.0,0.0,0.0,0.0,0.0,0.0,0.0,0.0,0.0,0.0,0.0,0.0,0.0,0.0,0.0,0.0,0.0,0.0,0.0,0.0,0.0,0.0,0.0,0.0,0.0,0.0,0.0,0.0,0.0,0.0,0.0,0.0,0.0,0.0,0.0,0.0,0.0,0.0,0.0,0.0,0.0,0.0,0.0,0.0,0.0,0.0,0.0,0.0,0.0,0.0,0.0,0.0,0.0,0.0,0.0,0.0,0.0,0.0,0.0,0.0,0.0,0.0,0.0,0.0,0.0,0.0,0.0,0.0,0.0,0.0,0.0,0.0,0.0,0.0,0.0,0.0,0.0,0.0,0.0,0.0,0.0,0.0,0.0,0.0,0.0,0.0,0.0,0.0,0.0,0.0,0.0,0.0,0.0,0.0,0.0,0.0,0.0,0.0,0.0,0.0,0.0,0.0,0.0,0.0,0.0,0.0,0.0,0.0,0.0,0.0,0.0,0.0,0.0,0.0,0.0,0.0,0.0,0.0,0.0,0.0,0.0,0.0,0.0,0.0,0.0,0.0,0.0,0.0,0.0,0.0,0.0,0.0,0.0,0.0,0.0,0.0,0.0,0.0,0.0,0.0,0.0,0.0,0.0,0.0,0.0,0.0,0.0,0.0,0.0,0.0,0.0,0.0,0.0,0.0,0.0,0.0,0.0,0.0,0.0,0.0,0.0,0.0,0.0,0.0,0.0,0.0,0.0,0.0,0.0,0.0,0.0,0.0,0.0,0.0,0.0,0.0,0.0,0.0,0.0,0.0,0.0,0.0,0.0,0.0,0.0,0.0,0.0,0.0,0.0,0.0,0.0,0.0,0.0,0.0,0.0,0.0,0.0,0.0,0.0,0.0,0.0,0.0,0.0,0.0,0.0,0.0,0.0,0.0,0.0,0.0,0.0,0.0,0.0,0.0,0.0,0.0,0.0,0.0,0.0,0.0,0.0,0.0,0.0,0.0,0.0,0.0,0.0,0.0,0.0,0.0,0.0,0.0,0.0,0.0,0.0,0.0,0.0,0.0,0.0,0.0,0.0,0.0,0.0,0.0,0.0,0.0,0.0,0.0,0.0,0.0,0.0,0.0,0.0,0.0,0.0,0.0,0.0,0.0,0.0,0.0,0.0,0.0,0.0,0.0,0.0,0.0,0.0,0.0,0.0,0.0,0.0,0.0,0.0,0.0,0.0,0.0,0.0,0.0,0.0,0.0,0.0,0.0,0.0,0.0,0.0,0.0,0.0,0.0,0.0,0.0,0.0,0.0,0.0,0.0,0.0,0.0,0.0,0.0,0.0,0.0,0.0,0.0,0.0,0.0,0.0,0.0,0.0,0.0,0.0,0.0,0.0,0.0,-0.7962,0.0,0.0,0.0,0.0,0.0,0.0,0.0,0.0,0.0,0.0,0.0,0.0,0.0,0.0,0.0,0.0,0.0,0.0,0.0,0.0,0.0,0.0,0.0,0.0,0.0,0.0,0.0,0.0,0.0,0.0,0.0,0.0,0.0,0.0,0.0,0.0,0.0,0.0,0.0,0.0,0.0,0.0,0.0,0.0,0.0,0.0,0.0,0.0,0.0,0.0,0.0,0.0,0.0,0.0,0.0,0.0,0.0,0.0,0.0,0.0,0.0,0.0,0.0,0.0,0.0,0.0,0.0,0.0,0.0,0.0,0.0,0.0,0.0,0.0,0.0,0.0,0.0,0.0,0.0,0.0,0.0,0.0,0.0,0.0,0.0,0.0,0.0,0.0,0.0,0.0,0.0,0.0,0.0,0.0,0.0,0.0,0.0,0.0,0.0,0.0,0.0,0.0,0.0,0.0,0.0,0.0,0.0,0.0,0.0,0.0,-0.8262,-0.8244,-0.8195,-0.8184,-0.8262,0.0,0.0,0.0,0.0,0.0,0.0,0.0,0.0,0.0,0.0,0.0,0.0,0.0,0.0,0.0,0.0,0.0,0.0,0.0,0.0,0.0,0.0,0.0,0.0,0.0,0.0,0.0,0.0,0.0,0.0,0.0,0.0,0.0,0.0,0.0,0.0,0.0,0.0,0.0,0.0,0.0,0.0,0.0,0.0,0.0,0.0,0.0,0.0,0.0,0.0,0.0,0.0,0.0,0.0,0.0,0.0,0.0,0.0,0.0,0.0,0.0,0.0,0.0,0.0,0.0,0.0,0.0,0.0,0.0,0.0,0.0,0.0,0.0,0.0,0.0,0.0,0.0,0.0,0.0,0.0,0.0,0.0,0.0,0.0,0.0,0.0,0.0,0.0,0.0,0.0,0.0,0.0,0.0,0.0,0.0,0.0,0.0,0.0,0.0,0.0,0.0,0.0,0.0,0.0,0.0,0.0,0.0,0.0,0.0,0.0,0.0,0.0,-0.8474,-0.8439,-0.8495,0.0,0.0,0.0,0.0,0.0,0.0,0.0,0.0,0.0,0.0,0.0,0.0,0.0,0.0,0.0,0.0,0.0,0.0,0.0,0.0,0.0,0.0,0.0,0.0,0.0,0.0,0.0,0.0,0.0,0.0,0.0,0.0,0.0,0.0,0.0,0.0,0.0,0.0,0.0,0.0,0.0,0.0,0.0,0.0,0.0,0.0,0.0,0.0,0.0,0.0,0.0,0.0,0.0,0.0,0.0,0.0,0.0,0.0,0.0,0.0,0.0,0.0,0.0,0.0,0.0,0.0,0.0,0.0,0.0,0.0,0.0,0.0,0.0,0.0,0.0,0.0,0.0,0.0,0.0,0.0,0.0,0.0,0.0,0.0,0.0,0.0,0.0,0.0,0.0,0.0,0.0,0.0,0.0,0.0,0.0,0.0,0.0,0.0,0.0,0.0,0.0,0.0,0.0,0.0,0.0,0.0,0.0,0.0,0.0,0.0,-0.8613,-0.901,-0.8685,0.0,-0.8761,0.0,0.0,0.0,0.0,0.0,0.0,0.0,0.0,0.0,0.0,0.0,0.0,0.0,0.0,0.0,0.0,0.0,0.0,0.0,0.0,0.0,0.0,0.0,0.0,0.0,0.0,0.0,0.0,0.0,0.0,0.0,0.0,0.0,0.0,0.0,0.0,0.0,0.0,0.0,0.0,0.0,0.0,0.0,0.0,0.0,0.0,0.0,0.0,0.0,0.0,0.0,0.0,0.0,0.0,0.0,0.0,0.0,0.0,0.0,0.0,0.0,0.0,0.0,0.0,0.0,0.0,0.0,0.0,0.0,0.0,0.0,0.0,0.0,0.0,0.0,0.0,0.0,0.0,0.0,0.0,0.0,0.0,0.0,0.0,0.0,0.0,0.0,0.0,0.0,0.0,0.0,0.0,0.0,0.0,0.0,0.0,0.0,0.0,0.0,0.0,0.0,0.0,0.0,0.0,0.0,0.0,0.0,0.0,0.0,0.0,-0.9691,-0.9859,-0.9425,-0.9287,0.0,0.0,0.0,0.0,0.0,0.0,0.0,0.0,0.0,0.0,0.0,0.0,0.0,0.0,0.0,0.0,0.0,0.0,0.0,0.0,0.0,0.0,0.0,0.0,0.0,0.0,0.0,0.0,0.0,0.0,0.0,0.0,0.0,0.0,0.0,0.0,0.0,0.0,0.0,0.0,0.0,0.0,0.0,0.0,0.0,0.0,0.0,0.0,0.0,0.0,0.0,0.0,0.0,0.0,0.0,0.0,0.0,0.0,0.0,0.0,0.0,0.0,0.0,0.0,0.0,0.0,0.0,0.0,0.0,0.0,0.0,0.0,0.0,0.0,0.0,0.0,0.0,0.0,0.0,0.0,0.0,0.0,0.0,0.0,0.0,0.0,0.0,0.0,0.0,0.0,0.0,0.0,0.0,0.0,0.0,0.0,0.0,0.0,0.0,0.0,0.0,0.0,0.0,0.0,0.0,0.0,0.0,0.0,0.0,0.0,-1.0264,-1.0489,-1.0498,-1.0167,-0.9965,-0.9933,0.0,0.0,0.0,0.0,0.0,0.0,0.0,0.0,0.0,0.0,0.0,0.0,0.0,0.0,0.0,0.0,0.0,0.0,0.0,0.0,0.0,0.0,0.0,0.0,0.0,0.0,0.0,0.0,0.0,0.0,0.0,0.0,0.0,0.0,0.0,0.0,0.0,0.0,0.0,0.0,0.0,0.0,0.0,0.0,0.0,0.0,0.0,0.0,0.0,0.0,0.0,0.0,0.0,0.0,0.0,0.0,0.0,0.0,0.0,0.0,0.0,0.0,0.0,0.0,0.0,0.0,0.0,0.0,0.0,0.0,0.0,0.0,0.0,0.0,0.0,0.0,0.0,0.0,0.0,0.0,0.0,0.0,0.0,0.0,0.0,0.0,0.0,0.0,0.0,0.0,0.0,0.0,0.0,0.0,0.0,0.0,0.0,0.0,0.0,0.0,0.0,0.0,0.0,0.0,0.0,0.0,0.0,0.0,-1.0747,-1.0668,-1.0668,-1.081,-1.0688,-1.0548,0.0,0.0,0.0,0.0,0.0,0.0,0.0,0.0,0.0,0.0,0.0,0.0,0.0,0.0,0.0,0.0,0.0,0.0,0.0,0.0,0.0,0.0,0.0,0.0,0.0,0.0,0.0,0.0,0.0,0.0,0.0,0.0,0.0,0.0,0.0,0.0,0.0,0.0,0.0,0.0,0.0,0.0,0.0,0.0,0.0,0.0,0.0,0.0,0.0,0.0,0.0,0.0,0.0,0.0,0.0,0.0,0.0,0.0,0.0,0.0,0.0,0.0,0.0,0.0,0.0,0.0,0.0,0.0,0.0,0.0,0.0,0.0,0.0,0.0,0.0,0.0,0.0,0.0,0.0,0.0,0.0,0.0,0.0,0.0,0.0,0.0,0.0,0.0,0.0,0.0,0.0,0.0,0.0,0.0,0.0,0.0,0.0,0.0,0.0,0.0,0.0,0.0,0.0,0.0,0.0,0.0,0.0,0.0,0.0,-1.1568,-1.1859,-1.2051,-1.2152,-1.1805,-1.1402,0.0,0.0,0.0,0.0,0.0,0.0,0.0,0.0,0.0,0.0,0.0,0.0,0.0,0.0,0.0,0.0,0.0,0.0,0.0,0.0,0.0,0.0,0.0,0.0,0.0,0.0,0.0,0.0,0.0,0.0,0.0,0.0,0.0,0.0,0.0,0.0,0.0,0.0,0.0,0.0,0.0,0.0,0.0,0.0,0.0,0.0,0.0,0.0,0.0,0.0,0.0,0.0,0.0,0.0,0.0,0.0,0.0,0.0,0.0,0.0,0.0,0.0,0.0,0.0,0.0,0.0,0.0,0.0,0.0,0.0,0.0,0.0,0.0,0.0,0.0,0.0,0.0,0.0,0.0,0.0,0.0,0.0,0.0,0.0,0.0,0.0,0.0,0.0,0.0,0.0,0.0,0.0,0.0,0.0,0.0,0.0,0.0,0.0,0.0,0.0,0.0,0.0,0.0,0.0,0.0,0.0,0.0,0.0,0.0,-1.2531,0.0,-1.3069,-1.3126,-1.2589,-1.2215,0.0,0.0,0.0,0.0,0.0,0.0,0.0,0.0,0.0,0.0,0.0,0.0,0.0,0.0,0.0,0.0,0.0,0.0,0.0,0.0,0.0,0.0,0.0,0.0,0.0,0.0,0.0,0.0,0.0,0.0,0.0,0.0,0.0,0.0,0.0,0.0,0.0,0.0,0.0,0.0,0.0,0.0,0.0,0.0,0.0,0.0,0.0,0.0,0.0,0.0,0.0,0.0,0.0,0.0,0.0,0.0,0.0,0.0,0.0,0.0,0.0,0.0,0.0,0.0,0.0,0.0,0.0,0.0,0.0,0.0,0.0,0.0,0.0,0.0,0.0,0.0,0.0,0.0,0.0,0.0,0.0,0.0,0.0,0.0,0.0,0.0,0.0,0.0,0.0,0.0,0.0,0.0,0.0,0.0,0.0,0.0,0.0,0.0,0.0,0.0,0.0,0.0,0.0,0.0,0.0,0.0,0.0,0.0,-1.3103,-1.3589,-1.3573,-1.3633,-1.3715,-1.3188,-1.2894,0.0,0.0,0.0,0.0,0.0,0.0,0.0,0.0,0.0,0.0,0.0,0.0,0.0,0.0,0.0,0.0,0.0,0.0,0.0,0.0,0.0,0.0,0.0,0.0,0.0,0.0,0.0,0.0,0.0,0.0,0.0,0.0,0.0,0.0,0.0,0.0,0.0,0.0,0.0,0.0,0.0,0.0,0.0,0.0,0.0,0.0,0.0,0.0,0.0,0.0,0.0,0.0,0.0,0.0,0.0,0.0,0.0,0.0,0.0,0.0,0.0,0.0,0.0,0.0,0.0,0.0,0.0,0.0,0.0,0.0,0.0,0.0,0.0,0.0,0.0,0.0,0.0,0.0,0.0,0.0,0.0,0.0,0.0,0.0,0.0,0.0,0.0,0.0,0.0,0.0,0.0,0.0,0.0,0.0,0.0,0.0,0.0,0.0,0.0,0.0,0.0,0.0,0.0,0.0,0.0,0.0,0.0,0.0,0.0,-1.491,-1.4836,-1.5087,-1.5627,-1.4992,-1.4441,0.0,0.0,0.0,0.0,0.0,0.0,0.0,0.0,0.0,0.0,0.0,0.0,0.0,0.0,0.0,0.0,0.0,0.0,0.0,0.0,0.0,0.0,0.0,0.0,0.0,0.0,0.0,0.0,0.0,0.0,0.0,0.0,0.0,0.0,0.0,0.0,0.0,0.0,0.0,0.0,0.0,0.0,0.0,0.0,0.0,0.0,0.0,0.0,0.0,0.0,0.0,0.0,0.0,0.0,0.0,0.0,0.0,0.0,0.0,0.0,0.0,0.0,0.0,0.0,0.0,0.0,0.0,0.0,0.0,0.0,0.0,0.0,0.0,0.0,0.0,0.0,0.0,0.0,0.0,0.0,0.0,0.0,0.0,0.0,0.0,0.0,0.0,0.0,0.0,0.0,0.0,0.0,0.0,0.0,0.0,0.0,0.0,0.0,0.0,0.0,0.0,0.0,0.0,0.0,0.0,0.0,0.0,0.0,0.0,-1.7098,-1.6667,-1.6732,-1.7311,-1.6766,-1.6089,-1.5307,0.0,0.0,0.0,0.0,0.0,0.0,0.0,0.0,0.0,0.0,0.0,0.0,0.0,0.0,0.0,0.0,0.0,0.0,0.0,0.0,0.0,0.0,0.0,0.0,0.0,0.0,0.0,0.0,0.0,0.0,0.0,0.0,0.0,0.0,0.0,0.0,0.0,0.0,0.0,0.0,0.0,0.0,0.0,0.0,0.0,0.0,0.0,0.0,0.0,0.0,0.0,0.0,0.0,0.0,0.0,0.0,0.0,0.0,0.0,0.0,0.0,0.0,0.0,0.0,0.0,0.0,0.0,0.0,0.0,0.0,0.0,0.0,0.0,0.0,0.0,0.0,0.0,0.0,0.0,0.0,0.0,0.0,0.0,0.0,0.0,0.0,0.0,0.0,0.0,0.0,0.0,0.0,0.0,0.0,0.0,0.0,0.0,0.0,0.0,0.0,0.0,0.0,0.0,0.0,0.0,0.0,0.0,0.0,-1.9985,-1.9078,-1.8641,-1.8778,-1.8573,-1.7886,0.0,0.0,0.0,0.0,0.0,0.0,0.0,0.0,0.0,0.0,0.0,0.0,0.0,0.0,0.0,0.0,0.0,0.0,0.0,0.0,0.0,0.0,0.0,0.0,0.0,0.0,0.0,0.0,0.0,0.0,0.0,0.0,0.0,0.0,0.0,0.0,0.0,0.0,0.0,0.0,0.0,0.0,0.0,0.0,0.0,0.0,0.0,0.0,0.0,0.0,0.0,0.0,0.0,0.0,0.0,0.0,0.0,0.0,0.0,0.0,0.0,0.0,0.0,0.0,0.0,0.0,0.0,0.0,0.0,0.0,0.0,0.0,0.0,0.0,0.0,0.0,0.0,0.0,0.0,0.0,0.0,0.0,0.0,0.0,0.0,0.0,0.0,0.0,0.0,0.0,0.0,0.0,0.0,0.0,0.0,0.0,0.0,0.0,0.0,0.0,0.0,0.0,0.0,0.0,0.0,0.0,0.0,0.0,0.0,-2.1728,-2.2494,-2.2278,-2.1167,-2.0572,-1.9888,0.0,0.0,0.0,0.0,0.0,0.0,0.0,0.0,0.0,0.0,0.0,0.0,0.0,0.0,0.0,0.0,0.0,0.0,0.0,0.0,0.0,0.0,0.0,0.0,0.0,0.0,0.0,0.0,0.0,0.0,0.0,0.0,0.0,0.0,0.0,0.0,0.0,0.0,0.0,0.0,0.0,0.0,0.0,0.0,0.0,0.0,0.0,0.0,0.0,0.0,0.0,0.0,0.0,0.0,0.0,0.0,0.0,0.0,0.0,0.0,0.0,0.0,0.0,0.0,0.0,0.0,0.0,0.0,0.0,0.0,0.0,0.0,0.0,0.0,0.0,0.0,0.0,0.0,0.0,0.0,0.0,0.0,0.0,0.0,0.0,0.0,0.0,0.0,0.0,0.0,0.0,0.0,0.0,0.0,0.0,0.0,0.0,0.0,0.0,0.0,0.0,0.0,0.0,0.0,0.0,0.0,0.0,0.0,-2.0347,-2.2923,-2.4444,-2.4858,-2.4238,-2.3095,-2.1888,0.0,0.0,0.0,0.0,0.0,0.0,0.0,0.0,0.0,0.0,0.0,0.0,0.0,0.0,0.0,0.0,0.0,0.0,0.0,0.0,0.0,0.0,0.0,0.0,0.0,0.0,0.0,0.0,0.0,0.0,0.0,0.0,0.0,0.0,0.0,0.0,0.0,0.0,0.0,0.0,0.0,0.0,0.0,0.0,0.0,0.0,0.0,0.0,0.0,0.0,0.0,0.0,0.0,0.0,0.0,0.0,0.0,0.0,0.0,0.0,0.0,0.0,0.0,0.0,0.0,0.0,0.0,0.0,0.0,0.0,0.0,0.0,0.0,0.0,0.0,0.0,0.0,0.0,0.0,0.0,0.0,0.0,0.0,0.0,0.0,0.0,0.0,0.0,0.0,0.0,0.0,0.0,0.0,0.0,0.0,0.0,0.0,0.0,0.0,0.0,0.0,0.0,0.0,0.0,0.0,0.0,0.0,0.0,-2.0922,-2.3795,-2.5448,-2.6681,-2.7482,-2.567,-2.3803,0.0,0.0,0.0,0.0,0.0,0.0,0.0,0.0,0.0,0.0,0.0,0.0,0.0,0.0,0.0,0.0,0.0,0.0,0.0,0.0,0.0,0.0,0.0,0.0,0.0,0.0,0.0,0.0,0.0,0.0,0.0,0.0,0.0,0.0,0.0,0.0,0.0,0.0,0.0,0.0,0.0,0.0,0.0,0.0,0.0,0.0,0.0,0.0,0.0,0.0,0.0,0.0,0.0,0.0,0.0,0.0,0.0,0.0,0.0,0.0,0.0,0.0,0.0,0.0,0.0,0.0,0.0,0.0,0.0,0.0,0.0,0.0,0.0,0.0,0.0,0.0,0.0,0.0,0.0,0.0,0.0,0.0,0.0,0.0,0.0,0.0,0.0,0.0,0.0,0.0,0.0,0.0,0.0,0.0,0.0,0.0,0.0,0.0,0.0,0.0,0.0,0.0,0.0,0.0,0.0,0.0,0.0,0.0,-2.2346,-2.4837,-2.643,-2.7927,-2.9237,-2.7019,-2.514,0.0,0.0,0.0,0.0,0.0,0.0,0.0,0.0,0.0,0.0,0.0,0.0,0.0,0.0,0.0,0.0,0.0,0.0,0.0,0.0,0.0,0.0,0.0,0.0,0.0,0.0,0.0,0.0,0.0,0.0,0.0,0.0,0.0,0.0,0.0,0.0,0.0,0.0,0.0,0.0,0.0,0.0,0.0,0.0,0.0,0.0,0.0,0.0,-1.3944,0.0,0.0,0.0,0.0,0.0,0.0,0.0,0.0,0.0,0.0,0.0,0.0,0.0,0.0,0.0,0.0,0.0,0.0,0.0,0.0,0.0,0.0,0.0,0.0,0.0,0.0,0.0,0.0,0.0,0.0,0.0,0.0,0.0,0.0,0.0,0.0,0.0,0.0,0.0,0.0,0.0,0.0,0.0,0.0,0.0,0.0,0.0,0.0,0.0,0.0,0.0,0.0,0.0,0.0,0.0,0.0,0.0,0.0,0.0,-2.312,-2.5834,-2.7138,-2.8534,-2.9982,-2.8567,-2.687,0.0,0.0,0.0,0.0,0.0,0.0,0.0,0.0,0.0,0.0,0.0,0.0,0.0,0.0,0.0,0.0,0.0,0.0,0.0,0.0,0.0,0.0,0.0,0.0,0.0,0.0,0.0,0.0,0.0,0.0,0.0,0.0,0.0,0.0,0.0,0.0,0.0,0.0,0.0,0.0,0.0,0.0,0.0,0.0,0.0,0.0,0.0,0.0,0.0,0.0,0.0,0.0,0.0,0.0,0.0,0.0,0.0,0.0,0.0,0.0,0.0,0.0,0.0,0.0,0.0,0.0,0.0,0.0,0.0,0.0,0.0,0.0,0.0,0.0,0.0,0.0,0.0,0.0,0.0,0.0,0.0,0.0,0.0,0.0,0.0,0.0,0.0,0.0,0.0,0.0,0.0,0.0,0.0,0.0,0.0,0.0,0.0,0.0,0.0,0.0,0.0,0.0,0.0,0.0,0.0,0.0,0.0,-2.1816,-2.3806,-2.6645,-2.7771,-2.9015,-3.0502,-2.9812,-2.8285,-2.5926,0.0,0.0,0.0,0.0,0.0,0.0,0.0,0.0,0.0,0.0,0.0,0.0,0.0,0.0,0.0,0.0,0.0,0.0,0.0,0.0,0.0,0.0,0.0,0.0,0.0,0.0,0.0,0.0,0.0,0.0,0.0,0.0,0.0,0.0,0.0,0.0,0.0,0.0,-1.3211,-1.4984,0.0,0.0,0.0,0.0,0.0,0.0,0.0,0.0,-1.5553,0.0,0.0,0.0,0.0,0.0,0.0,0.0,0.0,0.0,0.0,0.0,0.0,0.0,0.0,0.0,0.0,0.0,0.0,0.0,0.0,0.0,0.0,0.0,0.0,0.0,0.0,0.0,0.0,0.0,0.0,0.0,0.0,0.0,0.0,0.0,0.0,0.0,0.0,0.0,0.0,0.0,0.0,0.0,0.0,0.0,0.0,0.0,0.0,0.0,0.0,0.0,0.0,0.0,0.0,0.0,0.0,-2.0942,-2.3015,-2.5078,-2.7048,-2.8688,-2.9928,-3.0747,-2.9609,-2.8112,-2.643,0.0,0.0,0.0,0.0,0.0,0.0,0.0,0.0,0.0,0.0,0.0,0.0,0.0,0.0,0.0,0.0,0.0,0.0,0.0,0.0,0.0,0.0,0.0,0.0,0.0,0.0,0.0,0.0,0.0,0.0,0.0,0.0,0.0,0.0,0.0,0.0,0.0,0.0,0.0,-1.6072,-1.7228,0.0,0.0,0.0,0.0,0.0,0.0,0.0,0.0,-1.6657,0.0,0.0,0.0,0.0,0.0,0.0,0.0,0.0,0.0,0.0,0.0,0.0,0.0,0.0,0.0,0.0,0.0,0.0,0.0,0.0,0.0,0.0,0.0,0.0,0.0,0.0,0.0,0.0,0.0,0.0,0.0,0.0,0.0,0.0,0.0,0.0,0.0,0.0,0.0,0.0,0.0,0.0,0.0,0.0,0.0,0.0,0.0,0.0,0.0,0.0,0.0,0.0,0.0,0.0,0.0,-2.2361,-2.4335,-2.6191,-2.7985,-2.9316,-3.0357,-3.1067,-3.0091,-2.86,0.0,0.0,0.0,0.0,0.0,0.0,0.0,0.0,0.0,0.0,0.0,0.0,0.0,0.0,0.0,0.0,0.0,0.0,0.0,0.0,0.0,0.0,0.0,0.0,0.0,0.0,0.0,0.0,0.0,0.0,0.0,0.0,0.0,0.0,0.0,0.0,0.0,0.0,0.0,0.0,-1.6948,-1.8259,-1.8283,0.0,0.0,0.0,0.0,0.0,0.0,-1.9173,-1.863,0.0,0.0,0.0,0.0,0.0,0.0,0.0,0.0,0.0,0.0,0.0,0.0,0.0,0.0,0.0,0.0,0.0,0.0,0.0,0.0,0.0,0.0,0.0,0.0,0.0,0.0,0.0,0.0,0.0,0.0,0.0,0.0,0.0,0.0,0.0,0.0,0.0,0.0,0.0,0.0,0.0,0.0,0.0,0.0,0.0,0.0,0.0,0.0,0.0,0.0,0.0,0.0,0.0,0.0,0.0,-2.3814,-2.5518,-2.7247,-2.8982,-2.9966,-3.0759,-3.1317,-3.05,-2.9068,0.0,0.0,0.0,0.0,0.0,0.0,0.0,0.0,0.0,0.0,0.0,0.0,0.0,0.0,0.0,0.0,0.0,0.0,0.0,0.0,0.0,0.0,0.0,0.0,0.0,0.0,0.0,0.0,0.0,0.0,0.0,0.0,0.0,0.0,0.0,0.0,0.0,0.0,0.0,0.0,0.0,-1.9018,-1.9058,-1.9836,0.0,0.0,0.0,0.0,-2.1016,-2.0737,0.0,0.0,0.0,0.0,0.0,0.0,0.0,0.0,0.0,0.0,0.0,0.0,0.0,0.0,0.0,0.0,0.0,0.0,0.0,0.0,0.0,0.0,0.0,0.0,0.0,0.0,0.0,0.0,0.0,0.0,0.0,0.0,0.0,0.0,0.0,0.0,0.0,0.0,0.0,0.0,0.0,0.0,0.0,0.0,0.0,0.0,0.0,0.0,0.0,0.0,0.0,0.0,0.0,0.0,0.0,0.0,-2.4722,-2.6457,-2.8163,-2.9871,-3.0916,-3.1456,-3.1445,-3.015,-2.892,0.0,0.0,0.0,0.0,0.0,0.0,0.0,0.0,0.0,0.0,0.0,0.0,0.0,0.0,0.0,0.0,0.0,0.0,0.0,0.0,0.0,0.0,0.0,0.0,0.0,0.0,0.0,0.0,0.0,0.0,0.0,0.0,0.0,0.0,0.0,0.0,0.0,0.0,0.0,0.0,0.0,-1.9207,-1.919,-1.9935,-2.0512,0.0,0.0,-2.1162,-2.2506,-2.1563,0.0,0.0,0.0,0.0,0.0,0.0,0.0,0.0,0.0,0.0,0.0,0.0,0.0,0.0,0.0,0.0,0.0,0.0,0.0,0.0,0.0,0.0,0.0,0.0,0.0,0.0,0.0,0.0,0.0,0.0,0.0,0.0,0.0,0.0,0.0,0.0,0.0,0.0,0.0,0.0,0.0,0.0,0.0,0.0,0.0,0.0,0.0,0.0,0.0,0.0,0.0,0.0,0.0,0.0,0.0,-2.3356,-2.511,-2.7169,-2.8884,-3.0228,-3.1219,-3.1688,-3.1559,-3.0478,-2.9295,0.0,0.0,0.0,0.0,0.0,0.0,0.0,0.0,0.0,0.0,0.0,0.0,0.0,0.0,0.0,0.0,0.0,0.0,0.0,0.0,0.0,0.0,0.0,0.0,0.0,0.0,0.0,0.0,0.0,0.0,0.0,0.0,0.0,0.0,0.0,0.0,0.0,0.0,0.0,0.0,0.0,0.0,-2.1059,-2.1867,0.0,0.0,0.0,-2.3519,-2.4261,0.0,0.0,0.0,0.0,0.0,0.0,0.0,0.0,0.0,0.0,0.0,0.0,0.0,0.0,0.0,0.0,0.0,0.0,0.0,0.0,0.0,0.0,0.0,0.0,0.0,0.0,0.0,0.0,0.0,0.0,0.0,0.0,0.0,0.0,0.0,0.0,0.0,0.0,0.0,0.0,0.0,0.0,0.0,0.0,0.0,0.0,0.0,0.0,0.0,0.0,0.0,0.0,0.0,0.0,0.0,0.0,0.0,-2.5899,-2.7851,-2.9454,-3.0666,-3.1433,-3.1763,-3.1617,-3.0839,0.0,0.0,0.0,0.0,0.0,0.0,0.0,0.0,0.0,0.0,0.0,0.0,0.0,0.0,0.0,0.0,0.0,0.0,0.0,0.0,0.0,0.0,0.0,0.0,0.0,0.0,0.0,-0.9487,0.0,0.0,0.0,0.0,0.0,0.0,0.0,0.0,0.0,0.0,0.0,0.0,0.0,0.0,-2.1393,-2.2556,-2.3505,-2.4372,0.0,0.0,-2.5307,-2.5665,-2.5551,-2.5068,0.0,0.0,0.0,0.0,0.0,0.0,0.0,0.0,0.0,0.0,0.0,0.0,0.0,0.0,0.0,0.0,0.0,0.0,0.0,0.0,0.0,0.0,0.0,0.0,0.0,0.0,0.0,0.0,0.0,0.0,0.0,0.0,0.0,0.0,0.0,0.0,0.0,0.0,0.0,0.0,0.0,0.0,0.0,0.0,0.0,0.0,0.0,0.0,0.0,0.0,0.0,0.0,0.0,0.0,-2.5112,-2.7394,-2.8537,-2.9892,-3.1442,-3.1691,-3.1763,-3.1617,-3.0839,-2.9941,0.0,0.0,0.0,0.0,0.0,0.0,0.0,0.0,0.0,0.0,0.0,0.0,0.0,0.0,0.0,0.0,0.0,0.0,0.0,0.0,0.0,0.0,0.0,0.0,0.0,0.0,0.0,0.0,0.0,0.0,0.0,0.0,0.0,0.0,0.0,0.0,0.0,0.0,0.0,0.0,0.0,-2.2591,-2.279,-2.4016,-2.4994,0.0,-2.5209,-2.5527,-2.6468,-2.6002,-2.5473,-2.5438,0.0,0.0,0.0,0.0,0.0,0.0,0.0,0.0,0.0,0.0,0.0,0.0,0.0,0.0,0.0,0.0,0.0,0.0,0.0,0.0,0.0,0.0,0.0,0.0,0.0,0.0,0.0,0.0,0.0,0.0,0.0,0.0,0.0,0.0,0.0,0.0,0.0,0.0,0.0,0.0,0.0,0.0,0.0,0.0,0.0,0.0,0.0,0.0,0.0,0.0,0.0,0.0,0.0,-2.5832,-2.7772,-2.8728,-2.9999,-3.1511,-3.2135,-3.2152,-3.1596,-3.156,-3.0963,0.0,0.0,0.0,0.0,0.0,0.0,0.0,0.0,0.0,0.0,0.0,0.0,0.0,0.0,0.0,0.0,0.0,0.0,0.0,0.0,0.0,0.0,0.0,0.0,0.0,0.0,0.0,0.0,-1.3347,-1.4221,-1.515,0.0,0.0,0.0,0.0,0.0,0.0,0.0,0.0,0.0,0.0,-2.3284,-2.4648,-2.5432,0.0,0.0,-2.6708,-2.6929,-2.7416,-2.7232,-2.6879,-2.6482,-2.6223,0.0,0.0,0.0,0.0,0.0,0.0,0.0,0.0,0.0,0.0,0.0,0.0,0.0,0.0,0.0,0.0,0.0,0.0,0.0,0.0,0.0,0.0,0.0,0.0,0.0,0.0,0.0,0.0,0.0,0.0,0.0,0.0,0.0,0.0,0.0,0.0,0.0,0.0,0.0,0.0,0.0,0.0,0.0,0.0,0.0,0.0,0.0,0.0,0.0,0.0,0.0,0.0,-2.6387,-2.8233,-2.8954,-3.0208,-3.1963,-3.2492,-3.2647,-3.2244,-3.2281,-3.1698,0.0,0.0,0.0,0.0,0.0,0.0,0.0,0.0,0.0,0.0,0.0,0.0,0.0,0.0,0.0,0.0,0.0,0.0,0.0,0.0,0.0,0.0,0.0,0.0,0.0,0.0,0.0,0.0,-1.4739,-1.5562,-1.5962,0.0,0.0,0.0,0.0,0.0,0.0,0.0,0.0,0.0,0.0,-2.4431,-2.5957,-2.6688,-2.733,-2.7897,-2.8233,-2.8493,-2.8687,-2.8716,-2.8408,-2.7477,0.0,0.0,0.0,0.0,0.0,0.0,0.0,0.0,0.0,0.0,0.0,0.0,0.0,0.0,0.0,0.0,0.0,0.0,0.0,0.0,0.0,0.0,0.0,0.0,0.0,0.0,0.0,-1.9262,0.0,0.0,-1.9058,0.0,0.0,0.0,0.0,0.0,0.0,0.0,0.0,0.0,0.0,0.0,0.0,0.0,0.0,0.0,0.0,0.0,0.0,0.0,0.0,0.0,0.0,-2.6758,-2.9036,-2.9333,-3.0556,-3.2783,-3.2823,-3.3122,-3.3567,-3.2785,-3.1854,-3.0878,0.0,0.0,0.0,0.0,0.0,0.0,0.0,0.0,0.0,0.0,0.0,0.0,0.0,0.0,0.0,0.0,0.0,0.0,0.0,0.0,0.0,0.0,0.0,0.0,0.0,0.0,-1.4909,-1.5936,-1.6691,0.0,0.0,0.0,0.0,0.0,0.0,0.0,0.0,0.0,-2.2746,-2.4694,-2.6184,-2.6318,-2.7652,-2.8673,-2.8846,-2.954,-3.011,-3.0254,-3.0332,-2.9882,0.0,0.0,0.0,0.0,0.0,0.0,0.0,0.0,0.0,0.0,0.0,0.0,0.0,0.0,0.0,0.0,0.0,0.0,0.0,0.0,0.0,0.0,0.0,0.0,0.0,0.0,0.0,-2.1751,-2.1702,0.0,0.0,0.0,0.0,0.0,0.0,0.0,0.0,0.0,0.0,0.0,-2.9157,-2.9791,0.0,0.0,0.0,0.0,0.0,0.0,0.0,0.0,0.0,0.0,0.0,0.0,-2.8169,-2.9949,-3.0657,-3.1608,-3.2886,-3.3762,-3.4011,-3.3632,-3.3111,-3.1918,-2.9969,0.0,0.0,0.0,0.0,0.0,0.0,0.0,0.0,0.0,0.0,0.0,0.0,0.0,0.0,0.0,0.0,0.0,0.0,0.0,0.0,0.0,0.0,0.0,0.0,0.0,-1.6325,0.0,0.0,0.0,0.0,0.0,0.0,0.0,0.0,0.0,0.0,0.0,-2.349,-2.5611,-2.665,-2.7535,-2.8502,-2.9193,-2.9671,0.0,0.0,0.0,0.0,0.0,0.0,0.0,0.0,0.0,0.0,0.0,0.0,0.0,0.0,-2.825,-2.72,-2.709,-2.7182,-2.7277,0.0,0.0,0.0,0.0,0.0,0.0,0.0,0.0,0.0,0.0,0.0,0.0,0.0,0.0,-2.4458,-2.4627,-2.4128,0.0,0.0,0.0,0.0,0.0,0.0,0.0,0.0,-2.8968,-3.0326,-3.1609,-3.2486,-3.3144,-3.3674,-3.4023,-3.3128,0.0,0.0,0.0,0.0,0.0,0.0,0.0,0.0,-2.935,-3.0864,-3.1487,-3.2403,-3.3584,-3.4477,-3.4695,-3.4313,-3.3446,-3.2,-2.9864,-2.9549,-2.9218,0.0,0.0,0.0,0.0,0.0,0.0,0.0,0.0,0.0,0.0,0.0,0.0,0.0,0.0,0.0,0.0,0.0,0.0,0.0,0.0,0.0,0.0,0.0,-1.8071,0.0,0.0,0.0,0.0,0.0,0.0,0.0,0.0,0.0,-2.3388,-2.3974,-2.5281,-2.76,-2.8229,-2.8815,-2.9735,0.0,0.0,0.0,0.0,0.0,0.0,0.0,-3.1339,-3.1159,-3.1696,-3.2097,-3.2184,-3.2007,-3.1926,-3.2198,0.0,0.0,-2.9735,-2.9515,-2.9548,-2.9648,-2.9747,-2.9819,-2.989,-2.9936,-3.0125,0.0,0.0,0.0,0.0,-2.9115,0.0,0.0,0.0,-2.6995,-2.7402,0.0,-2.7923,0.0,0.0,0.0,0.0,-2.6649,-2.7923,0.0,0.0,-3.1401,-3.3102,-3.4031,-3.4788,-3.5723,-3.6785,-3.627,-3.5983,-3.5916,-3.3666,0.0,0.0,0.0,0.0,0.0,0.0,-3.0245,-3.1723,-3.1901,-3.2951,-3.4878,-3.4966,-3.5095,-3.5391,-3.3784,-3.2147,-3.0576,-2.9847,-2.9466,-2.945,-2.8787,0.0,0.0,0.0,0.0,0.0,0.0,0.0,0.0,0.0,0.0,0.0,0.0,0.0,0.0,0.0,0.0,0.0,0.0,0.0,0.0,-1.8938,0.0,0.0,0.0,0.0,0.0,0.0,0.0,0.0,0.0,-2.5855,-2.5357,-2.6489,-2.7764,-2.8673,0.0,0.0,0.0,0.0,-3.1376,-3.1544,-3.2261,-3.2802,-3.2848,-3.2948,-3.2778,-3.2134,0.0,0.0,-3.4503,-3.39,-3.3592,-3.4389,-3.381,-3.2922,-3.1347,-3.113,-3.1175,-3.1183,-3.1289,-3.1375,-3.1375,-3.1451,-3.1519,-3.6195,0.0,0.0,0.0,0.0,-3.2395,-3.1628,-3.0933,-3.095,-3.1376,-3.2059,-3.1436,0.0,0.0,0.0,0.0,0.0,0.0,-3.1924,-3.2463,-3.4187,-3.5542,-3.6482,-3.6875,-3.7313,-3.7797,-3.7927,-3.7956,-3.7983,-3.7387,-3.5897,-3.3601,0.0,0.0,0.0,0.0,-3.2362,-3.3365,-3.3955,-3.4484,-3.4981,-3.5335,-3.4955,-3.3717,-3.309,-3.2061,-3.0559,-3.0311,-3.0212,-3.0195,-2.9516,0.0,0.0,0.0,0.0,0.0,0.0,0.0,0.0,0.0,0.0,0.0,0.0,0.0,0.0,0.0,0.0,0.0,0.0,0.0,-2.1247,-2.2005,-2.2459,0.0,0.0,0.0,0.0,0.0,0.0,0.0,0.0,0.0,-2.9199,-2.8778,-2.8928,0.0,0.0,-3.112,-3.1683,-3.2029,-3.2269,-3.2403,-3.2631,0.0,-3.2884,-3.3444,-3.3598,-3.2888,-3.3298,-3.3725,-3.3737,-3.3556,-3.3484,-3.3719,-3.3556,-3.3248,-3.285,-3.2752,-3.2762,-3.2791,-3.2903,-3.2967,-3.3021,-3.3057,-3.3109,-3.9547,-3.7702,-3.6384,-3.6232,-3.6853,-3.6423,-3.5828,-3.5145,-3.5145,-3.5363,-3.5693,-3.5128,-3.5198,-3.5625,-3.4262,0.0,0.0,0.0,-3.4576,-3.5031,-3.6338,-3.7286,-3.7936,-3.8403,-3.8766,-3.9119,-3.9416,-3.96,-3.9708,-3.9485,-3.8547,-3.693,0.0,-3.4726,-3.4898,-3.449,-3.4645,-3.5404,-3.5559,-3.5683,-3.5822,-3.5688,-3.4751,-3.2984,-3.2785,-3.2,-3.0576,-3.0468,-3.0468,-3.0468,-3.0096,-2.9772,0.0,0.0,0.0,0.0,0.0,0.0,0.0,0.0,0.0,0.0,0.0,-1.9562,-1.9805,0.0,0.0,0.0,-2.1214,-2.1908,-2.2965,-2.3802,0.0,0.0,0.0,0.0,0.0,0.0,0.0,-2.8075,-2.8932,-2.9863,-3.0972,-3.0602,-3.0672,-3.1949,-3.2141,-3.2334,-3.2843,0.0,-3.3011,-3.2743,-3.2787,-3.287,-3.2902,-3.3641,-3.4275,-3.4519,-3.4713,-3.4824,-3.4824,-3.4824,-3.4715,-3.4407,-3.4099,-3.3882,-3.3864,-3.3658,-3.3433,-3.3452,-3.3567,-3.3605,-3.3643,-3.3726,-3.3807,-4.2182,-4.1682,-4.0451,-4.0001,-4.0099,-4.011,-3.972,-3.9164,-3.9129,-3.9051,-3.8881,-3.8864,-3.835,-3.7438,-3.6553,0.0,-3.591,-3.6527,-3.6706,-3.6647,-3.7886,-3.852,-3.8723,-3.953,-4.0087,-4.0468,-4.0648,-4.0858,-4.1041,-4.0349,-4.0092,-4.0192,-3.8798,-3.76,-3.6728,-3.6693,-3.6997,-3.756,-3.6853,-3.6672,-3.7041,-3.5891,-3.4543,-3.2923,-3.2768,-3.2017,-3.0609,-3.0468,-3.051,-3.0526,-3.0526,-3.0253,-2.9765,0.0,0.0,0.0,0.0,0.0,0.0,0.0,0.0,0.0,0.0,0.0,0.0,0.0,0.0,0.0,-2.3846,0.0,-2.4249,-2.4928,0.0,0.0,0.0,-2.7096,-2.7893,-2.8151,-2.8665,-2.9643,0.0,0.0,-3.1249,-3.1932,-3.2669,-3.3388,-3.3476,-3.3424,-3.3424,-3.3529,-3.3438,-3.2745,-3.277,-3.2916,-3.2934,-3.3659,-3.4724,-3.6164,-3.6823,-3.6689,-3.6562,-3.658,-3.6417,-3.5548,-3.4987,-3.4461,-3.4498,-3.3905,-3.3462,-3.3422,-3.352,-3.3587,-3.3633,-3.3817,-3.3972,-4.5206,-4.481,-4.4814,-4.3611,-4.1643,-4.1163,-4.0861,-4.0613,-4.0613,-4.0816,-4.1164,-4.1181,-4.0982,-4.0631,-3.9782,-3.9007,-3.832,-3.8299,-3.8186,-3.8137,-3.887,-3.9235,-3.9287,-3.9731,-4.0003,-4.0221,-4.0648,-4.0935,-4.1093,-4.107,-4.1101,-4.12,-4.0867,-3.9896,-3.8304,-3.8252,-3.8295,-3.8336,-3.8146,-3.7676,-3.6847,-3.5862,-3.448,-3.2818,-3.2724,-3.2,-3.0593,-3.0468,-3.0568,-3.0651,-3.0651,-3.0649,-3.0667,-3.0224,0.0,0.0,0.0,0.0,0.0,0.0,0.0,0.0,0.0,-2.352,-2.4099,0.0,-2.4707,0.0,-2.6099,-2.6773,-2.7484,-2.7738,0.0,0.0,-2.826,-2.8554,-2.8795,-2.9467,-3.0073,-3.0421,-3.1272,-3.1865,-3.1952,-3.2196,-3.2669,-3.3371,-3.3072,-3.2737,-3.2737,-3.2924,-3.2953,-3.2826,-3.282,-3.2916,-3.2987,-3.3673,-3.4681,-3.5782,-3.6045,-3.5892,-3.5276,-3.5168,-3.4914,-3.4154,-3.3846,-3.3683,-3.3701,-3.356,-3.3509,-3.3462,-3.3577,-3.3671,-3.3689,-3.422,-3.4706,-4.6445,-4.601,-4.6453,-4.5477,-4.3675,-4.3502,-4.3328,-4.3201,-4.3183,-4.3187,-4.3074,-4.2714,-4.246,-4.2293,-4.1831,-4.1066,-4.0186,-4.0019,-3.9699,-3.9227,-3.951,-3.9642,-3.959,-3.9798,-4.0003,-4.0188,-4.0859,-4.1198,-4.1204,-4.1922,-4.2107,-4.1622,-4.2289,-4.189,-4.0548,-4.0103,-3.9777,-3.9612,-3.9193,-3.843,-3.7263,-3.6286,-3.5131,-3.3752,-3.3433,-3.2691,-3.152,-3.1573,-3.1524,-3.1208,-3.1233,-3.1206,-3.1072,-3.0779,-3.0506,0.0,0.0,0.0,0.0,0.0,0.0,0.0,0.0,0.0,0.0,0.0,-2.6388,-2.7135,-2.7624,-2.8098,-2.8665,-2.9038,-2.9278,-2.937,-2.9732,-3.0048,-3.0142,-3.0612,-3.0999,-3.1234,-3.1741,-3.2108,-3.2144,-3.2267,-3.2459,-3.2862,-3.2616,-3.2528,-3.2965,-3.3138,-3.3148,-3.2844,-3.287,-3.3059,-3.3348,-3.4225,-3.5145,-3.5951,-3.657,-3.6508,-3.5367,-3.5131,-3.4787,-3.3683,-3.3393,-3.3393,-3.3393,-3.3481,-3.3567,-3.3549,-3.3661,-3.3854,-3.4174,-3.4651,-3.5064,-4.6982,-4.6469,-4.6769,-4.6446,-4.5702,-4.5873,-4.5889,-4.577,-4.5787,-4.5354,-4.4576,-4.3784,-4.3407,-4.3305,-4.3202,-4.2638,-4.1733,-4.1631,-4.0985,-4.0052,-4.0035,-3.995,-3.9677,-3.9849,-4.0088,-4.0475,-4.1288,-4.1584,-4.1493,-4.2845,-4.2987,-4.2008,-4.3131,-4.3419,-4.2702,-4.1754,-4.1134,-4.0871,-3.9894,-3.8955,-3.799,-3.6989,-3.5964,-3.4963,-3.4326,-3.3639,-3.2818,-3.2961,-3.278,-3.2033,-3.2127,-3.1991,-3.1529,-3.1517,-3.1346,0.0,-3.0837,0.0,0.0,0.0,0.0,0.0,0.0,0.0,0.0,-2.8044,-2.8377,-2.9026,-2.9093,-2.9154,-2.94,-2.9977,-3.0369,-3.0412,-3.097,-3.1387,-3.1496,-3.15,-3.1596,-3.1839,-3.1984,-3.2073,-3.2073,-3.2144,-3.2179,-3.2267,-3.2249,-3.2564,-3.3301,-3.3511,-3.3348,-3.2844,-3.287,-3.3098,-3.3723,-3.4655,-3.5472,-3.6278,-3.7025,-3.7341,-3.582,-3.5584,-3.5168,-3.3936,-3.361,-3.3628,-3.3665,-3.3884,-3.3952,-3.4025,-3.4156,-3.4367,-3.4761,-3.5072,-3.543,-4.8558,-4.8089,-4.7679,-4.7062,-4.6391,-4.5892,-4.5684,-4.5615,-4.5632,-4.5494,-4.5199,-4.5061,-4.5062,-4.5044,-4.4251,-4.3803,-4.358,-4.2653,-4.173,-4.0776,-4.0776,-4.0404,-3.9746,-3.9918,-4.0392,-4.1053,-4.166,-4.2265,-4.2909,-4.3398,-4.3605,-4.3465,-4.3167,-4.3191,-4.3401,0.0,0.0,0.0,-3.9911,-3.9259,-3.8894,-3.7401,-3.6139,-3.5261,-3.4526,0.0,-3.3054,-3.3064,-3.3057,-3.3043,-3.3119,0.0,0.0,0.0,0.0,0.0,0.0,0.0,0.0,0.0,0.0,0.0,-3.2357,-3.1732,-3.1206,-3.1449,-3.1865,-3.2202,-3.2219,-3.2303,-3.2536,-3.2638,-3.2486,-3.1952,-3.21,-3.2043,-3.1453,-3.1483,-3.1617,-3.1654,-3.1821,-3.1948,-3.1948,-3.2108,-3.2179,-3.2179,-3.2301,-3.2441,-3.2719,-3.2822,-3.2765,-3.2674,-3.282,-3.292,-3.3098,-3.3938,-3.4663,-3.486,-3.5584,-3.586,-3.515,-3.4932,-3.4878,-3.4389,-3.4371,-3.4637,-3.5242,-3.5496,-3.5458,-3.5608,-3.5713,-3.5661,-3.5137,-3.5559,-3.6285,-4.8984,-4.846,-4.8254,-4.7653,0.0,-4.6141,-4.5868,-4.5851,-4.5508,-4.5353,-4.53,-4.5371,-4.5423,-4.5441,-4.4905,-4.4439,-4.3956,-4.3369,-4.2562,-4.1639,-4.1639,-4.1384,-4.0872,-4.1153,-4.1511,-4.1971,-4.2773,-4.3262,-4.3541,-4.437,-4.4515,-4.3904,-4.429,-4.4243,-4.3775,-4.2515,-4.158,-4.1,-4.0367,-3.9939,-3.9676,-3.8495,-3.7326,-3.6396,-3.5753,0.0,0.0,0.0,0.0,0.0,0.0,0.0,0.0,-3.3859,0.0,-3.3997,-3.4076,-3.4076,-3.398,-3.3802,-3.385,-3.4083,-3.4112,-3.364,-3.2527,-3.2569,-3.2802,-3.2967,-3.3071,-3.3125,-3.3262,-3.3347,-3.3119,-3.2432,-3.2388,-3.2139,-3.156,-3.1483,-3.1614,-3.1709,-3.1802,-3.1894,-3.1856,-3.202,-3.2144,-3.2144,-3.2232,-3.2354,-3.2457,-3.2523,-3.2639,-3.2737,-3.2802,-3.2916,-3.3001,-3.3705,-3.4321,-3.4528,-3.5507,-3.5965,-3.5331,-3.5512,-3.5675,-3.5313,-3.5204,-3.538,-3.5763,-3.5933,-3.6006,-3.6095,-3.619,-3.634,-3.6193,-3.6597,-3.7129,-4.9171,-4.8624,-4.862,-4.8134,-4.7369,-4.6618,-4.6169,-4.6015,-4.5412,0.0,0.0,-4.5247,-4.5371,-4.5388,-4.5385,-4.4881,-4.4107,-4.4065,-4.3532,-4.2489,-4.2489,-4.2368,-4.2196,-4.2445,-4.2705,-4.3014,-4.3958,-4.4312,-4.417,-4.5411,-4.5425,-4.4518,-4.5466,-4.5238,-4.3717,-4.2783,-4.195,-4.1145,-4.084,-4.06,-4.0337,-3.9525,-3.8633,-3.7648,-3.7003,-3.6308,-3.5549,-3.5728,-3.5572,-3.4976,-3.507,-3.4881,-3.4346,-3.4335,-3.4375,-3.449,-3.449,-3.441,-3.4294,-3.4114,-3.4219,-3.4587,-3.494,-3.4588,-3.3373,-3.32,-3.3139,-3.329,-3.3395,-3.3527,-3.3564,-3.371,-3.3491,-3.2763,-3.2679,-3.2439,-3.1798,-3.1684,-3.1764,-3.1777,-3.1977,-3.2083,-3.2061,-3.2364,-3.2526,-3.2544,-3.272,-3.2581,-3.2599,-3.2629,-3.2672,-3.282,-3.2884,-3.2948,-3.3069,-3.3557,-3.4137,-3.4235,-3.5358,-3.6109,-3.5856,-3.6127,-3.6363,-3.6109,-3.6019,-3.6123,-3.6321,-3.6492,-3.6444,-3.6552,-3.6659,-3.6909,-3.7514,-3.7728,-3.79,-4.9598,-4.9443,-4.8884,-4.85,-4.8172,-4.7387,-4.6647,-4.5903,-4.5265,-4.5032,-4.5032,-4.5032,-4.514,-4.5282,-4.5771,-4.5542,-4.4892,-4.5358,-4.4716,-4.3284,-4.325,-4.2966,-4.2445,-4.2689,-4.3305,-4.4078,-4.457,-4.5099,-4.5673,-4.6017,-4.6049,-4.5852,-4.5484,-4.4436,-4.2905,-4.241,-4.1868,-4.1128,-4.084,-4.0697,-4.0648,-3.9816,-3.8952,-3.8138,-3.7422,-3.6672,-3.5966,-3.5932,-3.5924,-3.5822,-3.5951,-3.5976,-3.5899,-3.5889,-3.599,-3.599,-3.5924,-3.5856,-3.5694,-3.5477,-3.5217,-3.5015,-3.5085,-3.4988,-3.4822,-3.4678,-3.4631,-3.4772,-3.4831,-3.5036,-3.5172,-3.5178,-3.4912,-3.4252,-3.4167,-3.3702,-3.2519,-3.2395,-3.2234,-3.1823,-3.2314,-3.2748,-3.2783,-3.3457,-3.3917,-3.4042,-3.3875,-3.4056,-3.3442,-3.2981,-3.2692,-3.2805,-3.2916,-3.2979,-3.3046,-3.3224,-3.3496,-3.3473,-3.3822,-3.4443,-3.4842,-3.5077,-3.5566,-3.658,-3.6635,-3.6971,-3.7676,-3.8054,-3.7917,-3.8004,-3.8083,-3.8285,-3.8432,-3.8444,-3.8487,-4.9411,-4.9376,-4.9052,-4.8856,-4.8685,-4.7802,-4.6938,-4.6186,-4.5865,-4.5394,-4.4903,-4.4886,-4.4978,-4.5155,-4.5725,-4.5601,-4.4937,-4.5518,-4.5168,-4.4096,-4.4139,-4.4007,-4.3793,-4.4042,-4.444,-4.4924,-4.5129,-4.5523,-4.5955,-4.6073,-4.6122,-4.6119,-4.5387,-4.4327,-4.3071,-4.2506,-4.1838,-4.1017,-4.0888,-4.0793,-4.068,-4.0306,-3.9727,-3.8879,-3.8111,-3.7387,-3.674,-3.6328,-3.6105,-3.6191,-3.6233,-3.6293,-3.6233,-3.6301,-3.6284,-3.6301,-3.6251,-3.6122,-3.6036,-3.5622,-3.5321,-3.5088,-3.5041,-3.4811,-3.4413,-3.4778,-3.5041,-3.5105,-3.5291,-3.5446,-3.5492,-3.5549,-3.5318,-3.4573,-3.4489,-3.4109,-3.3277,-3.3121,-3.3031,-3.2821,-3.3144,-3.3446,-3.3446,-3.4008,-3.4387,-3.4408,-3.4261,-3.3915,-3.3635,-3.3017,-3.2639,-3.2773,-3.2916,-3.3011,-3.3042,-3.3183,-3.3292,-3.3352,-3.3762,-3.4154,-3.4606,-3.4878,-3.553,-3.6164,-3.6345,-3.6517,-3.7075,-3.7471,-3.7783,-3.8034,-3.8462,-3.8676,-3.8732,-3.8467,-3.8332,-4.9229,-4.9229,-4.9229,-4.9124,-4.8906,-4.8192,-4.7413,-4.6723,-4.6558,-4.6001,-4.5202,-4.5004,-4.5031,-4.5154,-4.5813,-4.5688,-4.5179,-4.5845,-4.5703,-4.4948,-4.4992,-4.5001,-4.4958,-4.5194,-4.5389,-4.5529,-4.5667,-4.577,-4.5972,-4.5972,-4.6023,-4.5985,-4.5204,-4.4307,-4.3429,-4.2601,-4.1726,-4.097,-4.0871,-4.084,-4.0745,-4.0745,-4.0336,-3.9487,-3.8888,-3.8163,-3.7377,-3.6818,-3.6423,-3.6301,-3.6284,-3.6284,-3.6284,-3.6284,-3.637,-3.6525,-3.6449,-3.6275,-3.6082,-3.5542,-3.5198,-3.5088,-3.4994,-3.4698,-3.4217,-3.4572,-3.4901,-3.4901,-3.5237,-3.5492,-3.552,-3.5549,-3.5385,-3.4871,-3.4742,-3.4515,-3.3897,-3.3803,-3.376,-3.3707,-3.3939,-3.414,-3.4215,-3.4592,-3.5,-3.5025,-3.4296,-3.381,-3.3723,-3.3141,-3.2692,-3.2773,-3.2902,-3.3011,-3.3104,-3.3214,-3.3322,-3.3411,-3.3864,-3.4244,-3.457,-3.515,-3.5602,-3.5783,-3.5856,-3.5955,-3.6055,-3.6486,-3.6949,-3.7209,-3.7665,-3.8099,-3.8092,-3.7763,-3.7839,-4.935,-4.9229,-4.9168,-4.9046,-4.8832,-4.8685,-4.8169,-4.7345,-4.7204,-4.677,-4.6166,-4.5564,-4.5395,-4.5479,-4.627,-4.6319,-4.5703,-4.7073,-4.6938,-4.5703,-4.5756,-4.555,-4.5226,-4.5459,-4.5701,-4.5957,-4.5939,-4.5922,-4.5972,-4.5871,-4.5838,-4.5734,-4.4954,-4.4193,-4.338,-4.2504,-4.1678,-4.0888,-4.0871,-4.0871,-4.0871,-4.0871,-4.0509,-3.9686,-3.9583,-3.8877,-3.7646,-3.7422,-3.7042,-3.6387,-3.6301,-3.6284,-3.6284,-3.6284,-3.6611,-3.7284,-3.7134,-3.682,-3.6354,-3.5549,-3.5088,-3.4947,-3.5041,-3.5038,-3.4888,-3.4588,-3.4298,-3.4325,-3.4968,-3.5386,-3.5594,-3.5588,-3.5565,-3.562,-3.5497,-3.5172,-3.4469,-3.4481,-3.4313,-3.3516,-3.4345,-3.4895,-3.5005,-3.57,-3.6434,-3.6453,-3.5247,-3.4495,-3.4496,-3.3511,-3.273,-3.2743,-3.287,-3.3046,-3.3104,-3.3214,-3.3292,-3.3382,-3.3447,-3.3828,-3.4286,-3.4606,-3.4878,-3.524,-3.562,-3.561,-3.5769,-3.6085,-3.6145,-3.6355,-3.6541,-3.6654,-3.6656,-3.6694,-3.7211,-4.8923,-4.8956,-4.894,-4.8956,-4.8894,-4.869,-4.8379,-4.8065,-4.7747,-4.7517,-4.7231,-4.6765,-4.6126,-4.5488,-4.6389,-4.638,-4.5838,-4.7259,-4.7361,-4.6397,-4.6561,-4.6544,-4.6405,-4.6322,-4.6325,-4.6326,-4.5961,-4.5787,-4.5787,-4.5787,-4.5787,-4.5649,-4.5286,-4.4715,-4.3921,-4.3128,-4.2302,-4.1561,-4.1112,-4.0871,-4.0871,-4.0871,-4.0733,-4.0388,-3.9957,-3.9439,-3.8784,-3.7974,-3.7335,-3.6991,-3.6577,-3.6284,-3.6284,-3.6284,-3.6663,-3.7387,-3.7254,-3.6939,-3.6552,-3.5786,-3.5291,-3.5152,-3.5198,-3.5078,-3.4643,-3.4813,-3.4835,-3.4398,-3.4378,-3.4549,-3.4999,-3.5084,-3.5237,-3.5671,-3.5656,-3.5386,-3.5054,-3.511,-3.502,-3.4705,-3.5197,-3.5583,-3.5677,-3.6212,-3.6748,-3.6773,-3.5671,-3.4898,-3.5127,-3.4147,-3.342,-3.3348,-3.3499,-3.343,-3.3185,-3.3104,-3.3214,-3.3304,-3.3352,-3.3587,-3.3773,-3.3882,-3.4027,-3.4389,-3.448,-3.4528,-3.4411,-3.4968,-3.5253,-3.5473,-3.6036,-3.6342,-3.6491,-3.6184,-3.6488,-4.8564,-4.8769,-4.8832,-4.8815,-4.8877,-4.861,-4.842,-4.8373,-4.8131,-4.8001,-4.7983,-4.7541,-4.6887,-4.6169,-4.6752,-4.6802,-4.6515,-4.7648,-4.7817,-4.7217,-4.7367,-4.7346,-4.7182,-4.711,-4.6911,-4.6564,-4.6186,-4.5788,-4.5615,-4.5632,-4.5632,-4.5581,-4.5581,-4.5131,-4.4319,-4.3544,-4.2834,-4.1974,-4.125,-4.0871,-4.0871,-4.0871,-4.0871,-4.0819,-4.0336,-3.9922,-3.9681,-3.8663,-3.7991,-3.7767,-3.7232,-3.6922,-3.6939,-3.6939,-3.724,-3.792,-3.7826,-3.7466,-3.6936,-3.6198,-3.5648,-3.5371,-3.5337,-3.5165,-3.4807,-3.5015,-3.5081,-3.466,-3.404,-3.4065,-3.4976,-3.5087,-3.53,-3.5776,-3.5656,-3.552,-3.5412,-3.5446,-3.5458,-3.5475,-3.5671,-3.6062,-3.6148,-3.6461,-3.6783,-3.6751,-3.5843,-3.5127,-3.5495,-3.4834,-3.411,-3.411,-3.4123,-3.3758,-3.3158,-3.3042,-3.3152,-3.3262,-3.331,-3.334,-3.3364,-3.3411,-3.3411,-3.3828,-3.3502,-3.3477,-3.38,-3.4211,-3.4459,-3.4619,-3.5099,-3.5662,-3.5541,-3.5269,-3.534,-4.8436,-4.8786,-4.8956,-4.8815,-4.8547,-4.8483,-4.8292,-4.8066,-4.8001,-4.8001,-4.7983,-4.7591,-4.7378,-4.7278,-4.7652,-4.7834,-4.7885,-4.8545,-4.8528,-4.7902,-4.8048,-4.7758,-4.7233,-4.7481,-4.7341,-4.6773,-4.66,-4.6202,-4.5441,-4.5423,-4.5423,-4.5441,-4.5423,-4.5044,-4.4337,-4.3629,-4.2785,-4.2078,-4.1302,-4.0871,-4.0871,-4.0871,-4.0871,-4.0871,-4.0836,-4.044,-3.9819,-3.9629,-3.925,-3.8577,-3.8439,-3.8422,-3.8456,-3.8456,-3.8694,-3.9179,-3.9268,-3.8772,-3.7725,-3.6919,-3.6182,-3.5471,-3.5492,-3.5503,-3.5408,-3.5135,-3.4976,-3.4916,-3.4435,-3.4597,-3.5728,-3.5788,-3.5805,-3.5958,-3.5756,-3.5549,-3.5337,-3.5446,-3.5463,-3.5429,-3.5773,-3.6105,-3.6419,-3.662,-3.6725,-3.6689,-3.6173,-3.5794,-3.5797,-3.5364,-3.5013,-3.4836,-3.4514,-3.3898,-3.3212,-3.2979,-3.3091,-3.3201,-3.3262,-3.3322,-3.3364,-3.3393,-3.3393,-3.3393,-3.3393,-3.3422,-3.3481,-3.3593,-3.3712,-3.387,-3.3991,-3.4311,-3.4658,-3.4286,-3.4375,-4.8179,-4.8627,-4.8832,-4.8769,-4.869,-4.8547,-4.8356,-4.8115,-4.8066,-4.8001,-4.8033,-4.7944,-4.7908,-4.7908,-4.8161,-4.8158,-4.8003,-4.868,-4.8866,-4.8612,-4.8717,-4.8685,-4.8473,-4.838,-4.7842,-4.7065,-4.6677,-4.6057,-4.5369,-4.523,-4.5318,-4.5371,-4.5441,-4.5268,-4.4854,-4.3785,-4.3059,-4.2647,-4.1543,-4.0871,-4.0871,-4.0871,-4.0871,-4.0871,-4.0871,-4.075,-4.0474,-3.9974,-3.956,-3.9301,-3.8853,-3.8594,-3.8646,-3.9043,-3.9376,-3.9448,-3.9422,-3.9003,-3.8095,-3.7254,-3.6508,-3.5875,-3.5773,-3.58,-3.581,-3.5633,-3.5583,-3.5642,-3.5565,-3.5744,-3.5924,-3.5719,-3.5531,-3.5873,-3.5756,-3.5549,-3.5492,-3.5537,-3.5549,-3.5577,-3.5888,-3.6318,-3.6561,-3.6725,-3.6788,-3.6821,-3.6264,-3.611,-3.638,-3.6107,-3.574,-3.5794,-3.5669,-3.5132,-3.3845,-3.3202,-3.2997,-3.3042,-3.3152,-3.3232,-3.3274,-3.3364,-3.3393,-3.3393,-3.3393,-3.3393,-3.3452,-3.3452,-3.3491,-3.3549,-3.3661,-3.3726,-3.3834,-3.3895,-3.3972,-4.8081,-4.8483,-4.8707,-4.8769,-4.8769,-4.8627,-4.842,-4.8227,-4.8115,-4.8066,-4.7984,-4.8115,-4.8163,-4.8227,-4.842,-4.8375,-4.8158,-4.8596,-4.8798,-4.8877,-4.8923,-4.9046,-4.904,-4.8839,-4.8131,-4.7124,-4.6264,-4.562,-4.5174,-4.5194,-4.5247,-4.5318,-4.5371,-4.5441,-4.5182,-4.3923,-4.3232,-4.2955,-4.1712,-4.0871,-4.0871,-4.0871,-4.0871,-4.0871,-4.0871,-4.0871,-4.0871,-4.0353,-4.0095,-4.0008,-3.9595,-3.9336,-3.9342,-3.9802,-4.0031,-3.9843,-3.9846,-3.9337,-3.835,-3.7643,-3.6945,-3.6095,-3.6036,-3.6036,-3.6079,-3.6079,-3.6122,-3.6208,-3.6251,-3.6233,-3.6172,-3.5769,-3.5599,-3.5959,-3.5844,-3.5684,-3.5628,-3.5639,-3.5756,-3.5932,-3.6174,-3.6485,-3.6766,-3.6846,-3.6908,-3.697,-3.6496,-3.6499,-3.6897,-3.6741,-3.6465,-3.6575,-3.6381,-3.5882,-3.5061,-3.4401,-3.3398,-3.3279,-3.3212,-3.3255,-3.3262,-3.3334,-3.3429,-3.3411,-3.3411,-3.3393,-3.3393,-3.3393,-3.3422,-3.3509,-3.3577,-3.3671,-3.3753,-3.3815,-3.3921,-4.8292,-4.8483,-4.8707,-4.8769,-4.8786,-4.8769,-4.8564,-4.8227,-4.8179,-4.8115,-4.8066,-4.8179,-4.8163,-4.8227,-4.8373,-4.8467,-4.8416,-4.845,-4.8547,-4.8547,-4.8547,-4.861,-4.8815,-4.8855,-4.8165,-4.6927,-4.5653,-4.5046,-4.4978,-4.514,-4.5194,-4.523,-4.5371,-4.5441,-4.5353,-4.4044,-4.3283,-4.2921,-4.1716,-4.0957,-4.0871,-4.0871,-4.0871,-4.0871,-4.0871,-4.0871,-4.0871,-4.0836,-4.0767,-4.0802,-4.0767,-4.0806,-4.0556,-4.0672,-4.0724,-4.048,-4.058,-3.9829,-3.8499,-3.8145,-3.7462,-3.6327,-3.6019,-3.6079,-3.6165,-3.6165,-3.6191,-3.6276,-3.6301,-3.6284,-3.6284,-3.6215,-3.6172,-3.6208,-3.6036,-3.5949,-3.5844,-3.5817,-3.5975,-3.636,-3.6591,-3.6713,-3.693,-3.7027,-3.7027,-3.6992,-3.6939,-3.6886,-3.7052,-3.6967,-3.7114,-3.7142,-3.6878,-3.631,-3.6025,-3.5667,-3.447,-3.357,-3.3432,-3.335,-3.3298,-3.3304,-3.3563,-3.361,-3.3755,-3.3737,-3.3393,-3.3393,-3.3422,-3.3462,-3.3549,-3.3615,-3.3698,-3.378,-3.3868,-4.8244,-4.85,-4.8564,-4.8707,-4.8769,-4.8769,-4.8644,-4.842,-4.8292,-4.8163,-4.8115,-4.8049,-4.8066,-4.8066,-4.8115,-4.8196,-4.8196,-4.8179,-4.8244,-4.8483,-4.8483,-4.8547,-4.8627,-4.861,-4.7917,-4.6582,-4.5655,-4.5083,-4.4771,-4.494,-4.5086,-4.5194,-4.5318,-4.5441,-4.5336,-4.444,-4.3716,-4.3145,-4.2164,-4.1423,-4.094,-4.0871,-4.0871,-4.0871,-4.0871,-4.0871,-4.0871,-4.0871,-4.0871,-4.0871,-4.084,-4.0697,-4.0631,-4.0697,-4.0728,-4.0648,-4.0648,-4.0075,-3.8734,-3.8362,-3.77,-3.6552,-3.6216,-3.6216,-3.6276,-3.6276,-3.6259,-3.6284,-3.6284,-3.6284,-3.6284,-3.6284,-3.6259,-3.6208,-3.6182,-3.6122,-3.6105,-3.6233,-3.6509,-3.6834,-3.6992,-3.7126,-3.7182,-3.722,-3.7164,-3.7069,-3.7048,-3.7009,-3.7069,-3.7108,-3.7147,-3.7226,-3.6962,-3.6751,-3.6398,-3.615,-3.5473,-3.4541,-3.4139,-3.3858,-3.37,-3.3701,-3.3888,-3.3991,-3.4117,-3.3973,-3.361,-3.3393,-3.3422,-3.3481,-3.3549,-3.3633,-3.3716,-3.378,-3.3842,-4.8179,-4.8483,-4.8483,-4.8627,-4.8894,-4.8894,-4.8753,-4.8627,-4.842,-4.8292,-4.8163,-4.8049,-4.8001,-4.8001,-4.8001,-4.8001,-4.8001,-4.8001,-4.8115,-4.8308,-4.8292,-4.8356,-4.8353,-4.8182,-4.768,-4.6742,-4.6118,-4.5496,-4.4862,-4.5167,-4.5285,-4.5083,-4.5211,-4.5264,-4.5196,-4.4525,-4.3855,-4.334,-4.2412,-4.1621,-4.1192,-4.0882,-4.0776,-4.084,-4.084,-4.084,-4.0871,-4.084,-4.084,-4.0888,-4.0793,-4.068,-4.0534,-4.0697,-4.0745,-4.0697,-4.0642,-4.0169,-3.8836,-3.8504,-3.7833,-3.6646,-3.6284,-3.6284,-3.6284,-3.6284,-3.6284,-3.6284,-3.6284,-3.6284,-3.6284,-3.6284,-3.6318,-3.6335,-3.6395,-3.6419,-3.6527,-3.6731,-3.6952,-3.7223,-3.7374,-3.7429,-3.7447,-3.7372,-3.7279,-3.7203,-3.7087,-3.7009,-3.7069,-3.7087,-3.7164,-3.722,-3.7152,-3.6905,-3.6677,-3.6466,-3.6344,-3.5704,-3.5055,-3.476,-3.4465,-3.4604,-3.4769,-3.4733,-3.4806,-3.4407,-3.4045,-3.3556,-3.3422,-3.3481,-3.3567,-3.3633,-3.3689,-3.3753,-3.3815,-4.8179,-4.8483,-4.8483,-4.8673,-4.894,-4.894,-4.8894,-4.8769,-4.8564,-4.8356,-4.8244,-4.8049,-4.8001,-4.8001,-4.8001,-4.8001,-4.8001,-4.8001,-4.8001,-4.8066,-4.8066,-4.8115,-4.8161,-4.7838,-4.7471,-4.7166,-4.6764,-4.6102,-4.532,-4.5608,-4.5524,-4.4899,-4.4995,-4.5032,-4.493,-4.4331,-4.3989,-4.3664,-4.2501,-4.1852,-4.1681,-4.1066,-4.0754,-4.0851,-4.0851,-4.0848,-4.0793,-4.0728,-4.0745,-4.0823,-4.0823,-4.068,-4.0583,-4.0728,-4.0793,-4.0714,-4.084,-4.006,-3.8991,-3.8594,-3.7922,-3.6525,-3.6284,-3.6284,-3.6284,-3.6284,-3.6284,-3.6284,-3.6284,-3.6284,-3.6284,-3.6284,-3.6343,-3.6502,-3.6626,-3.6811,-3.7069,-3.7203,-3.7374,-3.754,-3.7667,-3.7703,-3.7685,-3.754,-3.7392,-3.7297,-3.7143,-3.7048,-3.7031,-3.7087,-3.7087,-3.7126,-3.7126,-3.7076,-3.6811,-3.6907,-3.6787,-3.6541,-3.597,-3.5693,-3.5346,-3.5453,-3.5222,-3.5222,-3.5313,-3.4914,-3.428,-3.3701,-3.3452,-3.352,-3.3577,-3.3633,-3.3716,-3.3798,-3.388,-4.8115,-4.8292,-4.8292,-4.842,-4.861,-4.861,-4.869,-4.8707,-4.8436,-4.8356,-4.8356,-4.8115,-4.8001,-4.8001,-4.8001,-4.8001,-4.8001,-4.8001,-4.8001,-4.8001,-4.8001,-4.8001,-4.8049,-4.7932,-4.755,-4.7132,-4.7132,-4.6518,-4.5345,-4.5737,-4.5541,-4.481,-4.494,-4.4995,-4.4927,-4.4756,-4.4397,-4.3953,-4.356,-4.2945,-4.2398,-4.2159,-4.1852,-4.1406,-4.1355,-4.1064,-4.07,-4.068,-4.06,-4.0453,-4.0534,-4.0534,-4.0453,-4.0631,-4.0745,-4.0745,-4.0789,-4.0215,-3.8974,-3.8594,-3.7853,-3.6525,-3.6284,-3.6284,-3.6284,-3.6284,-3.6284,-3.6284,-3.6284,-3.6284,-3.6284,-3.6284,-3.6485,-3.6829,-3.6948,-3.7087,-3.7299,-3.7485,-3.7667,-3.7863,-3.7863,-3.7846,-3.7775,-3.7577,-3.7392,-3.7297,-3.7143,-3.7027,-3.7009,-3.7048,-3.7048,-3.7009,-3.7048,-3.7066,-3.7069,-3.7185,-3.7246,-3.7195,-3.6934,-3.6678,-3.6366,-3.6158,-3.5661,-3.5204,-3.5693,-3.553,-3.4437,-3.3513,-3.3528,-3.3731,-3.3761,-3.3872,-3.3817,-3.3862,-3.4009,-4.8066,-4.8163,-4.8163,-4.8292,-4.8483,-4.8483,-4.8564,-4.8627,-4.8356,-4.8292,-4.8292,-4.8115,-4.8001,-4.8001,-4.8001,-4.8001,-4.8001,-4.8001,-4.8001,-4.8001,-4.8001,-4.8001,-4.8001,-4.8001,-4.7769,-4.7486,-4.7658,-4.7027,-4.5999,-4.6085,-4.5699,-4.4907,-4.4776,-4.4776,-4.472,-4.4686,-4.4517,-4.4092,-4.3732,-4.3291,-4.3025,-4.2598,-4.2142,-4.1614,-4.1495,-4.1204,-4.0637,-4.0648,-4.06,-4.0485,-4.0534,-4.0583,-4.0502,-4.0631,-4.0793,-4.0776,-4.0871,-4.0215,-3.8957,-3.8577,-3.787,-3.6663,-3.6284,-3.6284,-3.6284,-3.6284,-3.6284,-3.6284,-3.6284,-3.6284,-3.6284,-3.6402,-3.6609,-3.6869,-3.7087,-3.7279,-3.7503,-3.7667,-3.781,-3.7933,-3.7967,-3.7863,-3.7846,-3.7577,-3.7354,-3.7241,-3.7087,-3.7009,-3.7009,-3.697,-3.697,-3.697,-3.697,-3.7027,-3.7066,-3.7182,-3.7297,-3.7337,-3.747,-3.7307,-3.721,-3.6931,-3.6711,-3.6309,-3.6327,-3.5983,-3.5066,-3.4261,-3.412,-3.4262,-3.4201,-3.4238,-3.4312,-3.4468,-3.4541,-4.8049,-4.8163,-4.8163,-4.8292,-4.842,-4.842,-4.842,-4.842,-4.8227,-4.8163,-4.8163,-4.8066,-4.8001,-4.8001,-4.8001,-4.8001,-4.8001,-4.8001,-4.8001,-4.8001,-4.8001,-4.8001,-4.8001,-4.8001,-4.7968,-4.795,-4.8275,-4.7617,-4.6787,-4.6726,-4.6092,-4.5145,-4.4773,-4.4547,-4.4457,-4.4367,-4.431,-4.4142,-4.3648,-4.3435,-4.3415,-4.2939,-4.2472,-4.197,-4.1478,-4.1103,-4.069,-4.0583,-4.0631,-4.0534,-4.0728,-4.0793,-4.068,-4.0823,-4.0871,-4.0871,-4.0819,-4.0215,-3.8922,-3.856,-3.7939,-3.6646,-3.6301,-3.6284,-3.6301,-3.6259,-3.6259,-3.6259,-3.6259,-3.6259,-3.6301,-3.652,-3.6684,-3.6829,-3.7105,-3.7354,-3.7613,-3.7757,-3.7916,-3.7949,-3.7949,-3.7845,-3.7703,-3.7485,-3.7281,-3.7185,-3.7031,-3.7009,-3.697,-3.697,-3.697,-3.697,-3.697,-3.697,-3.7048,-3.7087,-3.7241,-3.7392,-3.7667,-3.7736,-3.7803,-3.7742,-3.7884,-3.7703,-3.6942,-3.654,-3.6259,-3.5666,-3.5107,-3.4994,-3.5034,-3.5109,-3.5155,-3.5422,-3.5569,-4.8001,-4.8066,-4.8049,-4.8066,-4.8131,-4.8115,-4.8179,-4.8227,-4.8115,-4.8115,-4.8163,-4.8066,-4.8001,-4.8001,-4.8001,-4.8001,-4.8001,-4.8001,-4.8001,-4.8001,-4.8001,-4.8001,-4.8001,-4.8001,-4.8001,-4.8066,-4.8179,-4.7872,-4.7312,-4.7144,-4.6785,-4.5595,-4.5216,-4.4899,-4.4411,-4.4246,-4.4155,-4.4121,-4.3896,-4.387,-4.399,-4.3822,-4.3356,-4.2797,-4.1902,-4.1053,-4.0574,-4.0551,-4.0697,-4.0714,-4.0697,-4.0745,-4.0745,-4.084,-4.0888,-4.0871,-4.0836,-4.0215,-3.8974,-3.8543,-3.7956,-3.6697,-3.6302,-3.6251,-3.6301,-3.6148,-3.6165,-3.6165,-3.6105,-3.6122,-3.6251,-3.652,-3.6684,-3.6829,-3.7009,-3.7203,-3.741,-3.7613,-3.7703,-3.7739,-3.7703,-3.7685,-3.7613,-3.7337,-3.7167,-3.7091,-3.7031,-3.7009,-3.697,-3.697,-3.697,-3.697,-3.697,-3.697,-3.7009,-3.7126,-3.7279,-3.7447,-3.7703,-3.7934,-3.8054,-3.8052,-3.8032,-3.7652,-3.7087,-3.6898,-3.6976,-3.6406,-3.5739,-3.5828,-3.5933,-3.5962,-3.6083,-3.6368,-3.6607,-4.8001,-4.8001,-4.8001,-4.8001,-4.8001,-4.8001,-4.8066,-4.8049,-4.8049,-4.8049,-4.8049,-4.7984,-4.8001,-4.8001,-4.8001,-4.8001,-4.8001,-4.8001,-4.8001,-4.8001,-4.8001,-4.8001,-4.8001,-4.8001,-4.8001,-4.8001,-4.8115,-4.7892,-4.7579,-4.7469,-4.7036,-4.6127,-4.5622,-4.5119,-4.4549,-4.4206,-4.4015,-4.3998,-4.3939,-4.3981,-4.4253,-4.4236,-4.376,-4.3017,-4.2005,-4.1154,-4.0588,-4.0697,-4.0793,-4.0793,-4.0793,-4.0793,-4.0793,-4.0888,-4.0871,-4.0871,-4.0853,-4.0353,-3.9405,-3.8705,-3.816,-3.7335,-3.6612,-3.6431,-3.6397,-3.6232,-3.5949,-3.5993,-3.5993,-3.5993,-3.6182,-3.6377,-3.6544,-3.6766,-3.6891,-3.7009,-3.7164,-3.7374,-3.7559,-3.7559,-3.754,-3.7503,-3.7392,-3.7185,-3.7108,-3.7031,-3.7031,-3.697,-3.697,-3.697,-3.697,-3.697,-3.697,-3.7009,-3.7009,-3.7164,-3.7372,-3.7503,-3.7649,-3.7863,-3.8002,-3.8,-3.7946,-3.7636,-3.7431,-3.7584,-3.7521,-3.6929,-3.662,-3.6728,-3.6835,-3.6864,-3.704,-3.7382,-3.764,-4.7935,-4.7935,-4.8001,-4.8001,-4.8001,-4.8001,-4.8001,-4.8001,-4.8001,-4.8001,-4.8001,-4.8001,-4.8001,-4.8001,-4.8001,-4.8001,-4.8001,-4.8001,-4.8001,-4.8001,-4.8001,-4.8001,-4.8001,-4.8001,-4.8001,-4.8001,-4.8115,-4.7861,-4.7718,-4.7575,-4.7385,-4.6639,-4.5857,-4.5336,-4.4813,-4.4188,-4.3881,-4.3898,-4.3805,-4.3906,-4.4253,-4.4162,-4.3659,-4.2647,-4.2176,-4.1391,-4.0888,-4.0793,-4.0871,-4.0871,-4.0871,-4.0871,-4.0871,-4.0871,-4.0871,-4.0871,-4.0871,-4.0422,-3.9715,-3.9038,-3.8534,-3.8385,-3.7216,-3.6727,-3.6939,-3.6667,-3.6254,-3.5949,-3.5926,-3.5905,-3.6122,-3.6276,-3.6461,-3.6643,-3.6748,-3.6851,-3.7027,-3.7203,-3.7317,-3.7354,-3.7337,-3.7317,-3.7279,-3.7164,-3.7087,-3.7009,-3.7009,-3.697,-3.697,-3.7009,-3.7009,-3.7009,-3.7048,-3.7087,-3.7126,-3.7203,-3.7392,-3.7503,-3.7649,-3.7792,-3.7915,-3.7966,-3.7948,-3.8052,-3.7993,-3.8056,-3.8012,-3.7676,-3.7497,-3.7649,-3.7691,-3.7691,-3.8007,-3.8416,-3.849,-4.7787,-4.7787,-4.7919,-4.8001,-4.8001,-4.8001,-4.8001,-4.8001,-4.8001,-4.8001,-4.8001,-4.8001,-4.8001,-4.8001,-4.8001,-4.8001,-4.8001,-4.8001,-4.8001,-4.8001,-4.8001,-4.8001,-4.8001,-4.8001,-4.8001,-4.8001,-4.8066,-4.7998,-4.8028,-4.8075,-4.7751,-4.7178,-4.643,-4.574,-4.492,-4.4162,-4.383,-4.3898,-4.3822,-4.3981,-4.4196,-4.4226,-4.3782,-4.2787,-4.2569,-4.1919,-4.104,-4.0875,-4.0871,-4.0871,-4.0871,-4.0871,-4.0871,-4.0871,-4.0871,-4.0871,-4.0871,-4.0543,-3.9876,-3.9456,-3.898,-3.8505,-3.7809,-3.7648,-3.7725,-3.7483,-3.6835,-3.6329,-3.5949,-3.5807,-3.6036,-3.6191,-3.6402,-3.6643,-3.6766,-3.6851,-3.697,-3.7048,-3.7126,-3.7147,-3.7147,-3.7147,-3.7126,-3.7087,-3.7048,-3.7009,-3.7009,-3.697,-3.697,-3.7009,-3.7009,-3.7048,-3.7108,-3.7164,-3.7259,-3.7279,-3.7429,-3.7466,-3.7577,-3.7721,-3.781,-3.7915,-3.8002,-3.8002,-3.8036,-3.8032,-3.8041,-3.8081,-3.8123,-3.8083,-3.8273,-3.8462,-3.8559,-3.8608,-3.8603,-4.7704,-4.7704,-4.7935,-4.8001,-4.8001,-4.8001,-4.8001,-4.8001,-4.8001,-4.8001,-4.8001,-4.8001,-4.8001,-4.8001,-4.8001,-4.8001,-4.8001,-4.8001,-4.8001,-4.8001,-4.8001,-4.8001,-4.8001,-4.8001,-4.8001,-4.8001,-4.8001,-4.8049,-4.8163,-4.8211,-4.8011,-4.7725,-4.7058,-4.62,-4.5391,-4.4633,-4.4145,-4.3972,-4.3914,-4.4073,-4.431,-4.4423,-4.4058,-4.3593,-4.3253,-4.2671,-4.1687,-4.1409,-4.125,-4.1022,-4.0871,-4.0871,-4.0871,-4.084,-4.0793,-4.0793,-4.0776,-4.0607,-4.0079,-3.9696,-3.9276,-3.9327,-3.854,-3.8125,-3.8113,-3.7833,-3.7282,-3.6659,-3.6273,-3.5999,-3.6044,-3.6217,-3.6395,-3.6643,-3.6783,-3.6921,-3.7005,-3.7005,-3.7062,-3.7101,-3.7101,-3.714,-3.7048,-3.7009,-3.7009,-3.697,-3.6987,-3.7062,-3.7097,-3.7171,-3.7246,-3.7126,-3.7185,-3.7241,-3.7297,-3.7354,-3.7374,-3.7466,-3.754,-3.7649,-3.7721,-3.7828,-3.781,-3.781,-3.7862,-3.8018,-3.8117,-3.8158,-3.8328,-3.851,-3.8566,-3.864,-3.8695,-3.8732,-3.8719,-4.7571,-4.7638,-4.7853,-4.7919,-4.7935,-4.8001,-4.8001,-4.8001,-4.8001,-4.8001,-4.8001,-4.8001,-4.8001,-4.8001,-4.8001,-4.8001,-4.8001,-4.8001,-4.8001,-4.8001,-4.8001,-4.8001,-4.8001,-4.8001,-4.8001,-4.8001,-4.8001,-4.8066,-4.8115,-4.8098,-4.8163,-4.788,-4.7431,-4.6802,-4.6043,-4.5284,-4.4693,-4.4331,-4.4173,-4.4315,-4.4417,-4.4614,-4.4582,-4.4164,-4.4078,-4.3426,-4.2388,-4.2216,-4.1819,-4.1388,-4.1147,-4.106,-4.0858,-4.0745,-4.0648,-4.06,-4.06,-4.06,-4.038,-3.9944,-3.9759,-3.9997,-3.8954,-3.8705,-3.8589,-3.8288,-3.7469,-3.6982,-3.6743,-3.6776,-3.6744,-3.668,-3.693,-3.72,-3.7382,-3.7341,-3.7509,-3.7514,-3.7374,-3.7361,-3.7198,-3.7185,-3.7185,-3.7009,-3.697,-3.722,-3.7238,-3.7541,-3.7615,-3.7602,-3.7609,-3.7347,-3.7261,-3.7334,-3.7372,-3.7392,-3.7392,-3.7429,-3.754,-3.7631,-3.7649,-3.7685,-3.7703,-3.7739,-3.7863,-3.7967,-3.8119,-3.8234,-3.8382,-3.851,-3.867,-3.8732,-3.8652,-3.8652,-3.864,-4.7235,-4.7319,-4.7571,-4.7704,-4.7787,-4.7919,-4.8001,-4.8001,-4.8001,-4.8001,-4.8001,-4.8001,-4.8001,-4.8001,-4.8001,-4.8001,-4.8001,-4.8001,-4.8001,-4.8001,-4.8001,-4.8001,-4.8001,-4.8001,-4.8001,-4.8001,-4.8001,-4.8001,-4.8066,-4.8066,-4.8066,-4.7917,-4.7452,-4.6825,-4.6576,-4.591,-4.5502,-4.5066,-4.4976,-4.4875,-4.4766,-4.4869,-4.4639,-4.4353,-4.4147,-4.3855,-4.3182,-4.3042,-4.2662,-4.1888,-4.1802,-4.1478,-4.0899,-4.0714,-4.0502,-4.0337,-4.0387,-4.0534,-4.0402,-4.0167,-4.0,-4.0221,-3.9799,-3.9817,-3.9463,-3.8958,-3.8405,-3.8538,-3.8063,-3.7759,-3.7826,-3.8109,-3.8443,-3.8512,-3.8489,-3.866,-3.8737,-3.8181,-3.8006,-3.7988,-3.8006,-3.7659,-3.7431,-3.7202,-3.7005,-3.7255,-3.7558,-3.7954,-3.8117,-3.8125,-3.8043,-3.7818,-3.7427,-3.7447,-3.7447,-3.7429,-3.7429,-3.7429,-3.7503,-3.7595,-3.7613,-3.7649,-3.7631,-3.7703,-3.7828,-3.7985,-3.8104,-3.8252,-3.8382,-3.8528,-3.867,-3.8621,-3.8541,-3.8541,-3.8559,-4.7098,-4.7235,-4.747,-4.7654,-4.7704,-4.7787,-4.7935,-4.8001,-4.8001,-4.8001,-4.8001,-4.8001,-4.8001,-4.8001,-4.8001,-4.8001,-4.8001,-4.8001,-4.8001,-4.8001,-4.8001,-4.8001,-4.8001,-4.8001,-4.8001,-4.8001,-4.8001,-4.8001,-4.8001,-4.8001,-4.8001,-4.7951,-4.7669,-4.7289,-4.7005,-4.6288,-4.5679,-4.5286,-4.5033,-4.4948,-4.4971,-4.5015,-4.5039,-4.4819,-4.4801,-4.4423,-4.3992,-4.3836,-4.3147,-4.2302,-4.1943,-4.155,-4.0837,-4.0485,-4.0288,-4.0138,-4.0037,-4.0087,-4.0138,-4.0087,-4.0138,-4.0155,-4.0087,-3.9885,-3.9714,-3.9444,-3.9059,-3.8889,-3.8749,-3.8679,-3.8659,-3.8684,-3.8886,-3.9093,-3.9388,-3.9378,-3.9385,-3.9129,-3.8796,-3.8796,-3.876,-3.8503,-3.835,-3.8496,-3.839,-3.836,-3.8669,-3.9018,-3.8951,-3.8744,-3.8607,-3.8397,-3.7951,-3.7558,-3.7503,-3.7503,-3.7503,-3.7466,-3.7429,-3.754,-3.7577,-3.7613,-3.7613,-3.7703,-3.7863,-3.8002,-3.8104,-3.8271,-3.8415,-3.8528,-3.859,-3.8559,-3.851,-3.8446,-3.8396,-4.6945,-4.7183,-4.7403,-4.7537,-4.7654,-4.7704,-4.7853,-4.8001,-4.8001,-4.8001,-4.8001,-4.8001,-4.8001,-4.8001,-4.8001,-4.8001,-4.8001,-4.8001,-4.8001,-4.8001,-4.8001,-4.8001,-4.8001,-4.8001,-4.8001,-4.8001,-4.8001,-4.8001,-4.8001,-4.8001,-4.8001,-4.8001,-4.7934,-4.7751,-4.7187,-4.6649,-4.6024,-4.5295,-4.5032,-4.4954,-4.4978,-4.5194,-4.53,-4.5353,-4.5372,-4.5165,-4.4682,-4.4561,-4.3837,-4.2942,-4.2566,-4.2191,-4.1391,-4.0832,-4.0442,-4.0255,-3.9999,-3.9781,-3.9833,-3.9935,-3.9986,-4.0037,-4.0054,-3.9935,-3.9867,-3.9816,-3.9766,-3.9427,-3.9555,-3.9435,-3.937,-3.9537,-3.9818,-3.9983,-4.0034,-3.9894,-3.9831,-3.9691,-3.9603,-3.9603,-3.9603,-3.9627,-3.9617,-3.9946,-3.9941,-3.9646,-3.982,-4.0081,-3.9875,-3.9521,-3.8984,-3.8701,-3.7986,-3.7539,-3.7503,-3.7503,-3.7503,-3.7558,-3.7466,-3.7503,-3.7577,-3.7613,-3.7613,-3.7739,-3.788,-3.8036,-3.8189,-3.8303,-3.8465,-3.8578,-3.8609,-3.8559,-3.8478,-3.8433,-3.835,-4.6738,-4.6961,-4.7335,-4.7486,-4.7554,-4.7869,-4.8001,-4.8001,-4.8001,-4.8001,-4.8001,-4.8001,-4.8001,-4.8001,-4.8001,-4.8001,-4.8001,-4.8001,-4.8001,-4.8001,-4.8001,-4.8001,-4.8001,-4.8001,-4.8001,-4.8001,-4.8001,-4.8001,-4.8001,-4.8001,-4.8001,-4.8001,-4.8001,-4.8016,-4.7747,-4.7078,-4.6163,-4.5437,-4.5009,-4.4958,-4.5086,-4.5194,-4.5371,-4.5388,-4.5441,-4.5389,-4.5267,-4.5181,-4.4698,-4.3666,-4.3511,-4.2978,-4.1952,-4.1338,-4.0908,-4.0648,-4.0004,-3.984,-3.993,-3.99,-3.9935,-4.0037,-4.0087,-4.0037,-4.002,-4.002,-4.0053,-4.0118,-4.0195,-4.0535,-4.0701,-4.1052,-4.0901,-4.0885,-4.0806,-4.0867,-4.0727,-4.0516,-4.0428,-4.0453,-4.0436,-4.0418,-4.0591,-4.0835,-4.0795,-4.0501,-4.0775,-4.1056,-4.0721,-4.0331,-3.9465,-3.8839,-3.7964,-3.7518,-3.7429,-3.7411,-3.7466,-3.754,-3.754,-3.754,-3.7577,-3.7613,-3.7649,-3.7757,-3.7898,-3.8054,-3.8241,-3.8322,-3.8451,-3.8596,-3.8627,-3.8528,-3.8433,-3.8354,-3.8322,-4.6823,-4.7115,-4.7386,-4.747,-4.7554,-4.7721,-4.7853,-4.8001,-4.8001,-4.8001,-4.8001,-4.8001,-4.8001,-4.8001,-4.8001,-4.8001,-4.8001,-4.8001,-4.8066,-4.8115,-4.8115,-4.8115,-4.8098,-4.8115,-4.8049,-4.8001,-4.8001,-4.8001,-4.8001,-4.8001,-4.8001,-4.8001,-4.8001,-4.8115,-4.7847,-4.712,-4.5999,-4.5175,-4.489,-4.4995,-4.5032,-4.5264,-4.5441,-4.5441,-4.5441,-4.5371,-4.5266,-4.5283,-4.4677,-4.409,-4.3812,-4.3172,-4.2446,-4.1866,-4.1481,-4.12,-4.0513,-4.0234,-4.023,-4.0083,-3.9884,-4.0037,-4.0087,-4.0087,-4.0087,-4.0087,-4.0271,-4.0468,-4.0697,-4.0953,-4.1244,-4.1391,-4.1455,-4.1587,-4.1604,-4.1604,-4.1464,-4.1148,-4.106,-4.0937,-4.1121,-4.1209,-4.1445,-4.1654,-4.1485,-4.1357,-4.1729,-4.189,-4.1497,-4.0957,-4.0071,-3.9171,-3.8277,-3.7638,-3.7514,-3.7481,-3.7429,-3.7503,-3.7577,-3.7577,-3.7613,-3.7631,-3.7703,-3.7792,-3.7898,-3.8054,-3.8189,-3.8322,-3.8419,-3.8515,-3.8515,-3.8433,-3.8354,-3.8274,-3.8307,-4.6807,-4.7183,-4.7335,-4.747,-4.7604,-4.7721,-4.7853,-4.8017,-4.8001,-4.8001,-4.8001,-4.8001,-4.8001,-4.8001,-4.8001,-4.8001,-4.8001,-4.8001,-4.8115,-4.8179,-4.8163,-4.8227,-4.8227,-4.8227,-4.8179,-4.8049,-4.8001,-4.8001,-4.8001,-4.8001,-4.8001,-4.8001,-4.7984,-4.7967,-4.7545,-4.6692,-4.5497,-4.4727,-4.4703,-4.4978,-4.5032,-4.5194,-4.5318,-4.5318,-4.5318,-4.5211,-4.514,-4.5069,-4.4702,-4.4198,-4.3758,-4.3356,-4.278,-4.2311,-4.2066,-4.1743,-4.1344,-4.095,-4.0846,-4.0352,-3.9918,-4.007,-4.0087,-4.0087,-4.0087,-4.0138,-4.0337,-4.0631,-4.084,-4.1076,-4.138,-4.1515,-4.156,-4.1604,-4.1604,-4.1604,-4.1604,-4.1411,-4.1446,-4.1446,-4.1534,-4.1561,-4.1604,-4.177,-4.1871,-4.1819,-4.2055,-4.2195,-4.1958,-4.1364,-4.0491,-3.9629,-3.873,-3.8146,-3.7651,-3.7547,-3.7425,-3.7466,-3.754,-3.7577,-3.7613,-3.7631,-3.7667,-3.7739,-3.7863,-3.8018,-3.8104,-3.8138,-3.8271,-3.8401,-3.8368,-3.8271,-3.8289,-3.8241,-3.8307,-4.6684,-4.7183,-4.7251,-4.7386,-4.7638,-4.7919,-4.8001,-4.8001,-4.8001,-4.8001,-4.8017,-4.805,-4.8034,-4.805,-4.8084,-4.8117,-4.8001,-4.8001,-4.8115,-4.8227,-4.8292,-4.8356,-4.8356,-4.8373,-4.8308,-4.8179,-4.8115,-4.8066,-4.8001,-4.8001,-4.8001,-4.7885,-4.7736,-4.7486,-4.7112,-4.5912,-4.4968,-4.4411,-4.4626,-4.4831,-4.4923,-4.5069,-4.514,-4.514,-4.5015,-4.4978,-4.4923,-4.4831,-4.4529,-4.426,-4.4074,-4.3836,-4.3556,-4.2998,-4.2667,-4.251,-4.1993,-4.1738,-4.1753,-4.0727,-4.0341,-4.0172,-4.0206,-4.0087,-4.0138,-4.0188,-4.0404,-4.0648,-4.0888,-4.1123,-4.1353,-4.1515,-4.156,-4.1604,-4.1604,-4.1604,-4.1604,-4.1604,-4.1604,-4.1604,-4.1604,-4.1587,-4.1648,-4.178,-4.2055,-4.2205,-4.2405,-4.2409,-4.2221,-4.1546,-4.0636,-4.0058,-3.9217,-3.8545,-3.7998,-3.7612,-3.7458,-3.7463,-3.7466,-3.7503,-3.754,-3.7577,-3.7613,-3.7667,-3.7774,-3.788,-3.7933,-3.7951,-3.8178,-3.8389,-3.8189,-3.8138,-3.8189,-3.8241,-3.8256,-4.6754,-4.7183,-4.7183,-4.7335,-4.7588,-4.7704,-4.7787,-4.7787,-4.7935,-4.8017,-4.8133,-4.8481,-4.8415,-4.8266,-4.8398,-4.8415,-4.805,-4.8001,-4.8115,-4.8356,-4.8356,-4.8564,-4.8564,-4.858,-4.8436,-4.8227,-4.8098,-4.8049,-4.8001,-4.8001,-4.8001,-4.7885,-4.7173,-4.6507,-4.6184,-4.544,-4.4817,-4.4231,-4.4367,-4.4631,-4.4686,-4.4852,-4.4923,-4.4923,-4.4742,-4.4648,-4.4592,-4.4553,-4.4367,-4.4196,-4.4039,-4.3923,-4.3763,-4.3289,-4.3289,-4.3081,-4.2626,-4.2109,-4.2038,-4.1483,-4.1287,-4.083,-4.0323,-4.0155,-4.0087,-4.0121,-4.0337,-4.0648,-4.084,-4.1123,-4.1335,-4.1515,-4.1604,-4.1604,-4.1604,-4.1604,-4.1604,-4.1604,-4.1604,-4.1604,-4.1604,-4.1648,-4.1692,-4.1692,-4.1927,-4.203,-4.2157,-4.2216,-4.2044,-4.1374,-4.0594,-4.0305,-3.9676,-3.8954,-3.8373,-3.8148,-3.7839,-3.7739,-3.7547,-3.7372,-3.741,-3.7571,-3.7484,-3.7539,-3.7613,-3.7739,-3.7739,-3.7846,-3.8205,-3.833,-3.8131,-3.7985,-3.8038,-3.8088,-3.8086,-4.6807,-4.7098,-4.7098,-4.7183,-4.7403,-4.7588,-4.7638,-4.777,-4.8167,-4.8249,-4.8199,-4.8763,-4.8696,-4.8332,-4.8415,-4.858,-4.8017,-4.8001,-4.8115,-4.8356,-4.842,-4.8483,-4.8627,-4.8644,-4.8373,-4.8227,-4.8115,-4.8066,-4.8001,-4.8001,-4.8001,-4.7653,-4.6576,-4.6063,-4.5611,-4.5069,-4.439,-4.4031,-4.4253,-4.4463,-4.4519,-4.4631,-4.4703,-4.4631,-4.4519,-4.431,-4.4253,-4.4155,-4.4097,-4.3939,-4.3822,-4.3763,-4.3645,-4.3645,-4.3645,-4.3446,-4.3273,-4.2841,-4.2785,-4.2395,-4.1997,-4.1305,-4.0656,-4.0187,-4.0054,-4.002,-4.0221,-4.0485,-4.0728,-4.1029,-4.1261,-4.1426,-4.1515,-4.1515,-4.156,-4.156,-4.1604,-4.1604,-4.1604,-4.1604,-4.1604,-4.1675,-4.1675,-4.1692,-4.1736,-4.1797,-4.1858,-4.1902,-4.1945,-4.1382,-4.0856,-4.0637,-4.0355,-3.9757,-3.9247,-3.8895,-3.8513,-3.8082,-3.787,-3.7729,-3.7588,-3.7803,-3.7577,-3.737,-3.7392,-3.7431,-3.7559,-3.7757,-3.799,-3.8079,-3.7918,-3.7882,-3.7882,-3.7951,-3.7984,-4.6738,-4.6892,-4.6892,-4.703,-4.7183,-4.7403,-4.7604,-4.777,-4.863,-4.8597,-4.8067,-4.8779,-4.868,-4.8117,-4.8084,-4.81,-4.8017,-4.8001,-4.8115,-4.8163,-4.8227,-4.8356,-4.842,-4.8356,-4.8292,-4.8179,-4.8115,-4.8049,-4.8001,-4.8001,-4.8001,-4.7686,-4.6527,-4.6063,-4.5533,-4.4716,-4.4029,-4.3898,-4.4097,-4.4253,-4.4367,-4.4406,-4.4423,-4.4367,-4.4196,-4.408,-4.3981,-4.3923,-4.3881,-4.3839,-4.3704,-4.3645,-4.3645,-4.3645,-4.3645,-4.3628,-4.3697,-4.3714,-4.3606,-4.313,-4.2445,-4.1694,-4.1255,-4.0604,-4.0068,-3.9918,-4.007,-4.0337,-4.0583,-4.084,-4.1093,-4.1215,-4.138,-4.1426,-4.1515,-4.156,-4.1604,-4.1604,-4.1604,-4.1604,-4.1604,-4.1648,-4.1648,-4.1648,-4.1648,-4.1692,-4.1754,-4.1797,-4.1841,-4.1841,-4.1402,-4.1262,-4.0963,-4.0612,-4.0137,-3.9585,-3.9129,-3.8643,-3.8614,-3.8509,-3.8357,-3.7918,-3.7571,-3.7312,-3.714,-3.7276,-3.7714,-3.779,-3.7684,-3.7756,-3.806,-3.7864,-3.79,-3.7881,-3.7915,-4.6652,-4.6668,-4.6807,-4.6945,-4.703,-4.7335,-4.7604,-4.777,-4.8034,-4.8018,-4.805,-4.8779,-4.868,-4.8067,-4.8547,-4.8382,-4.8166,-4.8001,-4.8115,-4.8179,-4.8163,-4.8356,-4.842,-4.842,-4.8292,-4.8227,-4.8115,-4.8049,-4.8001,-4.8001,-4.8001,-4.7769,-4.651,-4.6212,-4.5698,-4.4622,-4.4026,-4.3813,-4.3989,-4.4039,-4.4097,-4.4155,-4.4155,-4.4039,-4.3923,-4.3805,-4.3747,-4.3747,-4.3704,-4.3704,-4.3645,-4.3645,-4.3645,-4.3645,-4.3645,-4.3628,-4.3747,-4.3864,-4.3864,-4.3797,-4.3146,-4.2032,-4.156,-4.0796,-4.0146,-3.9815,-3.9969,-4.0138,-4.0387,-4.06,-4.0858,-4.1029,-4.1198,-4.129,-4.1426,-4.1515,-4.156,-4.1604,-4.1604,-4.1604,-4.1604,-4.1604,-4.1604,-4.1604,-4.1648,-4.1604,-4.1604,-4.1692,-4.1736,-4.1736,-4.178,-4.1578,-4.1411,-4.1051,-4.0613,-4.0139,-3.9676,-3.9283,-3.9303,-3.9085,-3.8457,-3.7969,-3.7574,-3.73,-3.7229,-3.7641,-3.8209,-3.8053,-3.761,-3.8217,-3.8504,-3.8167,-3.7936,-3.8098,-3.8151,-4.5971,-4.6003,-4.6502,-4.6684,-4.6807,-4.7098,-4.7386,-4.7637,-4.81,-4.8233,-4.81,-4.8779,-4.8713,-4.8133,-4.8382,-4.8382,-4.8034,-4.8001,-4.8066,-4.8049,-4.8115,-4.8179,-4.8308,-4.8308,-4.8244,-4.8179,-4.8115,-4.8066,-4.8001,-4.8001,-4.8001,-4.7868,-4.6527,-4.6411,-4.603,-4.4887,-4.3992,-4.3936,-4.3979,-4.3931,-4.3881,-4.3881,-4.3881,-4.3822,-4.3687,-4.3628,-4.3645,-4.3645,-4.3645,-4.3645,-4.3645,-4.3645,-4.3645,-4.3645,-4.3645,-4.3645,-4.3763,-4.3822,-4.3822,-4.3939,-4.3165,-4.2359,-4.176,-4.0978,-4.0354,-3.9857,-3.9847,-3.9918,-4.0138,-4.0337,-4.06,-4.0793,-4.0965,-4.1152,-4.129,-4.1471,-4.1515,-4.1604,-4.1604,-4.1604,-4.1604,-4.1604,-4.1604,-4.1604,-4.1604,-4.1604,-4.1604,-4.1648,-4.1648,-4.1692,-4.1736,-4.1719,-4.1596,-4.142,-4.1016,-4.0639,-4.0368,-4.0087,-4.011,-3.97,-3.8816,-3.8382,-3.8252,-3.784,-3.7388,-3.7787,-3.8129,-3.7854,-3.7589,-3.8322,-3.8968,-3.8827,-3.8738,-3.8954,-3.8902,-4.4919,-4.4967,-4.5831,-4.625,-4.6571,-4.6747,-4.7085,-4.7586,-4.8381,-4.8514,-4.8067,-4.8564,-4.8349,-4.7636,-4.7769,-4.7901,-4.7835,-4.7885,-4.8001,-4.8001,-4.8066,-4.8066,-4.8066,-4.8001,-4.8066,-4.8001,-4.8001,-4.8001,-4.8001,-4.8001,-4.7984,-4.7901,-4.6527,-4.6195,-4.6444,-4.4688,-4.3943,-4.4384,-4.4112,-4.3822,-4.3822,-4.3822,-4.3898,-4.3839,-4.3704,-4.3645,-4.3645,-4.3645,-4.3645,-4.3645,-4.3645,-4.3645,-4.3645,-4.3645,-4.3645,-4.3704,-4.3839,-4.3822,-4.3822,-4.3881,-4.339,-4.265,-4.1889,-4.1199,-4.0596,-3.9834,-3.9692,-3.9781,-3.9986,-4.0138,-4.0337,-4.0648,-4.0823,-4.1059,-4.1244,-4.1426,-4.156,-4.1604,-4.1604,-4.1604,-4.1604,-4.1604,-4.1604,-4.1604,-4.1604,-4.1604,-4.1604,-4.1604,-4.1648,-4.1648,-4.1648,-4.1736,-4.1719,-4.1596,-4.1348,-4.1039,-4.1007,-4.0915,-4.074,-4.0262,-3.9295,-3.9071,-3.9019,-3.8365,-3.769,-3.7649,-3.776,-3.7739,-3.8013,-3.877,-3.9254,-3.9397,-3.9557,-3.9881,-3.9667,-4.3997,-4.4082,-4.4532,-4.5174,-4.5862,-4.615,-4.6745,-4.7488,-4.7423,-4.7338,-4.7206,-4.7289,-4.709,-4.6609,-4.7073,-4.7272,-4.7322,-4.7802,-4.7968,-4.8001,-4.8001,-4.8001,-4.8001,-4.8001,-4.8001,-4.8001,-4.8001,-4.8001,-4.7984,-4.8001,-4.7934,-4.7802,-4.651,-4.6046,-4.6593,-4.4655,-4.3992,-4.4572,-4.4102,-4.3721,-4.3704,-4.3687,-4.3687,-4.3704,-4.3645,-4.3645,-4.3645,-4.3645,-4.3645,-4.3645,-4.3645,-4.3645,-4.3645,-4.3645,-4.3704,-4.3822,-4.3881,-4.3939,-4.3939,-4.3906,-4.3473,-4.2966,-4.2278,-4.1554,-4.0757,-3.9947,-3.9587,-3.978,-3.9884,-4.0037,-4.0188,-4.0485,-4.0728,-4.0965,-4.1152,-4.138,-4.156,-4.1604,-4.1604,-4.1604,-4.1604,-4.1604,-4.1604,-4.1604,-4.1604,-4.1604,-4.1604,-4.1604,-4.1648,-4.1648,-4.1604,-4.1692,-4.1736,-4.1648,-4.1471,-4.1272,-4.1134,-4.0948,-4.0737,-4.0242,-3.9714,-3.9502,-3.9284,-3.8555,-3.8007,-3.8146,-3.8262,-3.8227,-3.8649,-3.9373,-3.981,-4.0098,-4.0745,-4.1178,-4.0709,-4.2871,-4.3041,-4.3754,-4.4377,-4.4986,-4.5404,-4.5996,-4.6438,-4.6465,-4.6228,-4.603,-4.6195,-4.6162,-4.5897,-4.6576,-4.6858,-4.7007,-4.7686,-4.7934,-4.8001,-4.8001,-4.8001,-4.8001,-4.8001,-4.8001,-4.8001,-4.8001,-4.8001,-4.7984,-4.7587,-4.7421,-4.7322,-4.6245,-4.5698,-4.6096,-4.4721,-4.3992,-4.4605,-4.3959,-4.3678,-4.3645,-4.3628,-4.3628,-4.3645,-4.3645,-4.3645,-4.3645,-4.3645,-4.3645,-4.3645,-4.3645,-4.3645,-4.3645,-4.3704,-4.3822,-4.3939,-4.4056,-4.408,-4.4097,-4.3931,-4.3739,-4.3257,-4.2659,-4.1929,-4.1916,-4.1138,-4.0261,-4.0301,-4.0002,-4.007,-4.0238,-4.0453,-4.0745,-4.0982,-4.1134,-4.1318,-4.1498,-4.1604,-4.1604,-4.1604,-4.1604,-4.1604,-4.1604,-4.1604,-4.1604,-4.1604,-4.1604,-4.1604,-4.1648,-4.1692,-4.1648,-4.1604,-4.1692,-4.1604,-4.1363,-4.1226,-4.1088,-4.0901,-4.0728,-4.0521,-4.013,-3.9834,-3.948,-3.8977,-3.8747,-3.8963,-3.9035,-3.8942,-3.9465,-4.0232,-4.0599,-4.0874,-4.1615,-4.2174,-4.1719,-4.1682,-4.2122,-4.3,-4.3675,-4.4145,-4.4675,-4.5097,-4.5372,-4.5573,-4.5317,-4.4887,-4.5301,-4.55,-4.5765,-4.6394,-4.6609,-4.7007,-4.7653,-4.7918,-4.8001,-4.8001,-4.8001,-4.8001,-4.8001,-4.8001,-4.8001,-4.8001,-4.8001,-4.8001,-4.7603,-4.7239,-4.6758,-4.6063,-4.5334,-4.5317,-4.4721,-4.4158,-4.4357,-4.4075,-4.3711,-4.3645,-4.3645,-4.3645,-4.3645,-4.3645,-4.3645,-4.3645,-4.3645,-4.3645,-4.3645,-4.3645,-4.3645,-4.3645,-4.3763,-4.3939,-4.4056,-4.4155,-4.4155,-4.4155,-4.4039,-4.3831,-4.3547,-4.2916,-4.2642,-4.2615,-4.22,-4.1305,-4.0843,-4.0544,-4.0391,-4.0559,-4.0571,-4.0862,-4.1047,-4.1215,-4.13,-4.1453,-4.1604,-4.1604,-4.1604,-4.1604,-4.1604,-4.1604,-4.1604,-4.1604,-4.1604,-4.1604,-4.1604,-4.1604,-4.1604,-4.1604,-4.1604,-4.1648,-4.1498,-4.1255,-4.118,-4.1088,-4.0806,-4.0631,-4.0631,-4.0546,-4.025,-3.9954,-3.9669,-3.9576,-3.9791,-3.9746,-3.9623,-4.0294,-4.0976,-4.1049,-4.1274,-4.1977,-4.2465,-4.2537,-4.1,-4.146,-4.1869,-4.2566,-4.3556,-4.4026,-4.4671,-4.5302,-4.5057,-4.4787,-4.4572,-4.4141,-4.4042,-4.4125,-4.545,-4.5997,-4.6212,-4.7222,-4.7868,-4.8001,-4.7984,-4.7984,-4.8001,-4.8001,-4.8001,-4.8001,-4.8001,-4.8001,-4.7934,-4.7785,-4.7719,-4.7537,-4.6874,-4.6361,-4.6245,-4.5417,-4.444,-4.4456,-4.4075,-4.3645,-4.3645,-4.3645,-4.3645,-4.3645,-4.3645,-4.3645,-4.3645,-4.3645,-4.3645,-4.3645,-4.3645,-4.3645,-4.3704,-4.3822,-4.3981,-4.4097,-4.4212,-4.4212,-4.4212,-4.4056,-4.3881,-4.3747,-4.3273,-4.309,-4.3048,-4.3009,-4.237,-4.2047,-4.1731,-4.1393,-4.1374,-4.1126,-4.1229,-4.1279,-4.1377,-4.1443,-4.156,-4.1604,-4.1604,-4.1604,-4.1604,-4.1604,-4.1604,-4.1604,-4.1604,-4.1604,-4.1604,-4.1604,-4.1604,-4.1604,-4.1604,-4.1604,-4.1604,-4.1453,-4.1255,-4.118,-4.1105,-4.0776,-4.0534,-4.0485,-4.0534,-4.0631,-4.0371,-4.01,-4.0303,-4.061,-4.0517,-4.032,-4.0908,-4.1451,-4.1375,-4.1564,-4.2307,-4.2649,-4.2649]}]]